<?xml version="1.0" encoding="UTF-8" standalone="no" ?>
<gpx xmlns="http://www.topografix.com/GPX/1/1" xmlns:xsi="http://www.w3.org/2001/XMLSchema-instance" xsi:schemaLocation="http://www.topografix.com/GPX/1/1 http://www.topografix.com/GPX/1/1/gpx.xsd" version="1.1" creator="VisuGPX - https://www.visugpx.com">
  <metadata>
    <name>Plouarzel - Belgrade</name>
    <desc><![CDATA[Arrivée à Belgrade le 11 juillet. 66 jours pédalés. 7 jours de repos.
]]></desc>
  </metadata>
  <trk>
    <name><![CDATA[Sortie à vélo]]></name>
    <extensions>
      <line xmlns="http://www.topografix.com/GPX/gpx_style/0/2">
        <color>0000FF</color>
        <width>4</width>
      </line>
    </extensions>
    <trkseg>
      <trkpt lat="48.22477" lon="-3.17581">
        <ele>180.618592</ele>
        <time>2023-05-03T11:24:23.456Z</time>
      </trkpt>
      <trkpt lat="48.22478" lon="-3.17559">
        <ele>180.618592</ele>
        <time>2023-05-03T11:24:51.456Z</time>
      </trkpt>
      <trkpt lat="48.22479" lon="-3.1754">
        <ele>180.618592</ele>
        <time>2023-05-03T11:24:55.459Z</time>
      </trkpt>
      <trkpt lat="48.22479" lon="-3.17524">
        <ele>180.618592</ele>
        <time>2023-05-03T11:24:58.456Z</time>
      </trkpt>
      <trkpt lat="48.22479" lon="-3.17506">
        <ele>180.618592</ele>
        <time>2023-05-03T11:25:01.457Z</time>
      </trkpt>
      <trkpt lat="48.22482" lon="-3.17488">
        <ele>180.618592</ele>
        <time>2023-05-03T11:25:04.454Z</time>
      </trkpt>
      <trkpt lat="48.22482" lon="-3.17471">
        <ele>180.618592</ele>
        <time>2023-05-03T11:25:07.463Z</time>
      </trkpt>
      <trkpt lat="48.22484" lon="-3.17454">
        <ele>180.618592</ele>
        <time>2023-05-03T11:25:10.458Z</time>
      </trkpt>
      <trkpt lat="48.22486" lon="-3.17439">
        <ele>180.57673</ele>
        <time>2023-05-03T11:25:13.466Z</time>
      </trkpt>
      <trkpt lat="48.22488" lon="-3.17425">
        <ele>180.497966</ele>
        <time>2023-05-03T11:25:16.463Z</time>
      </trkpt>
      <trkpt lat="48.22491" lon="-3.17409">
        <ele>180.40824</ele>
        <time>2023-05-03T11:25:19.461Z</time>
      </trkpt>
      <trkpt lat="48.22492" lon="-3.17391">
        <ele>180.310665</ele>
        <time>2023-05-03T11:25:22.459Z</time>
      </trkpt>
      <trkpt lat="48.22494" lon="-3.17374">
        <ele>180.217212</ele>
        <time>2023-05-03T11:25:25.459Z</time>
      </trkpt>
      <trkpt lat="48.22494" lon="-3.17358">
        <ele>180.129188</ele>
        <time>2023-05-03T11:25:28.457Z</time>
      </trkpt>
      <trkpt lat="48.22491" lon="-3.17341">
        <ele>180.036752</ele>
        <time>2023-05-03T11:25:31.452Z</time>
      </trkpt>
      <trkpt lat="48.22487" lon="-3.17327">
        <ele>179.956951</ele>
        <time>2023-05-03T11:25:34.454Z</time>
      </trkpt>
      <trkpt lat="48.22482" lon="-3.17315">
        <ele>179.880001</ele>
        <time>2023-05-03T11:25:37.454Z</time>
      </trkpt>
      <trkpt lat="48.22474" lon="-3.17305">
        <ele>179.791823</ele>
        <time>2023-05-03T11:25:41.460Z</time>
      </trkpt>
      <trkpt lat="48.22464" lon="-3.17295">
        <ele>179.698653</ele>
        <time>2023-05-03T11:25:45.460Z</time>
      </trkpt>
      <trkpt lat="48.22457" lon="-3.17286">
        <ele>179.616852</ele>
        <time>2023-05-03T11:25:47.443Z</time>
      </trkpt>
      <trkpt lat="48.22447" lon="-3.17272">
        <ele>179.512919</ele>
        <time>2023-05-03T11:25:50.449Z</time>
      </trkpt>
      <trkpt lat="48.2244" lon="-3.17263">
        <ele>179.434886</ele>
        <time>2023-05-03T11:25:55.452Z</time>
      </trkpt>
      <trkpt lat="48.22432" lon="-3.17251">
        <ele>179.345504</ele>
        <time>2023-05-03T11:26:01.456Z</time>
      </trkpt>
      <trkpt lat="48.22423" lon="-3.17241">
        <ele>179.252828</ele>
        <time>2023-05-03T11:26:05.454Z</time>
      </trkpt>
      <trkpt lat="48.22415" lon="-3.17232">
        <ele>179.170753</ele>
        <time>2023-05-03T11:26:08.459Z</time>
      </trkpt>
      <trkpt lat="48.22407" lon="-3.17221">
        <ele>179.013756</ele>
        <time>2023-05-03T11:26:11.437Z</time>
      </trkpt>
      <trkpt lat="48.22398" lon="-3.17212">
        <ele>178.843412</ele>
        <time>2023-05-03T11:26:15.458Z</time>
      </trkpt>
      <trkpt lat="48.22385" lon="-3.17205">
        <ele>178.641123</ele>
        <time>2023-05-03T11:26:18.453Z</time>
      </trkpt>
      <trkpt lat="48.22377" lon="-3.172">
        <ele>178.500609</ele>
        <time>2023-05-03T11:26:20.459Z</time>
      </trkpt>
      <trkpt lat="48.22367" lon="-3.17197">
        <ele>178.342598</ele>
        <time>2023-05-03T11:26:22.453Z</time>
      </trkpt>
      <trkpt lat="48.22358" lon="-3.17195">
        <ele>178.199619</ele>
        <time>2023-05-03T11:26:24.458Z</time>
      </trkpt>
      <trkpt lat="48.22345" lon="-3.17191">
        <ele>177.99894</ele>
        <time>2023-05-03T11:26:27.461Z</time>
      </trkpt>
      <trkpt lat="48.22332" lon="-3.17187">
        <ele>177.790051</ele>
        <time>2023-05-03T11:26:30.453Z</time>
      </trkpt>
      <trkpt lat="48.22322" lon="-3.17184">
        <ele>177.630539</ele>
        <time>2023-05-03T11:26:32.458Z</time>
      </trkpt>
      <trkpt lat="48.22309" lon="-3.17179">
        <ele>177.423116</ele>
        <time>2023-05-03T11:26:35.452Z</time>
      </trkpt>
      <trkpt lat="48.22296" lon="-3.17175">
        <ele>177.224858</ele>
        <time>2023-05-03T11:26:38.459Z</time>
      </trkpt>
      <trkpt lat="48.22284" lon="-3.17173">
        <ele>177.036028</ele>
        <time>2023-05-03T11:26:41.457Z</time>
      </trkpt>
      <trkpt lat="48.22272" lon="-3.17172">
        <ele>176.841334</ele>
        <time>2023-05-03T11:26:44.461Z</time>
      </trkpt>
      <trkpt lat="48.2226" lon="-3.17169">
        <ele>176.656178</ele>
        <time>2023-05-03T11:26:47.444Z</time>
      </trkpt>
      <trkpt lat="48.22248" lon="-3.17165">
        <ele>176.47222</ele>
        <time>2023-05-03T11:26:50.449Z</time>
      </trkpt>
      <trkpt lat="48.22237" lon="-3.17163">
        <ele>176.375269</ele>
        <time>2023-05-03T11:26:53.461Z</time>
      </trkpt>
      <trkpt lat="48.22226" lon="-3.17159">
        <ele>176.385326</ele>
        <time>2023-05-03T11:26:56.458Z</time>
      </trkpt>
      <trkpt lat="48.22213" lon="-3.17156">
        <ele>176.39567</ele>
        <time>2023-05-03T11:26:59.458Z</time>
      </trkpt>
      <trkpt lat="48.22202" lon="-3.17155">
        <ele>176.405651</ele>
        <time>2023-05-03T11:27:02.460Z</time>
      </trkpt>
      <trkpt lat="48.2219" lon="-3.17153">
        <ele>176.415454</ele>
        <time>2023-05-03T11:27:05.455Z</time>
      </trkpt>
      <trkpt lat="48.22179" lon="-3.17152">
        <ele>176.424529</ele>
        <time>2023-05-03T11:27:08.458Z</time>
      </trkpt>
      <trkpt lat="48.22168" lon="-3.17151">
        <ele>176.434006</ele>
        <time>2023-05-03T11:27:11.451Z</time>
      </trkpt>
      <trkpt lat="48.22157" lon="-3.17151">
        <ele>176.443303</ele>
        <time>2023-05-03T11:27:14.446Z</time>
      </trkpt>
      <trkpt lat="48.22147" lon="-3.17154">
        <ele>176.452453</ele>
        <time>2023-05-03T11:27:17.464Z</time>
      </trkpt>
      <trkpt lat="48.22136" lon="-3.17154">
        <ele>176.461667</ele>
        <time>2023-05-03T11:27:20.465Z</time>
      </trkpt>
      <trkpt lat="48.22125" lon="-3.17153">
        <ele>176.470883</ele>
        <time>2023-05-03T11:27:23.457Z</time>
      </trkpt>
      <trkpt lat="48.22115" lon="-3.17152">
        <ele>176.479183</ele>
        <time>2023-05-03T11:27:26.465Z</time>
      </trkpt>
      <trkpt lat="48.22104" lon="-3.1715">
        <ele>176.488416</ele>
        <time>2023-05-03T11:27:29.453Z</time>
      </trkpt>
      <trkpt lat="48.22095" lon="-3.17146">
        <ele>176.496738</ele>
        <time>2023-05-03T11:27:32.457Z</time>
      </trkpt>
      <trkpt lat="48.22086" lon="-3.17142">
        <ele>176.504514</ele>
        <time>2023-05-03T11:27:35.455Z</time>
      </trkpt>
      <trkpt lat="48.22076" lon="-3.17136">
        <ele>176.513179</ele>
        <time>2023-05-03T11:27:38.458Z</time>
      </trkpt>
      <trkpt lat="48.22067" lon="-3.17127">
        <ele>176.522249</ele>
        <time>2023-05-03T11:27:41.455Z</time>
      </trkpt>
      <trkpt lat="48.22058" lon="-3.17121">
        <ele>176.723234</ele>
        <time>2023-05-03T11:27:44.457Z</time>
      </trkpt>
      <trkpt lat="48.22048" lon="-3.17115">
        <ele>176.948271</ele>
        <time>2023-05-03T11:27:47.458Z</time>
      </trkpt>
      <trkpt lat="48.22037" lon="-3.17109">
        <ele>177.190734</ele>
        <time>2023-05-03T11:27:50.454Z</time>
      </trkpt>
      <trkpt lat="48.22028" lon="-3.17103">
        <ele>177.39563</ele>
        <time>2023-05-03T11:27:53.454Z</time>
      </trkpt>
      <trkpt lat="48.22019" lon="-3.17097">
        <ele>177.613617</ele>
        <time>2023-05-03T11:27:56.459Z</time>
      </trkpt>
      <trkpt lat="48.22009" lon="-3.1709">
        <ele>177.839002</ele>
        <time>2023-05-03T11:27:59.465Z</time>
      </trkpt>
      <trkpt lat="48.22001" lon="-3.17085">
        <ele>178.03432</ele>
        <time>2023-05-03T11:28:02.458Z</time>
      </trkpt>
      <trkpt lat="48.21991" lon="-3.17076">
        <ele>178.281353</ele>
        <time>2023-05-03T11:28:05.457Z</time>
      </trkpt>
      <trkpt lat="48.21981" lon="-3.17065">
        <ele>178.532012</ele>
        <time>2023-05-03T11:28:08.461Z</time>
      </trkpt>
      <trkpt lat="48.21973" lon="-3.17056">
        <ele>178.753896</ele>
        <time>2023-05-03T11:28:11.454Z</time>
      </trkpt>
      <trkpt lat="48.21964" lon="-3.17046">
        <ele>178.983528</ele>
        <time>2023-05-03T11:28:14.456Z</time>
      </trkpt>
      <trkpt lat="48.21957" lon="-3.17036">
        <ele>179.193602</ele>
        <time>2023-05-03T11:28:17.462Z</time>
      </trkpt>
      <trkpt lat="48.21949" lon="-3.17027">
        <ele>179.396934</ele>
        <time>2023-05-03T11:28:20.453Z</time>
      </trkpt>
      <trkpt lat="48.21941" lon="-3.17018">
        <ele>179.609487</ele>
        <time>2023-05-03T11:28:23.455Z</time>
      </trkpt>
      <trkpt lat="48.21934" lon="-3.1701">
        <ele>179.809532</ele>
        <time>2023-05-03T11:28:27.456Z</time>
      </trkpt>
      <trkpt lat="48.21925" lon="-3.17">
        <ele>180.040789</ele>
        <time>2023-05-03T11:28:31.440Z</time>
      </trkpt>
      <trkpt lat="48.21918" lon="-3.16989">
        <ele>180.257442</ele>
        <time>2023-05-03T11:28:36.461Z</time>
      </trkpt>
      <trkpt lat="48.21911" lon="-3.16978">
        <ele>180.276765</ele>
        <time>2023-05-03T11:28:39.456Z</time>
      </trkpt>
      <trkpt lat="48.21905" lon="-3.16965">
        <ele>180.19435</ele>
        <time>2023-05-03T11:28:42.443Z</time>
      </trkpt>
      <trkpt lat="48.219" lon="-3.16951">
        <ele>180.104981</ele>
        <time>2023-05-03T11:28:45.463Z</time>
      </trkpt>
      <trkpt lat="48.21895" lon="-3.16935">
        <ele>180.009754</ele>
        <time>2023-05-03T11:28:48.453Z</time>
      </trkpt>
      <trkpt lat="48.21891" lon="-3.16919">
        <ele>179.921697</ele>
        <time>2023-05-03T11:28:51.454Z</time>
      </trkpt>
      <trkpt lat="48.21888" lon="-3.16903">
        <ele>179.831017</ele>
        <time>2023-05-03T11:28:54.456Z</time>
      </trkpt>
      <trkpt lat="48.21885" lon="-3.16886">
        <ele>179.737343</ele>
        <time>2023-05-03T11:28:57.459Z</time>
      </trkpt>
      <trkpt lat="48.21884" lon="-3.1687">
        <ele>179.648811</ele>
        <time>2023-05-03T11:29:00.460Z</time>
      </trkpt>
      <trkpt lat="48.21884" lon="-3.16854">
        <ele>179.565923</ele>
        <time>2023-05-03T11:29:03.444Z</time>
      </trkpt>
      <trkpt lat="48.21882" lon="-3.16838">
        <ele>179.479386</ele>
        <time>2023-05-03T11:29:06.457Z</time>
      </trkpt>
      <trkpt lat="48.21882" lon="-3.16822">
        <ele>179.38843</ele>
        <time>2023-05-03T11:29:09.454Z</time>
      </trkpt>
      <trkpt lat="48.21882" lon="-3.16804">
        <ele>179.292662</ele>
        <time>2023-05-03T11:29:12.458Z</time>
      </trkpt>
      <trkpt lat="48.21882" lon="-3.16788">
        <ele>179.209794</ele>
        <time>2023-05-03T11:29:15.459Z</time>
      </trkpt>
      <trkpt lat="48.21883" lon="-3.16772">
        <ele>179.122721</ele>
        <time>2023-05-03T11:29:18.453Z</time>
      </trkpt>
      <trkpt lat="48.21886" lon="-3.16757">
        <ele>179.037287</ele>
        <time>2023-05-03T11:29:21.455Z</time>
      </trkpt>
      <trkpt lat="48.21888" lon="-3.16741">
        <ele>178.952551</ele>
        <time>2023-05-03T11:29:24.456Z</time>
      </trkpt>
      <trkpt lat="48.2189" lon="-3.16725">
        <ele>178.892458</ele>
        <time>2023-05-03T11:29:27.461Z</time>
      </trkpt>
      <trkpt lat="48.21892" lon="-3.16708">
        <ele>178.976091</ele>
        <time>2023-05-03T11:29:30.453Z</time>
      </trkpt>
      <trkpt lat="48.21894" lon="-3.16692">
        <ele>179.055433</ele>
        <time>2023-05-03T11:29:33.456Z</time>
      </trkpt>
      <trkpt lat="48.21896" lon="-3.16676">
        <ele>179.134106</ele>
        <time>2023-05-03T11:29:36.457Z</time>
      </trkpt>
      <trkpt lat="48.21898" lon="-3.1666">
        <ele>179.213926</ele>
        <time>2023-05-03T11:29:39.464Z</time>
      </trkpt>
      <trkpt lat="48.219" lon="-3.16644">
        <ele>179.291504</ele>
        <time>2023-05-03T11:29:42.457Z</time>
      </trkpt>
      <trkpt lat="48.21902" lon="-3.1663">
        <ele>179.360721</ele>
        <time>2023-05-03T11:29:45.458Z</time>
      </trkpt>
      <trkpt lat="48.21903" lon="-3.16617">
        <ele>179.427572</ele>
        <time>2023-05-03T11:29:48.455Z</time>
      </trkpt>
      <trkpt lat="48.21905" lon="-3.16602">
        <ele>179.501207</ele>
        <time>2023-05-03T11:29:51.451Z</time>
      </trkpt>
      <trkpt lat="48.21906" lon="-3.16587">
        <ele>179.57287</ele>
        <time>2023-05-03T11:29:54.460Z</time>
      </trkpt>
      <trkpt lat="48.21911" lon="-3.16571">
        <ele>179.65965</ele>
        <time>2023-05-03T11:29:58.458Z</time>
      </trkpt>
      <trkpt lat="48.21916" lon="-3.16556">
        <ele>179.739348</ele>
        <time>2023-05-03T11:30:01.464Z</time>
      </trkpt>
      <trkpt lat="48.21922" lon="-3.16542">
        <ele>179.8212</ele>
        <time>2023-05-03T11:30:04.462Z</time>
      </trkpt>
      <trkpt lat="48.21927" lon="-3.16528">
        <ele>179.900475</ele>
        <time>2023-05-03T11:30:07.457Z</time>
      </trkpt>
      <trkpt lat="48.21933" lon="-3.16513">
        <ele>179.980832</ele>
        <time>2023-05-03T11:30:10.449Z</time>
      </trkpt>
      <trkpt lat="48.21939" lon="-3.16498">
        <ele>180.064978</ele>
        <time>2023-05-03T11:30:13.453Z</time>
      </trkpt>
      <trkpt lat="48.21943" lon="-3.16484">
        <ele>180.143851</ele>
        <time>2023-05-03T11:30:16.457Z</time>
      </trkpt>
      <trkpt lat="48.2195" lon="-3.16472">
        <ele>179.991266</ele>
        <time>2023-05-03T11:30:19.458Z</time>
      </trkpt>
      <trkpt lat="48.21958" lon="-3.1646">
        <ele>179.535374</ele>
        <time>2023-05-03T11:30:22.473Z</time>
      </trkpt>
      <trkpt lat="48.21965" lon="-3.16449">
        <ele>179.108105</ele>
        <time>2023-05-03T11:30:25.458Z</time>
      </trkpt>
      <trkpt lat="48.21973" lon="-3.16438">
        <ele>178.650359</ele>
        <time>2023-05-03T11:30:28.461Z</time>
      </trkpt>
      <trkpt lat="48.2198" lon="-3.16426">
        <ele>178.200275</ele>
        <time>2023-05-03T11:30:31.450Z</time>
      </trkpt>
      <trkpt lat="48.21985" lon="-3.16412">
        <ele>177.764879</ele>
        <time>2023-05-03T11:30:34.457Z</time>
      </trkpt>
      <trkpt lat="48.2199" lon="-3.16397">
        <ele>177.312607</ele>
        <time>2023-05-03T11:30:37.457Z</time>
      </trkpt>
      <trkpt lat="48.21994" lon="-3.16385">
        <ele>176.922782</ele>
        <time>2023-05-03T11:30:40.458Z</time>
      </trkpt>
      <trkpt lat="48.21999" lon="-3.1637">
        <ele>176.451792</ele>
        <time>2023-05-03T11:30:43.457Z</time>
      </trkpt>
      <trkpt lat="48.22002" lon="-3.16353">
        <ele>175.957957</ele>
        <time>2023-05-03T11:30:46.452Z</time>
      </trkpt>
      <trkpt lat="48.22004" lon="-3.16336">
        <ele>175.467639</ele>
        <time>2023-05-03T11:30:49.447Z</time>
      </trkpt>
      <trkpt lat="48.22007" lon="-3.1632">
        <ele>175.033676</ele>
        <time>2023-05-03T11:30:52.451Z</time>
      </trkpt>
      <trkpt lat="48.22009" lon="-3.16305">
        <ele>174.593292</ele>
        <time>2023-05-03T11:30:55.452Z</time>
      </trkpt>
      <trkpt lat="48.22011" lon="-3.16288">
        <ele>174.113461</ele>
        <time>2023-05-03T11:30:59.456Z</time>
      </trkpt>
      <trkpt lat="48.22012" lon="-3.16274">
        <ele>173.721891</ele>
        <time>2023-05-03T11:31:02.458Z</time>
      </trkpt>
      <trkpt lat="48.22012" lon="-3.16257">
        <ele>173.243569</ele>
        <time>2023-05-03T11:31:05.457Z</time>
      </trkpt>
      <trkpt lat="48.22012" lon="-3.16241">
        <ele>172.798908</ele>
        <time>2023-05-03T11:31:08.458Z</time>
      </trkpt>
      <trkpt lat="48.22012" lon="-3.16225">
        <ele>172.79762</ele>
        <time>2023-05-03T11:31:11.450Z</time>
      </trkpt>
      <trkpt lat="48.22012" lon="-3.1621">
        <ele>173.023323</ele>
        <time>2023-05-03T11:31:14.452Z</time>
      </trkpt>
      <trkpt lat="48.22011" lon="-3.16193">
        <ele>173.280208</ele>
        <time>2023-05-03T11:31:17.455Z</time>
      </trkpt>
      <trkpt lat="48.22009" lon="-3.16177">
        <ele>173.528004</ele>
        <time>2023-05-03T11:31:21.460Z</time>
      </trkpt>
      <trkpt lat="48.22004" lon="-3.16164">
        <ele>173.746294</ele>
        <time>2023-05-03T11:31:24.455Z</time>
      </trkpt>
      <trkpt lat="48.21998" lon="-3.1615">
        <ele>174.00038</ele>
        <time>2023-05-03T11:31:27.459Z</time>
      </trkpt>
      <trkpt lat="48.21991" lon="-3.16137">
        <ele>174.246195</ele>
        <time>2023-05-03T11:31:30.449Z</time>
      </trkpt>
      <trkpt lat="48.21984" lon="-3.16126">
        <ele>174.486773</ele>
        <time>2023-05-03T11:31:33.452Z</time>
      </trkpt>
      <trkpt lat="48.21974" lon="-3.16117">
        <ele>174.743081</ele>
        <time>2023-05-03T11:31:36.451Z</time>
      </trkpt>
      <trkpt lat="48.21966" lon="-3.16109">
        <ele>174.961426</ele>
        <time>2023-05-03T11:31:39.453Z</time>
      </trkpt>
      <trkpt lat="48.21956" lon="-3.16101">
        <ele>175.213252</ele>
        <time>2023-05-03T11:31:43.454Z</time>
      </trkpt>
      <trkpt lat="48.21948" lon="-3.16094">
        <ele>175.418828</ele>
        <time>2023-05-03T11:31:46.456Z</time>
      </trkpt>
      <trkpt lat="48.21941" lon="-3.16084">
        <ele>175.647552</ele>
        <time>2023-05-03T11:31:49.454Z</time>
      </trkpt>
      <trkpt lat="48.21934" lon="-3.16075">
        <ele>175.856371</ele>
        <time>2023-05-03T11:31:52.451Z</time>
      </trkpt>
      <trkpt lat="48.21926" lon="-3.16067">
        <ele>176.060495</ele>
        <time>2023-05-03T11:32:02.450Z</time>
      </trkpt>
      <trkpt lat="48.21915" lon="-3.16053">
        <ele>176.393633</ele>
        <time>2023-05-03T11:34:45.447Z</time>
      </trkpt>
      <trkpt lat="48.21905" lon="-3.16043">
        <ele>176.653723</ele>
        <time>2023-05-03T11:34:50.451Z</time>
      </trkpt>
      <trkpt lat="48.21897" lon="-3.16034">
        <ele>176.725479</ele>
        <time>2023-05-03T11:34:53.452Z</time>
      </trkpt>
      <trkpt lat="48.21888" lon="-3.16025">
        <ele>176.757766</ele>
        <time>2023-05-03T11:34:56.451Z</time>
      </trkpt>
      <trkpt lat="48.21878" lon="-3.16021">
        <ele>176.786762</ele>
        <time>2023-05-03T11:34:59.442Z</time>
      </trkpt>
      <trkpt lat="48.21869" lon="-3.16019">
        <ele>176.81516</ele>
        <time>2023-05-03T11:35:02.445Z</time>
      </trkpt>
      <trkpt lat="48.21856" lon="-3.16018">
        <ele>176.85159</ele>
        <time>2023-05-03T11:35:06.463Z</time>
      </trkpt>
      <trkpt lat="48.21846" lon="-3.1602">
        <ele>176.88219</ele>
        <time>2023-05-03T11:35:09.452Z</time>
      </trkpt>
      <trkpt lat="48.21834" lon="-3.16022">
        <ele>176.91608</ele>
        <time>2023-05-03T11:35:12.447Z</time>
      </trkpt>
      <trkpt lat="48.21822" lon="-3.16023">
        <ele>176.952479</ele>
        <time>2023-05-03T11:35:15.451Z</time>
      </trkpt>
      <trkpt lat="48.2181" lon="-3.16025">
        <ele>176.986848</ele>
        <time>2023-05-03T11:35:18.455Z</time>
      </trkpt>
      <trkpt lat="48.218" lon="-3.1603">
        <ele>177.019491</ele>
        <time>2023-05-03T11:35:21.448Z</time>
      </trkpt>
      <trkpt lat="48.2179" lon="-3.16036">
        <ele>177.05142</ele>
        <time>2023-05-03T11:35:24.438Z</time>
      </trkpt>
      <trkpt lat="48.21779" lon="-3.16042">
        <ele>177.085263</ele>
        <time>2023-05-03T11:35:27.452Z</time>
      </trkpt>
      <trkpt lat="48.21767" lon="-3.16047">
        <ele>177.121839</ele>
        <time>2023-05-03T11:35:30.457Z</time>
      </trkpt>
      <trkpt lat="48.21754" lon="-3.16053">
        <ele>177.160551</ele>
        <time>2023-05-03T11:35:33.448Z</time>
      </trkpt>
      <trkpt lat="48.21741" lon="-3.16058">
        <ele>177.198981</ele>
        <time>2023-05-03T11:35:36.448Z</time>
      </trkpt>
      <trkpt lat="48.2173" lon="-3.16063">
        <ele>177.246097</ele>
        <time>2023-05-03T11:35:39.449Z</time>
      </trkpt>
      <trkpt lat="48.21718" lon="-3.16067">
        <ele>177.33554</ele>
        <time>2023-05-03T11:35:42.456Z</time>
      </trkpt>
      <trkpt lat="48.21707" lon="-3.16071">
        <ele>177.41949</ele>
        <time>2023-05-03T11:35:45.452Z</time>
      </trkpt>
      <trkpt lat="48.21697" lon="-3.16073">
        <ele>177.495818</ele>
        <time>2023-05-03T11:35:48.448Z</time>
      </trkpt>
      <trkpt lat="48.21688" lon="-3.16076">
        <ele>177.56824</ele>
        <time>2023-05-03T11:35:51.450Z</time>
      </trkpt>
      <trkpt lat="48.21678" lon="-3.16081">
        <ele>177.648161</ele>
        <time>2023-05-03T11:35:54.458Z</time>
      </trkpt>
      <trkpt lat="48.21668" lon="-3.16085">
        <ele>177.722687</ele>
        <time>2023-05-03T11:35:57.458Z</time>
      </trkpt>
      <trkpt lat="48.21658" lon="-3.16087">
        <ele>177.801988</ele>
        <time>2023-05-03T11:36:00.444Z</time>
      </trkpt>
      <trkpt lat="48.21647" lon="-3.16089">
        <ele>177.884272</ele>
        <time>2023-05-03T11:36:03.451Z</time>
      </trkpt>
      <trkpt lat="48.21638" lon="-3.16091">
        <ele>177.955295</ele>
        <time>2023-05-03T11:36:06.448Z</time>
      </trkpt>
      <trkpt lat="48.21627" lon="-3.16095">
        <ele>178.036686</ele>
        <time>2023-05-03T11:36:09.444Z</time>
      </trkpt>
      <trkpt lat="48.21617" lon="-3.16097">
        <ele>178.117057</ele>
        <time>2023-05-03T11:36:12.454Z</time>
      </trkpt>
      <trkpt lat="48.21605" lon="-3.161">
        <ele>178.207235</ele>
        <time>2023-05-03T11:36:16.448Z</time>
      </trkpt>
      <trkpt lat="48.21594" lon="-3.16099">
        <ele>178.288966</ele>
        <time>2023-05-03T11:36:19.454Z</time>
      </trkpt>
      <trkpt lat="48.21583" lon="-3.16097">
        <ele>178.372062</ele>
        <time>2023-05-03T11:36:22.453Z</time>
      </trkpt>
      <trkpt lat="48.21573" lon="-3.16093">
        <ele>178.457094</ele>
        <time>2023-05-03T11:36:25.449Z</time>
      </trkpt>
      <trkpt lat="48.21563" lon="-3.16087">
        <ele>178.534019</ele>
        <time>2023-05-03T11:36:28.457Z</time>
      </trkpt>
      <trkpt lat="48.21553" lon="-3.1608">
        <ele>178.507605</ele>
        <time>2023-05-03T11:36:32.456Z</time>
      </trkpt>
      <trkpt lat="48.21543" lon="-3.16073">
        <ele>178.296626</ele>
        <time>2023-05-03T11:36:36.450Z</time>
      </trkpt>
      <trkpt lat="48.21533" lon="-3.16069">
        <ele>178.120593</ele>
        <time>2023-05-03T11:36:39.455Z</time>
      </trkpt>
      <trkpt lat="48.21524" lon="-3.16066">
        <ele>177.929081</ele>
        <time>2023-05-03T11:36:42.449Z</time>
      </trkpt>
      <trkpt lat="48.21514" lon="-3.1606">
        <ele>177.735731</ele>
        <time>2023-05-03T11:36:45.449Z</time>
      </trkpt>
      <trkpt lat="48.21504" lon="-3.16054">
        <ele>177.541001</ele>
        <time>2023-05-03T11:36:48.452Z</time>
      </trkpt>
      <trkpt lat="48.21495" lon="-3.16047">
        <ele>177.350719</ele>
        <time>2023-05-03T11:36:51.453Z</time>
      </trkpt>
      <trkpt lat="48.21486" lon="-3.16038">
        <ele>177.134864</ele>
        <time>2023-05-03T11:36:54.450Z</time>
      </trkpt>
      <trkpt lat="48.21477" lon="-3.16029">
        <ele>176.937054</ele>
        <time>2023-05-03T11:36:57.456Z</time>
      </trkpt>
      <trkpt lat="48.21469" lon="-3.1602">
        <ele>176.745615</ele>
        <time>2023-05-03T11:37:00.455Z</time>
      </trkpt>
      <trkpt lat="48.21458" lon="-3.16011">
        <ele>176.521254</ele>
        <time>2023-05-03T11:37:04.449Z</time>
      </trkpt>
      <trkpt lat="48.21449" lon="-3.15999">
        <ele>176.29713</ele>
        <time>2023-05-03T11:37:07.450Z</time>
      </trkpt>
      <trkpt lat="48.21441" lon="-3.15991">
        <ele>176.106772</ele>
        <time>2023-05-03T11:37:10.450Z</time>
      </trkpt>
      <trkpt lat="48.21432" lon="-3.15981">
        <ele>175.902551</ele>
        <time>2023-05-03T11:37:13.450Z</time>
      </trkpt>
      <trkpt lat="48.21424" lon="-3.15974">
        <ele>175.726467</ele>
        <time>2023-05-03T11:37:16.452Z</time>
      </trkpt>
      <trkpt lat="48.21415" lon="-3.15965">
        <ele>175.523454</ele>
        <time>2023-05-03T11:37:19.456Z</time>
      </trkpt>
      <trkpt lat="48.21406" lon="-3.15955">
        <ele>175.313931</ele>
        <time>2023-05-03T11:37:22.446Z</time>
      </trkpt>
      <trkpt lat="48.21398" lon="-3.15946">
        <ele>175.329426</ele>
        <time>2023-05-03T11:37:25.449Z</time>
      </trkpt>
      <trkpt lat="48.2139" lon="-3.15936">
        <ele>175.57874</ele>
        <time>2023-05-03T11:37:28.452Z</time>
      </trkpt>
      <trkpt lat="48.2138" lon="-3.15926">
        <ele>175.839821</ele>
        <time>2023-05-03T11:37:31.448Z</time>
      </trkpt>
      <trkpt lat="48.21371" lon="-3.15916">
        <ele>176.108923</ele>
        <time>2023-05-03T11:37:34.448Z</time>
      </trkpt>
      <trkpt lat="48.21362" lon="-3.15908">
        <ele>176.350096</ele>
        <time>2023-05-03T11:37:37.448Z</time>
      </trkpt>
      <trkpt lat="48.21353" lon="-3.15895">
        <ele>176.635934</ele>
        <time>2023-05-03T11:37:40.447Z</time>
      </trkpt>
      <trkpt lat="48.21344" lon="-3.15885">
        <ele>176.91156</ele>
        <time>2023-05-03T11:37:44.449Z</time>
      </trkpt>
      <trkpt lat="48.21335" lon="-3.15876">
        <ele>177.164467</ele>
        <time>2023-05-03T11:37:47.448Z</time>
      </trkpt>
      <trkpt lat="48.21325" lon="-3.15867">
        <ele>177.428083</ele>
        <time>2023-05-03T11:37:50.450Z</time>
      </trkpt>
      <trkpt lat="48.21314" lon="-3.15859">
        <ele>177.710191</ele>
        <time>2023-05-03T11:37:53.448Z</time>
      </trkpt>
      <trkpt lat="48.21304" lon="-3.15849">
        <ele>177.990213</ele>
        <time>2023-05-03T11:37:56.446Z</time>
      </trkpt>
      <trkpt lat="48.21294" lon="-3.15841">
        <ele>178.258701</ele>
        <time>2023-05-03T11:37:59.450Z</time>
      </trkpt>
      <trkpt lat="48.21284" lon="-3.15832">
        <ele>178.538724</ele>
        <time>2023-05-03T11:38:02.448Z</time>
      </trkpt>
      <trkpt lat="48.21275" lon="-3.15821">
        <ele>178.805005</ele>
        <time>2023-05-03T11:38:05.448Z</time>
      </trkpt>
      <trkpt lat="48.21265" lon="-3.15812">
        <ele>179.070633</ele>
        <time>2023-05-03T11:38:08.454Z</time>
      </trkpt>
      <trkpt lat="48.21257" lon="-3.15801">
        <ele>179.330061</ele>
        <time>2023-05-03T11:38:11.455Z</time>
      </trkpt>
      <trkpt lat="48.2125" lon="-3.15791">
        <ele>179.47293</ele>
        <time>2023-05-03T11:38:14.448Z</time>
      </trkpt>
      <trkpt lat="48.21243" lon="-3.15779">
        <ele>179.581753</ele>
        <time>2023-05-03T11:38:17.448Z</time>
      </trkpt>
      <trkpt lat="48.21236" lon="-3.15768">
        <ele>179.680931</ele>
        <time>2023-05-03T11:38:20.449Z</time>
      </trkpt>
      <trkpt lat="48.21231" lon="-3.15755">
        <ele>179.785435</ele>
        <time>2023-05-03T11:38:23.450Z</time>
      </trkpt>
      <trkpt lat="48.21226" lon="-3.15742">
        <ele>179.880991</ele>
        <time>2023-05-03T11:38:26.456Z</time>
      </trkpt>
      <trkpt lat="48.21224" lon="-3.15725">
        <ele>179.99471</ele>
        <time>2023-05-03T11:38:30.450Z</time>
      </trkpt>
      <trkpt lat="48.2122" lon="-3.1571">
        <ele>180.104421</ele>
        <time>2023-05-03T11:38:33.448Z</time>
      </trkpt>
      <trkpt lat="48.21216" lon="-3.15696">
        <ele>180.203084</ele>
        <time>2023-05-03T11:38:37.450Z</time>
      </trkpt>
      <trkpt lat="48.21215" lon="-3.15678">
        <ele>180.322044</ele>
        <time>2023-05-03T11:38:41.450Z</time>
      </trkpt>
      <trkpt lat="48.21212" lon="-3.15663">
        <ele>180.423352</ele>
        <time>2023-05-03T11:38:44.448Z</time>
      </trkpt>
      <trkpt lat="48.2121" lon="-3.1565">
        <ele>180.515456</ele>
        <time>2023-05-03T11:38:47.449Z</time>
      </trkpt>
      <trkpt lat="48.21209" lon="-3.15636">
        <ele>180.609475</ele>
        <time>2023-05-03T11:38:50.448Z</time>
      </trkpt>
      <trkpt lat="48.21207" lon="-3.15621">
        <ele>180.706983</ele>
        <time>2023-05-03T11:38:53.448Z</time>
      </trkpt>
      <trkpt lat="48.21205" lon="-3.15606">
        <ele>180.810573</ele>
        <time>2023-05-03T11:38:56.448Z</time>
      </trkpt>
      <trkpt lat="48.21204" lon="-3.15592">
        <ele>180.904591</ele>
        <time>2023-05-03T11:38:59.449Z</time>
      </trkpt>
      <trkpt lat="48.21203" lon="-3.15577">
        <ele>181.001721</ele>
        <time>2023-05-03T11:39:02.450Z</time>
      </trkpt>
      <trkpt lat="48.21202" lon="-3.15561">
        <ele>181.113816</ele>
        <time>2023-05-03T11:39:05.453Z</time>
      </trkpt>
      <trkpt lat="48.212" lon="-3.15542">
        <ele>181.231192</ele>
        <time>2023-05-03T11:39:08.450Z</time>
      </trkpt>
      <trkpt lat="48.21199" lon="-3.15526">
        <ele>181.313558</ele>
        <time>2023-05-03T11:39:11.446Z</time>
      </trkpt>
      <trkpt lat="48.21198" lon="-3.1551">
        <ele>181.389912</ele>
        <time>2023-05-03T11:39:14.453Z</time>
      </trkpt>
      <trkpt lat="48.21197" lon="-3.15495">
        <ele>181.469222</ele>
        <time>2023-05-03T11:39:17.446Z</time>
      </trkpt>
      <trkpt lat="48.21197" lon="-3.15478">
        <ele>181.551951</ele>
        <time>2023-05-03T11:39:20.456Z</time>
      </trkpt>
      <trkpt lat="48.21198" lon="-3.15461">
        <ele>181.63676</ele>
        <time>2023-05-03T11:39:23.455Z</time>
      </trkpt>
      <trkpt lat="48.21198" lon="-3.15444">
        <ele>181.721481</ele>
        <time>2023-05-03T11:39:26.451Z</time>
      </trkpt>
      <trkpt lat="48.21197" lon="-3.15428">
        <ele>181.800865</ele>
        <time>2023-05-03T11:39:29.450Z</time>
      </trkpt>
      <trkpt lat="48.21196" lon="-3.15412">
        <ele>181.879368</ele>
        <time>2023-05-03T11:39:32.456Z</time>
      </trkpt>
      <trkpt lat="48.21196" lon="-3.15396">
        <ele>181.963076</ele>
        <time>2023-05-03T11:39:35.452Z</time>
      </trkpt>
      <trkpt lat="48.21196" lon="-3.15378">
        <ele>182.052761</ele>
        <time>2023-05-03T11:39:38.451Z</time>
      </trkpt>
      <trkpt lat="48.21198" lon="-3.15361">
        <ele>182.134461</ele>
        <time>2023-05-03T11:39:41.450Z</time>
      </trkpt>
      <trkpt lat="48.212" lon="-3.15348">
        <ele>182.203879</ele>
        <time>2023-05-03T11:39:44.454Z</time>
      </trkpt>
      <trkpt lat="48.21203" lon="-3.15335">
        <ele>182.272647</ele>
        <time>2023-05-03T11:39:47.447Z</time>
      </trkpt>
      <trkpt lat="48.21207" lon="-3.1532">
        <ele>182.352673</ele>
        <time>2023-05-03T11:39:50.449Z</time>
      </trkpt>
      <trkpt lat="48.21211" lon="-3.15306">
        <ele>182.430526</ele>
        <time>2023-05-03T11:39:53.450Z</time>
      </trkpt>
      <trkpt lat="48.21216" lon="-3.15294">
        <ele>182.499869</ele>
        <time>2023-05-03T11:39:56.451Z</time>
      </trkpt>
      <trkpt lat="48.21221" lon="-3.1528">
        <ele>182.485303</ele>
        <time>2023-05-03T11:40:00.455Z</time>
      </trkpt>
      <trkpt lat="48.21228" lon="-3.15266">
        <ele>182.252847</ele>
        <time>2023-05-03T11:40:04.449Z</time>
      </trkpt>
      <trkpt lat="48.21234" lon="-3.15252">
        <ele>182.013548</ele>
        <time>2023-05-03T11:40:08.457Z</time>
      </trkpt>
      <trkpt lat="48.21241" lon="-3.15238">
        <ele>181.782023</ele>
        <time>2023-05-03T11:40:12.453Z</time>
      </trkpt>
      <trkpt lat="48.21248" lon="-3.15224">
        <ele>181.537906</ele>
        <time>2023-05-03T11:40:16.451Z</time>
      </trkpt>
      <trkpt lat="48.21254" lon="-3.15212">
        <ele>181.331691</ele>
        <time>2023-05-03T11:40:19.450Z</time>
      </trkpt>
      <trkpt lat="48.21261" lon="-3.15199">
        <ele>181.097924</ele>
        <time>2023-05-03T11:40:22.457Z</time>
      </trkpt>
      <trkpt lat="48.21268" lon="-3.15184">
        <ele>180.842441</ele>
        <time>2023-05-03T11:40:25.449Z</time>
      </trkpt>
      <trkpt lat="48.21274" lon="-3.15173">
        <ele>180.658536</ele>
        <time>2023-05-03T11:40:27.453Z</time>
      </trkpt>
      <trkpt lat="48.21282" lon="-3.15157">
        <ele>180.381415</ele>
        <time>2023-05-03T11:40:30.450Z</time>
      </trkpt>
      <trkpt lat="48.21288" lon="-3.1514">
        <ele>180.121251</ele>
        <time>2023-05-03T11:40:33.448Z</time>
      </trkpt>
      <trkpt lat="48.21295" lon="-3.15126">
        <ele>179.889998</ele>
        <time>2023-05-03T11:40:36.448Z</time>
      </trkpt>
      <trkpt lat="48.213" lon="-3.15114">
        <ele>179.681533</ele>
        <time>2023-05-03T11:40:39.448Z</time>
      </trkpt>
      <trkpt lat="48.21305" lon="-3.15102">
        <ele>179.494616</ele>
        <time>2023-05-03T11:40:42.450Z</time>
      </trkpt>
      <trkpt lat="48.2131" lon="-3.15088">
        <ele>179.27318</ele>
        <time>2023-05-03T11:40:45.453Z</time>
      </trkpt>
      <trkpt lat="48.21314" lon="-3.15072">
        <ele>179.040662</ele>
        <time>2023-05-03T11:40:48.448Z</time>
      </trkpt>
      <trkpt lat="48.21318" lon="-3.15056">
        <ele>178.820354</ele>
        <time>2023-05-03T11:40:51.446Z</time>
      </trkpt>
      <trkpt lat="48.21321" lon="-3.15039">
        <ele>178.639271</ele>
        <time>2023-05-03T11:40:54.448Z</time>
      </trkpt>
      <trkpt lat="48.21322" lon="-3.15022">
        <ele>178.466798</ele>
        <time>2023-05-03T11:40:57.448Z</time>
      </trkpt>
      <trkpt lat="48.21323" lon="-3.15006">
        <ele>178.299757</ele>
        <time>2023-05-03T11:41:00.450Z</time>
      </trkpt>
      <trkpt lat="48.21323" lon="-3.14991">
        <ele>178.137369</ele>
        <time>2023-05-03T11:41:03.455Z</time>
      </trkpt>
      <trkpt lat="48.21324" lon="-3.14976">
        <ele>177.985912</ele>
        <time>2023-05-03T11:41:06.454Z</time>
      </trkpt>
      <trkpt lat="48.21326" lon="-3.14962">
        <ele>177.8398</ele>
        <time>2023-05-03T11:41:09.445Z</time>
      </trkpt>
      <trkpt lat="48.21329" lon="-3.14949">
        <ele>177.692521</ele>
        <time>2023-05-03T11:41:12.448Z</time>
      </trkpt>
      <trkpt lat="48.21332" lon="-3.14935">
        <ele>177.541931</ele>
        <time>2023-05-03T11:41:15.449Z</time>
      </trkpt>
      <trkpt lat="48.21336" lon="-3.1492">
        <ele>177.373931</ele>
        <time>2023-05-03T11:41:18.449Z</time>
      </trkpt>
      <trkpt lat="48.2134" lon="-3.14904">
        <ele>177.201234</ele>
        <time>2023-05-03T11:41:21.449Z</time>
      </trkpt>
      <trkpt lat="48.21344" lon="-3.14888">
        <ele>177.025362</ele>
        <time>2023-05-03T11:41:24.449Z</time>
      </trkpt>
      <trkpt lat="48.21348" lon="-3.14873">
        <ele>176.857928</ele>
        <time>2023-05-03T11:41:27.456Z</time>
      </trkpt>
      <trkpt lat="48.21352" lon="-3.14858">
        <ele>176.688757</ele>
        <time>2023-05-03T11:41:30.449Z</time>
      </trkpt>
      <trkpt lat="48.21357" lon="-3.14843">
        <ele>176.513025</ele>
        <time>2023-05-03T11:41:33.450Z</time>
      </trkpt>
      <trkpt lat="48.21362" lon="-3.14828">
        <ele>176.336842</ele>
        <time>2023-05-03T11:41:36.458Z</time>
      </trkpt>
      <trkpt lat="48.21367" lon="-3.14813">
        <ele>176.165981</ele>
        <time>2023-05-03T11:41:39.448Z</time>
      </trkpt>
      <trkpt lat="48.21372" lon="-3.14798">
        <ele>176.1128</ele>
        <time>2023-05-03T11:41:42.448Z</time>
      </trkpt>
      <trkpt lat="48.21377" lon="-3.14784">
        <ele>176.225117</ele>
        <time>2023-05-03T11:41:45.457Z</time>
      </trkpt>
      <trkpt lat="48.21381" lon="-3.14768">
        <ele>176.339428</ele>
        <time>2023-05-03T11:41:48.455Z</time>
      </trkpt>
      <trkpt lat="48.21384" lon="-3.14753">
        <ele>176.451628</ele>
        <time>2023-05-03T11:41:51.449Z</time>
      </trkpt>
      <trkpt lat="48.21387" lon="-3.14738">
        <ele>176.561213</ele>
        <time>2023-05-03T11:41:54.448Z</time>
      </trkpt>
      <trkpt lat="48.2139" lon="-3.14722">
        <ele>176.673134</ele>
        <time>2023-05-03T11:41:57.459Z</time>
      </trkpt>
      <trkpt lat="48.21394" lon="-3.14707">
        <ele>176.784491</ele>
        <time>2023-05-03T11:42:00.456Z</time>
      </trkpt>
      <trkpt lat="48.21396" lon="-3.14692">
        <ele>176.890287</ele>
        <time>2023-05-03T11:42:03.460Z</time>
      </trkpt>
      <trkpt lat="48.21397" lon="-3.14677">
        <ele>176.993856</ele>
        <time>2023-05-03T11:42:06.458Z</time>
      </trkpt>
      <trkpt lat="48.21399" lon="-3.14662">
        <ele>177.09986</ele>
        <time>2023-05-03T11:42:09.448Z</time>
      </trkpt>
      <trkpt lat="48.21401" lon="-3.14648">
        <ele>177.202709</ele>
        <time>2023-05-03T11:42:12.458Z</time>
      </trkpt>
      <trkpt lat="48.21402" lon="-3.14633">
        <ele>177.304356</ele>
        <time>2023-05-03T11:42:15.452Z</time>
      </trkpt>
      <trkpt lat="48.21404" lon="-3.14618">
        <ele>177.410267</ele>
        <time>2023-05-03T11:42:18.451Z</time>
      </trkpt>
      <trkpt lat="48.21406" lon="-3.14603">
        <ele>177.515851</ele>
        <time>2023-05-03T11:42:21.450Z</time>
      </trkpt>
      <trkpt lat="48.21408" lon="-3.14588">
        <ele>177.625722</ele>
        <time>2023-05-03T11:42:24.457Z</time>
      </trkpt>
      <trkpt lat="48.21412" lon="-3.14572">
        <ele>177.73629</ele>
        <time>2023-05-03T11:42:27.451Z</time>
      </trkpt>
      <trkpt lat="48.21415" lon="-3.14558">
        <ele>177.845553</ele>
        <time>2023-05-03T11:42:30.453Z</time>
      </trkpt>
      <trkpt lat="48.21419" lon="-3.14543">
        <ele>177.941997</ele>
        <time>2023-05-03T11:42:33.456Z</time>
      </trkpt>
      <trkpt lat="48.21423" lon="-3.14528">
        <ele>177.979184</ele>
        <time>2023-05-03T11:42:36.444Z</time>
      </trkpt>
      <trkpt lat="48.21426" lon="-3.14513">
        <ele>178.0154</ele>
        <time>2023-05-03T11:42:39.455Z</time>
      </trkpt>
      <trkpt lat="48.21429" lon="-3.14497">
        <ele>178.05374</ele>
        <time>2023-05-03T11:42:42.457Z</time>
      </trkpt>
      <trkpt lat="48.21432" lon="-3.14482">
        <ele>178.090869</ele>
        <time>2023-05-03T11:42:45.458Z</time>
      </trkpt>
      <trkpt lat="48.21435" lon="-3.14467">
        <ele>178.127307</ele>
        <time>2023-05-03T11:42:48.456Z</time>
      </trkpt>
      <trkpt lat="48.21437" lon="-3.14452">
        <ele>178.161755</ele>
        <time>2023-05-03T11:42:51.449Z</time>
      </trkpt>
      <trkpt lat="48.2144" lon="-3.14437">
        <ele>178.196644</ele>
        <time>2023-05-03T11:42:54.458Z</time>
      </trkpt>
      <trkpt lat="48.21442" lon="-3.14422">
        <ele>178.232279</ele>
        <time>2023-05-03T11:42:57.457Z</time>
      </trkpt>
      <trkpt lat="48.21444" lon="-3.14407">
        <ele>178.268153</ele>
        <time>2023-05-03T11:43:00.457Z</time>
      </trkpt>
      <trkpt lat="48.21448" lon="-3.14392">
        <ele>178.306234</ele>
        <time>2023-05-03T11:43:03.454Z</time>
      </trkpt>
      <trkpt lat="48.21451" lon="-3.14376">
        <ele>178.34448</ele>
        <time>2023-05-03T11:43:06.448Z</time>
      </trkpt>
      <trkpt lat="48.21453" lon="-3.1436">
        <ele>178.383535</ele>
        <time>2023-05-03T11:43:09.449Z</time>
      </trkpt>
      <trkpt lat="48.21456" lon="-3.14343">
        <ele>178.422491</ele>
        <time>2023-05-03T11:43:12.458Z</time>
      </trkpt>
      <trkpt lat="48.21458" lon="-3.14328">
        <ele>178.458708</ele>
        <time>2023-05-03T11:43:15.455Z</time>
      </trkpt>
      <trkpt lat="48.21458" lon="-3.14311">
        <ele>178.497742</ele>
        <time>2023-05-03T11:43:18.452Z</time>
      </trkpt>
      <trkpt lat="48.21457" lon="-3.14295">
        <ele>178.53592</ele>
        <time>2023-05-03T11:43:21.446Z</time>
      </trkpt>
      <trkpt lat="48.21455" lon="-3.14279">
        <ele>178.556649</ele>
        <time>2023-05-03T11:43:24.451Z</time>
      </trkpt>
      <trkpt lat="48.21452" lon="-3.14265">
        <ele>178.545624</ele>
        <time>2023-05-03T11:43:27.457Z</time>
      </trkpt>
      <trkpt lat="48.21448" lon="-3.1425">
        <ele>178.534534</ele>
        <time>2023-05-03T11:43:30.447Z</time>
      </trkpt>
      <trkpt lat="48.21445" lon="-3.14235">
        <ele>178.523195</ele>
        <time>2023-05-03T11:43:33.457Z</time>
      </trkpt>
      <trkpt lat="48.21442" lon="-3.14219">
        <ele>178.511351</ele>
        <time>2023-05-03T11:43:36.449Z</time>
      </trkpt>
      <trkpt lat="48.2144" lon="-3.14203">
        <ele>178.49936</ele>
        <time>2023-05-03T11:43:39.455Z</time>
      </trkpt>
      <trkpt lat="48.2144" lon="-3.14186">
        <ele>178.487134</ele>
        <time>2023-05-03T11:43:42.453Z</time>
      </trkpt>
      <trkpt lat="48.21441" lon="-3.14169">
        <ele>178.475184</ele>
        <time>2023-05-03T11:43:45.451Z</time>
      </trkpt>
      <trkpt lat="48.21444" lon="-3.14153">
        <ele>178.46348</ele>
        <time>2023-05-03T11:43:48.451Z</time>
      </trkpt>
      <trkpt lat="48.21447" lon="-3.14138">
        <ele>178.452557</ele>
        <time>2023-05-03T11:43:51.446Z</time>
      </trkpt>
      <trkpt lat="48.2145" lon="-3.14123">
        <ele>178.440744</ele>
        <time>2023-05-03T11:43:55.454Z</time>
      </trkpt>
      <trkpt lat="48.2145" lon="-3.14108">
        <ele>178.430643</ele>
        <time>2023-05-03T11:43:59.455Z</time>
      </trkpt>
      <trkpt lat="48.2145" lon="-3.14094">
        <ele>178.420417</ele>
        <time>2023-05-03T11:44:03.450Z</time>
      </trkpt>
      <trkpt lat="48.21449" lon="-3.14081">
        <ele>178.410703</ele>
        <time>2023-05-03T11:44:18.460Z</time>
      </trkpt>
      <trkpt lat="48.21448" lon="-3.14067">
        <ele>178.401023</ele>
        <time>2023-05-03T11:44:54.454Z</time>
      </trkpt>
      <trkpt lat="48.21448" lon="-3.14052">
        <ele>178.390297</ele>
        <time>2023-05-03T11:44:59.458Z</time>
      </trkpt>
      <trkpt lat="48.21446" lon="-3.14038">
        <ele>178.380206</ele>
        <time>2023-05-03T11:45:03.460Z</time>
      </trkpt>
      <trkpt lat="48.21446" lon="-3.14024">
        <ele>178.370018</ele>
        <time>2023-05-03T11:45:08.454Z</time>
      </trkpt>
      <trkpt lat="48.21444" lon="-3.14009">
        <ele>178.306278</ele>
        <time>2023-05-03T11:45:14.457Z</time>
      </trkpt>
      <trkpt lat="48.21443" lon="-3.13992">
        <ele>178.222703</ele>
        <time>2023-05-03T11:45:20.455Z</time>
      </trkpt>
      <trkpt lat="48.21443" lon="-3.13976">
        <ele>178.139357</ele>
        <time>2023-05-03T11:45:25.454Z</time>
      </trkpt>
      <trkpt lat="48.21441" lon="-3.1396">
        <ele>178.058585</ele>
        <time>2023-05-03T11:45:30.453Z</time>
      </trkpt>
      <trkpt lat="48.21203" lon="-3.13007">
        <ele>176.224773</ele>
        <time>2023-05-03T11:49:53.451Z</time>
      </trkpt>
      <trkpt lat="48.21216" lon="-3.12991">
        <ele>176.238332</ele>
        <time>2023-05-03T11:51:27.446Z</time>
      </trkpt>
      <trkpt lat="48.21223" lon="-3.12979">
        <ele>176.243227</ele>
        <time>2023-05-03T11:51:31.451Z</time>
      </trkpt>
      <trkpt lat="48.21231" lon="-3.12966">
        <ele>176.248658</ele>
        <time>2023-05-03T11:51:35.451Z</time>
      </trkpt>
      <trkpt lat="48.21238" lon="-3.12953">
        <ele>176.253969</ele>
        <time>2023-05-03T11:51:39.453Z</time>
      </trkpt>
      <trkpt lat="48.21245" lon="-3.12942">
        <ele>176.258653</ele>
        <time>2023-05-03T11:51:43.452Z</time>
      </trkpt>
      <trkpt lat="48.21253" lon="-3.12929">
        <ele>176.263974</ele>
        <time>2023-05-03T11:51:47.445Z</time>
      </trkpt>
      <trkpt lat="48.21259" lon="-3.12917">
        <ele>176.268801</ele>
        <time>2023-05-03T11:51:51.446Z</time>
      </trkpt>
      <trkpt lat="48.21264" lon="-3.12906">
        <ele>176.273112</ele>
        <time>2023-05-03T11:51:55.450Z</time>
      </trkpt>
      <trkpt lat="48.21275" lon="-3.12887">
        <ele>176.280858</ele>
        <time>2023-05-03T11:53:22.446Z</time>
      </trkpt>
      <trkpt lat="48.21282" lon="-3.12875">
        <ele>176.28569</ele>
        <time>2023-05-03T11:53:27.443Z</time>
      </trkpt>
      <trkpt lat="48.21291" lon="-3.12866">
        <ele>176.290553</ele>
        <time>2023-05-03T11:53:32.444Z</time>
      </trkpt>
      <trkpt lat="48.21297" lon="-3.12855">
        <ele>176.295063</ele>
        <time>2023-05-03T11:53:37.447Z</time>
      </trkpt>
      <trkpt lat="48.21305" lon="-3.12845">
        <ele>176.299899</ele>
        <time>2023-05-03T11:53:43.447Z</time>
      </trkpt>
      <trkpt lat="48.21313" lon="-3.12834">
        <ele>176.304708</ele>
        <time>2023-05-03T11:53:48.442Z</time>
      </trkpt>
      <trkpt lat="48.21321" lon="-3.12825">
        <ele>176.309307</ele>
        <time>2023-05-03T11:53:52.443Z</time>
      </trkpt>
      <trkpt lat="48.21328" lon="-3.12818">
        <ele>176.313559</ele>
        <time>2023-05-03T11:53:57.438Z</time>
      </trkpt>
      <trkpt lat="48.21337" lon="-3.12811">
        <ele>176.436285</ele>
        <time>2023-05-03T11:54:03.454Z</time>
      </trkpt>
      <trkpt lat="48.21346" lon="-3.128">
        <ele>176.600626</ele>
        <time>2023-05-03T11:54:08.442Z</time>
      </trkpt>
      <trkpt lat="48.21353" lon="-3.12791">
        <ele>176.748373</ele>
        <time>2023-05-03T11:54:12.444Z</time>
      </trkpt>
      <trkpt lat="48.2136" lon="-3.12782">
        <ele>176.893751</ele>
        <time>2023-05-03T11:54:16.449Z</time>
      </trkpt>
      <trkpt lat="48.21368" lon="-3.12773">
        <ele>177.044527</ele>
        <time>2023-05-03T11:54:20.447Z</time>
      </trkpt>
      <trkpt lat="48.21376" lon="-3.12763">
        <ele>177.203016</ele>
        <time>2023-05-03T11:54:24.445Z</time>
      </trkpt>
      <trkpt lat="48.21384" lon="-3.12753">
        <ele>177.359296</ele>
        <time>2023-05-03T11:54:28.443Z</time>
      </trkpt>
      <trkpt lat="48.21392" lon="-3.12744">
        <ele>177.511237</ele>
        <time>2023-05-03T11:54:32.445Z</time>
      </trkpt>
      <trkpt lat="48.21399" lon="-3.12735">
        <ele>177.662651</ele>
        <time>2023-05-03T11:54:36.448Z</time>
      </trkpt>
      <trkpt lat="48.21408" lon="-3.12726">
        <ele>177.815903</ele>
        <time>2023-05-03T11:54:40.448Z</time>
      </trkpt>
      <trkpt lat="48.21415" lon="-3.12717">
        <ele>177.964808</ele>
        <time>2023-05-03T11:54:44.448Z</time>
      </trkpt>
      <trkpt lat="48.21423" lon="-3.12708">
        <ele>178.114967</ele>
        <time>2023-05-03T11:54:48.444Z</time>
      </trkpt>
      <trkpt lat="48.2143" lon="-3.12699">
        <ele>178.261366</ele>
        <time>2023-05-03T11:54:52.443Z</time>
      </trkpt>
      <trkpt lat="48.21439" lon="-3.1269">
        <ele>178.42776</ele>
        <time>2023-05-03T11:54:57.441Z</time>
      </trkpt>
      <trkpt lat="48.21448" lon="-3.12679">
        <ele>178.595764</ele>
        <time>2023-05-03T11:55:02.438Z</time>
      </trkpt>
      <trkpt lat="48.21456" lon="-3.12669">
        <ele>178.756574</ele>
        <time>2023-05-03T11:55:07.443Z</time>
      </trkpt>
      <trkpt lat="48.21463" lon="-3.12661">
        <ele>178.899597</ele>
        <time>2023-05-03T11:55:12.443Z</time>
      </trkpt>
      <trkpt lat="48.2147" lon="-3.1265">
        <ele>179.050438</ele>
        <time>2023-05-03T11:55:18.449Z</time>
      </trkpt>
      <trkpt lat="48.21476" lon="-3.12638">
        <ele>179.268905</ele>
        <time>2023-05-03T11:55:25.448Z</time>
      </trkpt>
      <trkpt lat="48.21475" lon="-3.12623">
        <ele>179.509529</ele>
        <time>2023-05-03T11:55:32.434Z</time>
      </trkpt>
      <trkpt lat="48.21473" lon="-3.12608">
        <ele>179.746137</ele>
        <time>2023-05-03T11:55:38.453Z</time>
      </trkpt>
      <trkpt lat="48.21471" lon="-3.12592">
        <ele>179.989705</ele>
        <time>2023-05-03T11:55:44.447Z</time>
      </trkpt>
      <trkpt lat="48.21469" lon="-3.12579">
        <ele>180.199167</ele>
        <time>2023-05-03T11:55:49.446Z</time>
      </trkpt>
      <trkpt lat="48.21467" lon="-3.12565">
        <ele>180.427666</ele>
        <time>2023-05-03T11:55:54.451Z</time>
      </trkpt>
      <trkpt lat="48.21465" lon="-3.12551">
        <ele>180.643636</ele>
        <time>2023-05-03T11:56:00.448Z</time>
      </trkpt>
      <trkpt lat="48.21462" lon="-3.12536">
        <ele>180.885163</ele>
        <time>2023-05-03T11:56:06.444Z</time>
      </trkpt>
      <trkpt lat="48.21461" lon="-3.12522">
        <ele>181.097075</ele>
        <time>2023-05-03T11:56:11.446Z</time>
      </trkpt>
      <trkpt lat="48.21459" lon="-3.12507">
        <ele>181.331776</ele>
        <time>2023-05-03T11:56:17.445Z</time>
      </trkpt>
      <trkpt lat="48.21457" lon="-3.12492">
        <ele>181.571439</ele>
        <time>2023-05-03T11:56:23.450Z</time>
      </trkpt>
      <trkpt lat="48.21456" lon="-3.12478">
        <ele>181.783351</ele>
        <time>2023-05-03T11:56:28.438Z</time>
      </trkpt>
      <trkpt lat="48.21454" lon="-3.12464">
        <ele>182.004333</ele>
        <time>2023-05-03T11:56:34.450Z</time>
      </trkpt>
      <trkpt lat="48.21452" lon="-3.12448">
        <ele>182.248964</ele>
        <time>2023-05-03T11:56:40.445Z</time>
      </trkpt>
      <trkpt lat="48.2145" lon="-3.12433">
        <ele>182.482891</ele>
        <time>2023-05-03T11:56:46.442Z</time>
      </trkpt>
      <trkpt lat="48.21449" lon="-3.12418">
        <ele>182.72599</ele>
        <time>2023-05-03T11:56:52.445Z</time>
      </trkpt>
      <trkpt lat="48.21447" lon="-3.12402">
        <ele>182.969407</ele>
        <time>2023-05-03T11:56:58.449Z</time>
      </trkpt>
      <trkpt lat="48.21445" lon="-3.12386">
        <ele>183.214726</ele>
        <time>2023-05-03T11:57:04.448Z</time>
      </trkpt>
      <trkpt lat="48.21443" lon="-3.12371">
        <ele>183.557026</ele>
        <time>2023-05-03T11:57:10.438Z</time>
      </trkpt>
      <trkpt lat="48.21442" lon="-3.12357">
        <ele>183.89217</ele>
        <time>2023-05-03T11:57:16.450Z</time>
      </trkpt>
      <trkpt lat="48.2144" lon="-3.12342">
        <ele>184.23511</ele>
        <time>2023-05-03T11:57:22.447Z</time>
      </trkpt>
      <trkpt lat="48.21438" lon="-3.12328">
        <ele>184.542686</ele>
        <time>2023-05-03T11:57:27.445Z</time>
      </trkpt>
      <trkpt lat="48.21435" lon="-3.12314">
        <ele>184.879018</ele>
        <time>2023-05-03T11:57:33.442Z</time>
      </trkpt>
      <trkpt lat="48.21432" lon="-3.12301">
        <ele>185.186979</ele>
        <time>2023-05-03T11:57:58.444Z</time>
      </trkpt>
      <trkpt lat="48.21428" lon="-3.12288">
        <ele>185.522191</ele>
        <time>2023-05-03T11:58:04.448Z</time>
      </trkpt>
      <trkpt lat="48.21419" lon="-3.1228">
        <ele>185.868722</ele>
        <time>2023-05-03T11:58:09.443Z</time>
      </trkpt>
      <trkpt lat="48.21409" lon="-3.12282">
        <ele>186.201595</ele>
        <time>2023-05-03T11:58:15.446Z</time>
      </trkpt>
      <trkpt lat="48.21399" lon="-3.12277">
        <ele>186.557359</ele>
        <time>2023-05-03T11:58:21.448Z</time>
      </trkpt>
      <trkpt lat="48.21393" lon="-3.12266">
        <ele>186.871222</ele>
        <time>2023-05-03T11:58:26.444Z</time>
      </trkpt>
      <trkpt lat="48.21389" lon="-3.12254">
        <ele>187.187327</ele>
        <time>2023-05-03T11:58:39.447Z</time>
      </trkpt>
      <trkpt lat="48.21388" lon="-3.12257">
        <ele>187.261283</ele>
        <time>2023-05-03T11:59:04.198Z</time>
      </trkpt>
      <trkpt lat="48.21398" lon="-3.12264">
        <ele>187.620711</ele>
        <time>2023-05-03T12:58:30.440Z</time>
      </trkpt>
      <trkpt lat="48.21407" lon="-3.12273">
        <ele>187.980608</ele>
        <time>2023-05-03T12:58:35.435Z</time>
      </trkpt>
      <trkpt lat="48.21417" lon="-3.12275">
        <ele>188.335581</ele>
        <time>2023-05-03T12:58:41.443Z</time>
      </trkpt>
      <trkpt lat="48.21425" lon="-3.12268">
        <ele>188.651936</ele>
        <time>2023-05-03T12:58:46.439Z</time>
      </trkpt>
      <trkpt lat="48.21428" lon="-3.12254">
        <ele>188.991977</ele>
        <time>2023-05-03T12:58:52.437Z</time>
      </trkpt>
      <trkpt lat="48.21427" lon="-3.1224">
        <ele>189.301023</ele>
        <time>2023-05-03T12:58:57.445Z</time>
      </trkpt>
      <trkpt lat="48.21426" lon="-3.12225">
        <ele>189.695682</ele>
        <time>2023-05-03T12:59:02.448Z</time>
      </trkpt>
      <trkpt lat="48.21424" lon="-3.1221">
        <ele>190.091715</ele>
        <time>2023-05-03T12:59:07.444Z</time>
      </trkpt>
      <trkpt lat="48.21422" lon="-3.12197">
        <ele>190.452808</ele>
        <time>2023-05-03T12:59:12.442Z</time>
      </trkpt>
      <trkpt lat="48.21421" lon="-3.12183">
        <ele>190.822099</ele>
        <time>2023-05-03T12:59:17.449Z</time>
      </trkpt>
      <trkpt lat="48.21418" lon="-3.1217">
        <ele>191.180962</ele>
        <time>2023-05-03T12:59:22.440Z</time>
      </trkpt>
      <trkpt lat="48.21417" lon="-3.12156">
        <ele>191.55055</ele>
        <time>2023-05-03T12:59:27.439Z</time>
      </trkpt>
      <trkpt lat="48.21416" lon="-3.12142">
        <ele>191.919842</ele>
        <time>2023-05-03T12:59:32.443Z</time>
      </trkpt>
      <trkpt lat="48.21414" lon="-3.12128">
        <ele>192.293077</ele>
        <time>2023-05-03T12:59:37.445Z</time>
      </trkpt>
      <trkpt lat="48.21412" lon="-3.12114">
        <ele>192.65753</ele>
        <time>2023-05-03T12:59:42.443Z</time>
      </trkpt>
      <trkpt lat="48.2141" lon="-3.12101">
        <ele>193.025607</ele>
        <time>2023-05-03T12:59:47.439Z</time>
      </trkpt>
      <trkpt lat="48.21408" lon="-3.12085">
        <ele>193.439689</ele>
        <time>2023-05-03T12:59:53.446Z</time>
      </trkpt>
      <trkpt lat="48.21407" lon="-3.1207">
        <ele>193.83617</ele>
        <time>2023-05-03T12:59:59.439Z</time>
      </trkpt>
      <trkpt lat="48.21404" lon="-3.12055">
        <ele>194.248449</ele>
        <time>2023-05-03T13:00:05.434Z</time>
      </trkpt>
      <trkpt lat="48.21402" lon="-3.12039">
        <ele>194.666665</ele>
        <time>2023-05-03T13:00:11.451Z</time>
      </trkpt>
      <trkpt lat="48.21401" lon="-3.12024">
        <ele>195.071717</ele>
        <time>2023-05-03T13:00:17.440Z</time>
      </trkpt>
      <trkpt lat="48.21399" lon="-3.1201">
        <ele>195.446427</ele>
        <time>2023-05-03T13:00:23.436Z</time>
      </trkpt>
      <trkpt lat="48.21397" lon="-3.11995">
        <ele>195.856137</ele>
        <time>2023-05-03T13:00:29.441Z</time>
      </trkpt>
      <trkpt lat="48.21394" lon="-3.1198">
        <ele>196.252502</ele>
        <time>2023-05-03T13:00:35.441Z</time>
      </trkpt>
      <trkpt lat="48.21391" lon="-3.11965">
        <ele>196.654054</ele>
        <time>2023-05-03T13:00:41.441Z</time>
      </trkpt>
      <trkpt lat="48.21388" lon="-3.1195">
        <ele>197.074925</ele>
        <time>2023-05-03T13:00:47.442Z</time>
      </trkpt>
      <trkpt lat="48.21384" lon="-3.11935">
        <ele>197.501625</ele>
        <time>2023-05-03T13:00:53.449Z</time>
      </trkpt>
      <trkpt lat="48.2138" lon="-3.11923">
        <ele>197.861252</ele>
        <time>2023-05-03T13:00:58.438Z</time>
      </trkpt>
      <trkpt lat="48.21378" lon="-3.11908">
        <ele>198.274709</ele>
        <time>2023-05-03T13:01:04.436Z</time>
      </trkpt>
      <trkpt lat="48.21375" lon="-3.11895">
        <ele>198.644691</ele>
        <time>2023-05-03T13:01:09.451Z</time>
      </trkpt>
      <trkpt lat="48.21372" lon="-3.11879">
        <ele>199.064084</ele>
        <time>2023-05-03T13:01:15.438Z</time>
      </trkpt>
      <trkpt lat="48.21369" lon="-3.11866">
        <ele>199.445358</ele>
        <time>2023-05-03T13:01:20.440Z</time>
      </trkpt>
      <trkpt lat="48.21366" lon="-3.11853">
        <ele>199.803977</ele>
        <time>2023-05-03T13:01:25.442Z</time>
      </trkpt>
      <trkpt lat="48.21365" lon="-3.11838">
        <ele>200.218712</ele>
        <time>2023-05-03T13:01:31.437Z</time>
      </trkpt>
      <trkpt lat="48.21361" lon="-3.11823">
        <ele>200.615125</ele>
        <time>2023-05-03T13:01:37.442Z</time>
      </trkpt>
      <trkpt lat="48.21359" lon="-3.11808">
        <ele>201.040315</ele>
        <time>2023-05-03T13:01:43.436Z</time>
      </trkpt>
      <trkpt lat="48.21358" lon="-3.11792">
        <ele>201.449148</ele>
        <time>2023-05-03T13:01:49.438Z</time>
      </trkpt>
      <trkpt lat="48.21357" lon="-3.11778">
        <ele>201.840721</ele>
        <time>2023-05-03T13:01:55.440Z</time>
      </trkpt>
      <trkpt lat="48.21355" lon="-3.11762">
        <ele>202.265258</ele>
        <time>2023-05-03T13:02:01.439Z</time>
      </trkpt>
      <trkpt lat="48.21354" lon="-3.11748">
        <ele>202.633926</ele>
        <time>2023-05-03T13:02:06.441Z</time>
      </trkpt>
      <trkpt lat="48.21352" lon="-3.11735">
        <ele>202.994737</ele>
        <time>2023-05-03T13:02:11.444Z</time>
      </trkpt>
      <trkpt lat="48.2135" lon="-3.1172">
        <ele>203.406187</ele>
        <time>2023-05-03T13:02:17.448Z</time>
      </trkpt>
      <trkpt lat="48.21349" lon="-3.11704">
        <ele>203.81837</ele>
        <time>2023-05-03T13:02:23.444Z</time>
      </trkpt>
      <trkpt lat="48.21348" lon="-3.1169">
        <ele>204.164572</ele>
        <time>2023-05-03T13:02:28.443Z</time>
      </trkpt>
      <trkpt lat="48.21346" lon="-3.11676">
        <ele>204.523345</ele>
        <time>2023-05-03T13:02:33.448Z</time>
      </trkpt>
      <trkpt lat="48.21344" lon="-3.11662">
        <ele>204.898926</ele>
        <time>2023-05-03T13:02:38.440Z</time>
      </trkpt>
      <trkpt lat="48.21343" lon="-3.11648">
        <ele>205.259</ele>
        <time>2023-05-03T13:02:43.446Z</time>
      </trkpt>
      <trkpt lat="48.21341" lon="-3.11635">
        <ele>205.608366</ele>
        <time>2023-05-03T13:02:48.439Z</time>
      </trkpt>
      <trkpt lat="48.21339" lon="-3.1162">
        <ele>205.972792</ele>
        <time>2023-05-03T13:02:53.448Z</time>
      </trkpt>
      <trkpt lat="48.21338" lon="-3.11607">
        <ele>206.332866</ele>
        <time>2023-05-03T13:02:58.444Z</time>
      </trkpt>
      <trkpt lat="48.21337" lon="-3.11593">
        <ele>206.678952</ele>
        <time>2023-05-03T13:03:03.438Z</time>
      </trkpt>
      <trkpt lat="48.21335" lon="-3.11579">
        <ele>207.036582</ele>
        <time>2023-05-03T13:03:08.439Z</time>
      </trkpt>
      <trkpt lat="48.21334" lon="-3.11565">
        <ele>207.397284</ele>
        <time>2023-05-03T13:03:14.436Z</time>
      </trkpt>
      <trkpt lat="48.21332" lon="-3.11549">
        <ele>207.807052</ele>
        <time>2023-05-03T13:03:20.445Z</time>
      </trkpt>
      <trkpt lat="48.2133" lon="-3.11536">
        <ele>208.152843</ele>
        <time>2023-05-03T13:03:25.446Z</time>
      </trkpt>
      <trkpt lat="48.21328" lon="-3.11522">
        <ele>208.524366</ele>
        <time>2023-05-03T13:03:30.437Z</time>
      </trkpt>
      <trkpt lat="48.21327" lon="-3.11506">
        <ele>208.918393</ele>
        <time>2023-05-03T13:03:35.444Z</time>
      </trkpt>
      <trkpt lat="48.21326" lon="-3.11492">
        <ele>209.289104</ele>
        <time>2023-05-03T13:03:40.441Z</time>
      </trkpt>
      <trkpt lat="48.21324" lon="-3.11478">
        <ele>209.657224</ele>
        <time>2023-05-03T13:03:45.447Z</time>
      </trkpt>
      <trkpt lat="48.21322" lon="-3.11463">
        <ele>210.036133</ele>
        <time>2023-05-03T13:03:50.438Z</time>
      </trkpt>
      <trkpt lat="48.21321" lon="-3.11448">
        <ele>210.423057</ele>
        <time>2023-05-03T13:03:55.449Z</time>
      </trkpt>
      <trkpt lat="48.2132" lon="-3.11434">
        <ele>210.80361</ele>
        <time>2023-05-03T13:04:00.445Z</time>
      </trkpt>
      <trkpt lat="48.21319" lon="-3.1142">
        <ele>211.181253</ele>
        <time>2023-05-03T13:04:05.448Z</time>
      </trkpt>
      <trkpt lat="48.21317" lon="-3.11405">
        <ele>211.578803</ele>
        <time>2023-05-03T13:04:10.436Z</time>
      </trkpt>
      <trkpt lat="48.21316" lon="-3.11391">
        <ele>211.962012</ele>
        <time>2023-05-03T13:04:15.445Z</time>
      </trkpt>
      <trkpt lat="48.21315" lon="-3.11377">
        <ele>212.348868</ele>
        <time>2023-05-03T13:04:20.446Z</time>
      </trkpt>
      <trkpt lat="48.21314" lon="-3.11362">
        <ele>212.758197</ele>
        <time>2023-05-03T13:04:26.439Z</time>
      </trkpt>
      <trkpt lat="48.21308" lon="-3.11349">
        <ele>213.17482</ele>
        <time>2023-05-03T13:04:32.436Z</time>
      </trkpt>
      <trkpt lat="48.21301" lon="-3.11341">
        <ele>213.539912</ele>
        <time>2023-05-03T13:04:37.428Z</time>
      </trkpt>
      <trkpt lat="48.21294" lon="-3.11328">
        <ele>213.9662</ele>
        <time>2023-05-03T13:04:42.435Z</time>
      </trkpt>
      <trkpt lat="48.2129" lon="-3.11316">
        <ele>214.33744</ele>
        <time>2023-05-03T13:04:47.440Z</time>
      </trkpt>
      <trkpt lat="48.21285" lon="-3.11304">
        <ele>214.734053</ele>
        <time>2023-05-03T13:04:52.435Z</time>
      </trkpt>
      <trkpt lat="48.2128" lon="-3.11289">
        <ele>215.172316</ele>
        <time>2023-05-03T13:04:57.438Z</time>
      </trkpt>
      <trkpt lat="48.21275" lon="-3.11274">
        <ele>215.61508</ele>
        <time>2023-05-03T13:05:02.436Z</time>
      </trkpt>
      <trkpt lat="48.21271" lon="-3.11261">
        <ele>215.996001</ele>
        <time>2023-05-03T13:05:07.445Z</time>
      </trkpt>
      <trkpt lat="48.21267" lon="-3.11247">
        <ele>216.415291</ele>
        <time>2023-05-03T13:05:12.436Z</time>
      </trkpt>
      <trkpt lat="48.21263" lon="-3.11233">
        <ele>216.803511</ele>
        <time>2023-05-03T13:05:17.441Z</time>
      </trkpt>
      <trkpt lat="48.21261" lon="-3.1122">
        <ele>217.172049</ele>
        <time>2023-05-03T13:05:22.438Z</time>
      </trkpt>
      <trkpt lat="48.21258" lon="-3.11207">
        <ele>217.5467</ele>
        <time>2023-05-03T13:05:27.440Z</time>
      </trkpt>
      <trkpt lat="48.21257" lon="-3.11191">
        <ele>217.928938</ele>
        <time>2023-05-03T13:05:33.450Z</time>
      </trkpt>
      <trkpt lat="48.21255" lon="-3.11177">
        <ele>218.24245</ele>
        <time>2023-05-03T13:05:38.442Z</time>
      </trkpt>
      <trkpt lat="48.21255" lon="-3.11163">
        <ele>218.560629</ele>
        <time>2023-05-03T13:05:43.449Z</time>
      </trkpt>
      <trkpt lat="48.21255" lon="-3.11149">
        <ele>218.885551</ele>
        <time>2023-05-03T13:05:48.437Z</time>
      </trkpt>
      <trkpt lat="48.21257" lon="-3.11135">
        <ele>219.193743</ele>
        <time>2023-05-03T13:05:53.448Z</time>
      </trkpt>
      <trkpt lat="48.21257" lon="-3.11122">
        <ele>219.50117</ele>
        <time>2023-05-03T13:05:58.437Z</time>
      </trkpt>
      <trkpt lat="48.21259" lon="-3.11108">
        <ele>219.821354</ele>
        <time>2023-05-03T13:06:03.440Z</time>
      </trkpt>
      <trkpt lat="48.21261" lon="-3.11094">
        <ele>220.160832</ele>
        <time>2023-05-03T13:06:08.441Z</time>
      </trkpt>
      <trkpt lat="48.21264" lon="-3.1108">
        <ele>220.497144</ele>
        <time>2023-05-03T13:06:13.442Z</time>
      </trkpt>
      <trkpt lat="48.21268" lon="-3.11066">
        <ele>220.832423</ele>
        <time>2023-05-03T13:06:19.440Z</time>
      </trkpt>
      <trkpt lat="48.2127" lon="-3.1105">
        <ele>221.19052</ele>
        <time>2023-05-03T13:06:37.438Z</time>
      </trkpt>
      <trkpt lat="48.21274" lon="-3.11036">
        <ele>221.546242</ele>
        <time>2023-05-03T13:06:42.444Z</time>
      </trkpt>
      <trkpt lat="48.21278" lon="-3.11022">
        <ele>221.88552</ele>
        <time>2023-05-03T13:06:47.435Z</time>
      </trkpt>
      <trkpt lat="48.21282" lon="-3.11009">
        <ele>222.216429</ele>
        <time>2023-05-03T13:06:52.449Z</time>
      </trkpt>
      <trkpt lat="48.21287" lon="-3.10995">
        <ele>222.57215</ele>
        <time>2023-05-03T13:06:57.442Z</time>
      </trkpt>
      <trkpt lat="48.21292" lon="-3.10981">
        <ele>222.934349</ele>
        <time>2023-05-03T13:07:02.444Z</time>
      </trkpt>
      <trkpt lat="48.21297" lon="-3.10968">
        <ele>223.279363</ele>
        <time>2023-05-03T13:07:07.439Z</time>
      </trkpt>
      <trkpt lat="48.21301" lon="-3.10953">
        <ele>223.640747</ele>
        <time>2023-05-03T13:07:12.443Z</time>
      </trkpt>
      <trkpt lat="48.21306" lon="-3.10941">
        <ele>223.907188</ele>
        <time>2023-05-03T13:07:17.439Z</time>
      </trkpt>
      <trkpt lat="48.21311" lon="-3.10927">
        <ele>224.152163</ele>
        <time>2023-05-03T13:07:22.441Z</time>
      </trkpt>
      <trkpt lat="48.21316" lon="-3.10915">
        <ele>224.36137</ele>
        <time>2023-05-03T13:07:26.450Z</time>
      </trkpt>
      <trkpt lat="48.2132" lon="-3.10901">
        <ele>224.586434</ele>
        <time>2023-05-03T13:07:31.436Z</time>
      </trkpt>
      <trkpt lat="48.21327" lon="-3.10889">
        <ele>224.828961</ele>
        <time>2023-05-03T13:07:37.444Z</time>
      </trkpt>
      <trkpt lat="48.21322" lon="-3.10901">
        <ele>225.050616</ele>
        <time>2023-05-03T13:07:53.445Z</time>
      </trkpt>
      <trkpt lat="48.21317" lon="-3.10915">
        <ele>225.28699</ele>
        <time>2023-05-03T13:07:57.446Z</time>
      </trkpt>
      <trkpt lat="48.21313" lon="-3.10927">
        <ele>225.493526</ele>
        <time>2023-05-03T13:08:02.442Z</time>
      </trkpt>
      <trkpt lat="48.21309" lon="-3.10942">
        <ele>225.726901</ele>
        <time>2023-05-03T13:08:09.452Z</time>
      </trkpt>
      <trkpt lat="48.21311" lon="-3.10926">
        <ele>225.959773</ele>
        <time>2023-05-03T13:08:20.431Z</time>
      </trkpt>
      <trkpt lat="48.21315" lon="-3.10912">
        <ele>226.192643</ele>
        <time>2023-05-03T13:08:25.446Z</time>
      </trkpt>
      <trkpt lat="48.21321" lon="-3.109">
        <ele>226.436017</ele>
        <time>2023-05-03T13:08:30.435Z</time>
      </trkpt>
      <trkpt lat="48.21327" lon="-3.10886">
        <ele>226.6841</ele>
        <time>2023-05-03T13:08:35.447Z</time>
      </trkpt>
      <trkpt lat="48.21331" lon="-3.10872">
        <ele>226.908166</ele>
        <time>2023-05-03T13:08:40.443Z</time>
      </trkpt>
      <trkpt lat="48.21333" lon="-3.10857">
        <ele>227.138138</ele>
        <time>2023-05-03T13:08:45.451Z</time>
      </trkpt>
      <trkpt lat="48.21334" lon="-3.10842">
        <ele>227.366755</ele>
        <time>2023-05-03T13:08:50.432Z</time>
      </trkpt>
      <trkpt lat="48.21335" lon="-3.10826">
        <ele>227.609737</ele>
        <time>2023-05-03T13:08:55.443Z</time>
      </trkpt>
      <trkpt lat="48.21337" lon="-3.1081">
        <ele>227.853072</ele>
        <time>2023-05-03T13:09:02.433Z</time>
      </trkpt>
      <trkpt lat="48.21338" lon="-3.10796">
        <ele>228.127899</ele>
        <time>2023-05-03T13:09:07.436Z</time>
      </trkpt>
      <trkpt lat="48.21337" lon="-3.1078">
        <ele>228.41471</ele>
        <time>2023-05-03T13:09:12.443Z</time>
      </trkpt>
      <trkpt lat="48.21339" lon="-3.10766">
        <ele>228.691715</ele>
        <time>2023-05-03T13:09:19.439Z</time>
      </trkpt>
      <trkpt lat="48.2134" lon="-3.10752">
        <ele>228.948893</ele>
        <time>2023-05-03T13:09:24.443Z</time>
      </trkpt>
      <trkpt lat="48.21342" lon="-3.10738">
        <ele>229.214192</ele>
        <time>2023-05-03T13:09:29.439Z</time>
      </trkpt>
      <trkpt lat="48.21345" lon="-3.10723">
        <ele>229.501013</ele>
        <time>2023-05-03T13:09:34.438Z</time>
      </trkpt>
      <trkpt lat="48.21349" lon="-3.10711">
        <ele>229.758804</ele>
        <time>2023-05-03T13:09:39.462Z</time>
      </trkpt>
      <trkpt lat="48.21355" lon="-3.10698">
        <ele>230.054611</ele>
        <time>2023-05-03T13:09:45.433Z</time>
      </trkpt>
      <trkpt lat="48.21364" lon="-3.1069">
        <ele>230.355149</ele>
        <time>2023-05-03T13:09:50.428Z</time>
      </trkpt>
      <trkpt lat="48.21371" lon="-3.10676">
        <ele>230.667523</ele>
        <time>2023-05-03T13:09:55.444Z</time>
      </trkpt>
      <trkpt lat="48.21376" lon="-3.10663">
        <ele>230.94779</ele>
        <time>2023-05-03T13:10:01.434Z</time>
      </trkpt>
      <trkpt lat="48.21381" lon="-3.10652">
        <ele>231.199901</ele>
        <time>2023-05-03T13:10:08.433Z</time>
      </trkpt>
      <trkpt lat="48.21388" lon="-3.10637">
        <ele>231.538348</ele>
        <time>2023-05-03T13:10:13.436Z</time>
      </trkpt>
      <trkpt lat="48.21395" lon="-3.10627">
        <ele>231.815552</ele>
        <time>2023-05-03T13:10:16.445Z</time>
      </trkpt>
      <trkpt lat="48.21402" lon="-3.10616">
        <ele>232.084089</ele>
        <time>2023-05-03T13:10:20.446Z</time>
      </trkpt>
      <trkpt lat="48.21409" lon="-3.10607">
        <ele>232.353129</ele>
        <time>2023-05-03T13:10:23.445Z</time>
      </trkpt>
      <trkpt lat="48.21417" lon="-3.10596">
        <ele>232.663557</ele>
        <time>2023-05-03T13:10:28.432Z</time>
      </trkpt>
      <trkpt lat="48.21425" lon="-3.10584">
        <ele>232.919784</ele>
        <time>2023-05-03T13:10:32.444Z</time>
      </trkpt>
      <trkpt lat="48.21431" lon="-3.10573">
        <ele>233.011242</ele>
        <time>2023-05-03T13:10:37.446Z</time>
      </trkpt>
      <trkpt lat="48.21436" lon="-3.1056">
        <ele>233.108011</ele>
        <time>2023-05-03T13:10:43.438Z</time>
      </trkpt>
      <trkpt lat="48.21443" lon="-3.10547">
        <ele>233.217735</ele>
        <time>2023-05-03T13:10:48.434Z</time>
      </trkpt>
      <trkpt lat="48.2145" lon="-3.10535">
        <ele>233.321089</ele>
        <time>2023-05-03T13:10:53.437Z</time>
      </trkpt>
      <trkpt lat="48.21458" lon="-3.10523">
        <ele>233.424913</ele>
        <time>2023-05-03T13:10:57.445Z</time>
      </trkpt>
      <trkpt lat="48.21465" lon="-3.1051">
        <ele>233.534129</ele>
        <time>2023-05-03T13:11:01.445Z</time>
      </trkpt>
      <trkpt lat="48.21472" lon="-3.10496">
        <ele>233.64279</ele>
        <time>2023-05-03T13:11:06.443Z</time>
      </trkpt>
      <trkpt lat="48.21479" lon="-3.10486">
        <ele>233.734803</ele>
        <time>2023-05-03T13:11:09.446Z</time>
      </trkpt>
      <trkpt lat="48.21486" lon="-3.10472">
        <ele>233.848967</ele>
        <time>2023-05-03T13:11:13.448Z</time>
      </trkpt>
      <trkpt lat="48.21493" lon="-3.1046">
        <ele>233.946763</ele>
        <time>2023-05-03T13:11:16.447Z</time>
      </trkpt>
      <trkpt lat="48.21498" lon="-3.10449">
        <ele>234.03307</ele>
        <time>2023-05-03T13:11:31.447Z</time>
      </trkpt>
      <trkpt lat="48.21505" lon="-3.10439">
        <ele>234.125347</ele>
        <time>2023-05-03T13:11:37.446Z</time>
      </trkpt>
      <trkpt lat="48.21512" lon="-3.10425">
        <ele>234.234459</ele>
        <time>2023-05-03T13:11:42.445Z</time>
      </trkpt>
      <trkpt lat="48.21519" lon="-3.10413">
        <ele>234.338688</ele>
        <time>2023-05-03T13:11:46.444Z</time>
      </trkpt>
      <trkpt lat="48.21527" lon="-3.10401">
        <ele>234.443337</ele>
        <time>2023-05-03T13:11:50.444Z</time>
      </trkpt>
      <trkpt lat="48.21534" lon="-3.10389">
        <ele>234.548452</ele>
        <time>2023-05-03T13:11:54.444Z</time>
      </trkpt>
      <trkpt lat="48.21541" lon="-3.10377">
        <ele>234.558617</ele>
        <time>2023-05-03T13:11:58.438Z</time>
      </trkpt>
      <trkpt lat="48.21547" lon="-3.10363">
        <ele>234.386752</ele>
        <time>2023-05-03T13:12:03.442Z</time>
      </trkpt>
      <trkpt lat="48.21554" lon="-3.10348">
        <ele>234.209893</ele>
        <time>2023-05-03T13:12:07.439Z</time>
      </trkpt>
      <trkpt lat="48.2156" lon="-3.10334">
        <ele>234.04963</ele>
        <time>2023-05-03T13:12:12.437Z</time>
      </trkpt>
      <trkpt lat="48.21564" lon="-3.10322">
        <ele>233.910865</ele>
        <time>2023-05-03T13:12:17.442Z</time>
      </trkpt>
      <trkpt lat="48.21569" lon="-3.10309">
        <ele>233.762343</ele>
        <time>2023-05-03T13:12:21.448Z</time>
      </trkpt>
      <trkpt lat="48.21574" lon="-3.10297">
        <ele>233.619546</ele>
        <time>2023-05-03T13:12:25.452Z</time>
      </trkpt>
      <trkpt lat="48.21578" lon="-3.10283">
        <ele>233.466188</ele>
        <time>2023-05-03T13:12:32.438Z</time>
      </trkpt>
      <trkpt lat="48.21581" lon="-3.1027">
        <ele>233.320676</ele>
        <time>2023-05-03T13:12:37.446Z</time>
      </trkpt>
      <trkpt lat="48.21586" lon="-3.10257">
        <ele>233.174431</ele>
        <time>2023-05-03T13:12:42.443Z</time>
      </trkpt>
      <trkpt lat="48.2159" lon="-3.10243">
        <ele>233.02353</ele>
        <time>2023-05-03T13:13:00.447Z</time>
      </trkpt>
      <trkpt lat="48.21595" lon="-3.10231">
        <ele>232.884468</ele>
        <time>2023-05-03T13:13:04.433Z</time>
      </trkpt>
      <trkpt lat="48.216" lon="-3.10216">
        <ele>232.71544</ele>
        <time>2023-05-03T13:13:08.438Z</time>
      </trkpt>
      <trkpt lat="48.21604" lon="-3.10203">
        <ele>232.56255</ele>
        <time>2023-05-03T13:13:12.445Z</time>
      </trkpt>
      <trkpt lat="48.21608" lon="-3.10188">
        <ele>232.406732</ele>
        <time>2023-05-03T13:13:16.448Z</time>
      </trkpt>
      <trkpt lat="48.21613" lon="-3.10174">
        <ele>232.245746</ele>
        <time>2023-05-03T13:13:20.448Z</time>
      </trkpt>
      <trkpt lat="48.21617" lon="-3.10161">
        <ele>232.101154</ele>
        <time>2023-05-03T13:13:24.438Z</time>
      </trkpt>
      <trkpt lat="48.21621" lon="-3.10148">
        <ele>231.957883</ele>
        <time>2023-05-03T13:13:28.438Z</time>
      </trkpt>
      <trkpt lat="48.21625" lon="-3.10135">
        <ele>232.091939</ele>
        <time>2023-05-03T13:13:32.442Z</time>
      </trkpt>
      <trkpt lat="48.21629" lon="-3.1012">
        <ele>232.405607</ele>
        <time>2023-05-03T13:13:36.449Z</time>
      </trkpt>
      <trkpt lat="48.21634" lon="-3.10106">
        <ele>232.714663</ele>
        <time>2023-05-03T13:13:40.440Z</time>
      </trkpt>
      <trkpt lat="48.21638" lon="-3.10092">
        <ele>233.02284</ele>
        <time>2023-05-03T13:13:44.435Z</time>
      </trkpt>
      <trkpt lat="48.21644" lon="-3.10079">
        <ele>233.349341</ele>
        <time>2023-05-03T13:13:48.439Z</time>
      </trkpt>
      <trkpt lat="48.21648" lon="-3.10066">
        <ele>233.625999</ele>
        <time>2023-05-03T13:13:52.441Z</time>
      </trkpt>
      <trkpt lat="48.21652" lon="-3.10051">
        <ele>233.942194</ele>
        <time>2023-05-03T13:13:57.440Z</time>
      </trkpt>
      <trkpt lat="48.21656" lon="-3.10038">
        <ele>234.237066</ele>
        <time>2023-05-03T13:14:03.447Z</time>
      </trkpt>
      <trkpt lat="48.2166" lon="-3.10025">
        <ele>234.51812</ele>
        <time>2023-05-03T13:14:09.435Z</time>
      </trkpt>
      <trkpt lat="48.21669" lon="-3.10001">
        <ele>235.068883</ele>
        <time>2023-05-03T13:14:58.440Z</time>
      </trkpt>
      <trkpt lat="48.21673" lon="-3.09987">
        <ele>235.373605</ele>
        <time>2023-05-03T13:15:02.438Z</time>
      </trkpt>
      <trkpt lat="48.21678" lon="-3.09972">
        <ele>235.70317</ele>
        <time>2023-05-03T13:15:06.440Z</time>
      </trkpt>
      <trkpt lat="48.21683" lon="-3.09958">
        <ele>236.02531</ele>
        <time>2023-05-03T13:15:10.432Z</time>
      </trkpt>
      <trkpt lat="48.21688" lon="-3.09942">
        <ele>236.371823</ele>
        <time>2023-05-03T13:15:14.444Z</time>
      </trkpt>
      <trkpt lat="48.21693" lon="-3.09929">
        <ele>236.668476</ele>
        <time>2023-05-03T13:15:17.444Z</time>
      </trkpt>
      <trkpt lat="48.21698" lon="-3.09913">
        <ele>237.024566</ele>
        <time>2023-05-03T13:15:21.439Z</time>
      </trkpt>
      <trkpt lat="48.21702" lon="-3.09898">
        <ele>237.300634</ele>
        <time>2023-05-03T13:15:25.446Z</time>
      </trkpt>
      <trkpt lat="48.21705" lon="-3.09885">
        <ele>237.37013</ele>
        <time>2023-05-03T13:15:28.435Z</time>
      </trkpt>
      <trkpt lat="48.2171" lon="-3.09869">
        <ele>237.460301</ele>
        <time>2023-05-03T13:15:32.442Z</time>
      </trkpt>
      <trkpt lat="48.21714" lon="-3.09857">
        <ele>237.531311</ele>
        <time>2023-05-03T13:15:35.436Z</time>
      </trkpt>
      <trkpt lat="48.21719" lon="-3.09842">
        <ele>237.616599</ele>
        <time>2023-05-03T13:15:39.446Z</time>
      </trkpt>
      <trkpt lat="48.21724" lon="-3.09827">
        <ele>237.703494</ele>
        <time>2023-05-03T13:15:43.441Z</time>
      </trkpt>
      <trkpt lat="48.21729" lon="-3.09812">
        <ele>237.789357</ele>
        <time>2023-05-03T13:15:47.434Z</time>
      </trkpt>
      <trkpt lat="48.21734" lon="-3.09797">
        <ele>237.87081</ele>
        <time>2023-05-03T13:15:51.434Z</time>
      </trkpt>
      <trkpt lat="48.21738" lon="-3.09782">
        <ele>237.954759</ele>
        <time>2023-05-03T13:15:55.446Z</time>
      </trkpt>
      <trkpt lat="48.21743" lon="-3.09767">
        <ele>238.040394</ele>
        <time>2023-05-03T13:15:59.437Z</time>
      </trkpt>
      <trkpt lat="48.21748" lon="-3.09752">
        <ele>238.126484</ele>
        <time>2023-05-03T13:16:03.438Z</time>
      </trkpt>
      <trkpt lat="48.21753" lon="-3.09737">
        <ele>238.211771</ele>
        <time>2023-05-03T13:16:07.439Z</time>
      </trkpt>
      <trkpt lat="48.21758" lon="-3.09722">
        <ele>238.296379</ele>
        <time>2023-05-03T13:16:11.437Z</time>
      </trkpt>
      <trkpt lat="48.21763" lon="-3.09708">
        <ele>238.381106</ele>
        <time>2023-05-03T13:16:15.441Z</time>
      </trkpt>
      <trkpt lat="48.21768" lon="-3.09694">
        <ele>238.46195</ele>
        <time>2023-05-03T13:16:19.442Z</time>
      </trkpt>
      <trkpt lat="48.21772" lon="-3.09678">
        <ele>238.549966</ele>
        <time>2023-05-03T13:16:23.440Z</time>
      </trkpt>
      <trkpt lat="48.21776" lon="-3.09664">
        <ele>238.625401</ele>
        <time>2023-05-03T13:16:27.437Z</time>
      </trkpt>
      <trkpt lat="48.21781" lon="-3.09649">
        <ele>238.698573</ele>
        <time>2023-05-03T13:16:32.440Z</time>
      </trkpt>
      <trkpt lat="48.21784" lon="-3.09633">
        <ele>238.765773</ele>
        <time>2023-05-03T13:16:37.445Z</time>
      </trkpt>
      <trkpt lat="48.21788" lon="-3.09619">
        <ele>238.824823</ele>
        <time>2023-05-03T13:16:41.437Z</time>
      </trkpt>
      <trkpt lat="48.21791" lon="-3.09604">
        <ele>238.889191</ele>
        <time>2023-05-03T13:16:45.444Z</time>
      </trkpt>
      <trkpt lat="48.21794" lon="-3.09588">
        <ele>238.951937</ele>
        <time>2023-05-03T13:16:49.439Z</time>
      </trkpt>
      <trkpt lat="48.21797" lon="-3.09574">
        <ele>239.010937</ele>
        <time>2023-05-03T13:16:53.446Z</time>
      </trkpt>
      <trkpt lat="48.21798" lon="-3.0956">
        <ele>239.068669</ele>
        <time>2023-05-03T13:16:57.444Z</time>
      </trkpt>
      <trkpt lat="48.21799" lon="-3.09544">
        <ele>239.132473</ele>
        <time>2023-05-03T13:17:01.436Z</time>
      </trkpt>
      <trkpt lat="48.21801" lon="-3.09529">
        <ele>239.190127</ele>
        <time>2023-05-03T13:17:05.441Z</time>
      </trkpt>
      <trkpt lat="48.21803" lon="-3.09513">
        <ele>239.255955</ele>
        <time>2023-05-03T13:17:09.438Z</time>
      </trkpt>
      <trkpt lat="48.21805" lon="-3.09496">
        <ele>239.323444</ele>
        <time>2023-05-03T13:17:13.439Z</time>
      </trkpt>
      <trkpt lat="48.21807" lon="-3.09479">
        <ele>239.390948</ele>
        <time>2023-05-03T13:17:17.445Z</time>
      </trkpt>
      <trkpt lat="48.21807" lon="-3.09463">
        <ele>239.453442</ele>
        <time>2023-05-03T13:17:21.437Z</time>
      </trkpt>
      <trkpt lat="48.21807" lon="-3.09447">
        <ele>239.518692</ele>
        <time>2023-05-03T13:17:25.441Z</time>
      </trkpt>
      <trkpt lat="48.21808" lon="-3.0943">
        <ele>239.585299</ele>
        <time>2023-05-03T13:17:29.441Z</time>
      </trkpt>
      <trkpt lat="48.21808" lon="-3.09414">
        <ele>239.648617</ele>
        <time>2023-05-03T13:17:33.443Z</time>
      </trkpt>
      <trkpt lat="48.21808" lon="-3.09399">
        <ele>239.707935</ele>
        <time>2023-05-03T13:17:37.438Z</time>
      </trkpt>
      <trkpt lat="48.21808" lon="-3.09384">
        <ele>239.831918</ele>
        <time>2023-05-03T13:17:41.434Z</time>
      </trkpt>
      <trkpt lat="48.21807" lon="-3.09367">
        <ele>240.003129</ele>
        <time>2023-05-03T13:17:46.436Z</time>
      </trkpt>
      <trkpt lat="48.21806" lon="-3.09353">
        <ele>240.147599</ele>
        <time>2023-05-03T13:17:50.441Z</time>
      </trkpt>
      <trkpt lat="48.21804" lon="-3.0934">
        <ele>240.292978</ele>
        <time>2023-05-03T13:17:54.444Z</time>
      </trkpt>
      <trkpt lat="48.21804" lon="-3.09325">
        <ele>240.44564</ele>
        <time>2023-05-03T13:17:58.445Z</time>
      </trkpt>
      <trkpt lat="48.21802" lon="-3.09309">
        <ele>240.610275</ele>
        <time>2023-05-03T13:18:02.446Z</time>
      </trkpt>
      <trkpt lat="48.218" lon="-3.09295">
        <ele>240.757005</ele>
        <time>2023-05-03T13:18:06.441Z</time>
      </trkpt>
      <trkpt lat="48.21798" lon="-3.09279">
        <ele>240.929625</ele>
        <time>2023-05-03T13:18:10.433Z</time>
      </trkpt>
      <trkpt lat="48.21797" lon="-3.09265">
        <ele>241.077422</ele>
        <time>2023-05-03T13:18:14.442Z</time>
      </trkpt>
      <trkpt lat="48.21794" lon="-3.09249">
        <ele>241.244428</ele>
        <time>2023-05-03T13:18:18.440Z</time>
      </trkpt>
      <trkpt lat="48.21791" lon="-3.09233">
        <ele>241.416722</ele>
        <time>2023-05-03T13:18:22.443Z</time>
      </trkpt>
      <trkpt lat="48.21789" lon="-3.09218">
        <ele>241.581673</ele>
        <time>2023-05-03T13:18:26.431Z</time>
      </trkpt>
      <trkpt lat="48.21787" lon="-3.09201">
        <ele>241.756099</ele>
        <time>2023-05-03T13:18:30.438Z</time>
      </trkpt>
      <trkpt lat="48.21784" lon="-3.09187">
        <ele>241.908541</ele>
        <time>2023-05-03T13:18:34.439Z</time>
      </trkpt>
      <trkpt lat="48.21781" lon="-3.09172">
        <ele>242.074011</ele>
        <time>2023-05-03T13:18:38.443Z</time>
      </trkpt>
      <trkpt lat="48.21778" lon="-3.09157">
        <ele>242.228661</ele>
        <time>2023-05-03T13:18:42.445Z</time>
      </trkpt>
      <trkpt lat="48.21775" lon="-3.09143">
        <ele>242.387024</ele>
        <time>2023-05-03T13:18:46.438Z</time>
      </trkpt>
      <trkpt lat="48.21772" lon="-3.0913">
        <ele>242.529193</ele>
        <time>2023-05-03T13:18:50.434Z</time>
      </trkpt>
      <trkpt lat="48.21769" lon="-3.09114">
        <ele>242.616285</ele>
        <time>2023-05-03T13:18:54.435Z</time>
      </trkpt>
      <trkpt lat="48.21766" lon="-3.09097">
        <ele>242.703677</ele>
        <time>2023-05-03T13:18:58.437Z</time>
      </trkpt>
      <trkpt lat="48.21764" lon="-3.09082">
        <ele>242.78268</ele>
        <time>2023-05-03T13:19:03.436Z</time>
      </trkpt>
      <trkpt lat="48.21762" lon="-3.09067">
        <ele>242.863197</ele>
        <time>2023-05-03T13:19:08.438Z</time>
      </trkpt>
      <trkpt lat="48.2176" lon="-3.09052">
        <ele>242.940529</ele>
        <time>2023-05-03T13:19:12.438Z</time>
      </trkpt>
      <trkpt lat="48.21758" lon="-3.09037">
        <ele>243.021373</ele>
        <time>2023-05-03T13:19:16.431Z</time>
      </trkpt>
      <trkpt lat="48.21754" lon="-3.09021">
        <ele>243.107254</ele>
        <time>2023-05-03T13:19:20.446Z</time>
      </trkpt>
      <trkpt lat="48.21751" lon="-3.09008">
        <ele>243.177081</ele>
        <time>2023-05-03T13:19:23.439Z</time>
      </trkpt>
      <trkpt lat="48.21749" lon="-3.08991">
        <ele>243.268994</ele>
        <time>2023-05-03T13:19:27.444Z</time>
      </trkpt>
      <trkpt lat="48.21747" lon="-3.08978">
        <ele>243.338442</ele>
        <time>2023-05-03T13:19:30.436Z</time>
      </trkpt>
      <trkpt lat="48.21745" lon="-3.08965">
        <ele>243.408104</ele>
        <time>2023-05-03T13:19:33.444Z</time>
      </trkpt>
      <trkpt lat="48.21744" lon="-3.0895">
        <ele>243.482216</ele>
        <time>2023-05-03T13:19:36.439Z</time>
      </trkpt>
      <trkpt lat="48.21743" lon="-3.08934">
        <ele>243.564182</ele>
        <time>2023-05-03T13:19:40.445Z</time>
      </trkpt>
      <trkpt lat="48.21742" lon="-3.08918">
        <ele>243.65151</ele>
        <time>2023-05-03T13:19:44.445Z</time>
      </trkpt>
      <trkpt lat="48.21742" lon="-3.08901">
        <ele>243.73656</ele>
        <time>2023-05-03T13:19:48.434Z</time>
      </trkpt>
      <trkpt lat="48.21741" lon="-3.08884">
        <ele>243.826725</ele>
        <time>2023-05-03T13:19:52.439Z</time>
      </trkpt>
      <trkpt lat="48.21741" lon="-3.08866">
        <ele>243.91538</ele>
        <time>2023-05-03T13:19:56.436Z</time>
      </trkpt>
      <trkpt lat="48.21741" lon="-3.08853">
        <ele>244.163045</ele>
        <time>2023-05-03T13:20:00.436Z</time>
      </trkpt>
      <trkpt lat="48.21742" lon="-3.08839">
        <ele>244.419567</ele>
        <time>2023-05-03T13:20:04.439Z</time>
      </trkpt>
      <trkpt lat="48.21743" lon="-3.08823">
        <ele>244.718859</ele>
        <time>2023-05-03T13:20:08.434Z</time>
      </trkpt>
      <trkpt lat="48.21744" lon="-3.08807">
        <ele>245.025059</ele>
        <time>2023-05-03T13:20:12.429Z</time>
      </trkpt>
      <trkpt lat="48.21746" lon="-3.08791">
        <ele>245.337431</ele>
        <time>2023-05-03T13:20:16.450Z</time>
      </trkpt>
      <trkpt lat="48.21748" lon="-3.08775">
        <ele>245.636419</ele>
        <time>2023-05-03T13:20:20.445Z</time>
      </trkpt>
      <trkpt lat="48.2175" lon="-3.08758">
        <ele>245.961815</ele>
        <time>2023-05-03T13:20:24.446Z</time>
      </trkpt>
      <trkpt lat="48.21753" lon="-3.08744">
        <ele>246.238727</ele>
        <time>2023-05-03T13:20:28.432Z</time>
      </trkpt>
      <trkpt lat="48.21756" lon="-3.0873">
        <ele>246.513829</ele>
        <time>2023-05-03T13:20:32.436Z</time>
      </trkpt>
      <trkpt lat="48.21761" lon="-3.08707">
        <ele>246.97808</ele>
        <time>2023-05-03T13:22:42.436Z</time>
      </trkpt>
      <trkpt lat="48.21765" lon="-3.08694">
        <ele>247.24368</ele>
        <time>2023-05-03T13:22:46.435Z</time>
      </trkpt>
      <trkpt lat="48.2177" lon="-3.08679">
        <ele>247.551569</ele>
        <time>2023-05-03T13:22:50.434Z</time>
      </trkpt>
      <trkpt lat="48.21774" lon="-3.08664">
        <ele>247.872636</ele>
        <time>2023-05-03T13:22:54.438Z</time>
      </trkpt>
      <trkpt lat="48.21778" lon="-3.08648">
        <ele>248.178869</ele>
        <time>2023-05-03T13:22:58.437Z</time>
      </trkpt>
      <trkpt lat="48.21781" lon="-3.08635">
        <ele>248.444923</ele>
        <time>2023-05-03T13:23:03.436Z</time>
      </trkpt>
      <trkpt lat="48.21785" lon="-3.08622">
        <ele>248.705794</ele>
        <time>2023-05-03T13:23:08.435Z</time>
      </trkpt>
      <trkpt lat="48.21789" lon="-3.08608">
        <ele>249.000699</ele>
        <time>2023-05-03T13:23:13.445Z</time>
      </trkpt>
      <trkpt lat="48.21795" lon="-3.08595">
        <ele>249.035062</ele>
        <time>2023-05-03T13:23:17.429Z</time>
      </trkpt>
      <trkpt lat="48.218" lon="-3.08581">
        <ele>249.06839</ele>
        <time>2023-05-03T13:23:21.440Z</time>
      </trkpt>
      <trkpt lat="48.21805" lon="-3.08568">
        <ele>249.10202</ele>
        <time>2023-05-03T13:23:25.440Z</time>
      </trkpt>
      <trkpt lat="48.21809" lon="-3.08552">
        <ele>249.138725</ele>
        <time>2023-05-03T13:23:29.433Z</time>
      </trkpt>
      <trkpt lat="48.21814" lon="-3.0854">
        <ele>249.168715</ele>
        <time>2023-05-03T13:23:32.441Z</time>
      </trkpt>
      <trkpt lat="48.21818" lon="-3.08527">
        <ele>249.199544</ele>
        <time>2023-05-03T13:23:35.437Z</time>
      </trkpt>
      <trkpt lat="48.21822" lon="-3.08513">
        <ele>249.231386</ele>
        <time>2023-05-03T13:23:38.438Z</time>
      </trkpt>
      <trkpt lat="48.21826" lon="-3.085">
        <ele>249.261878</ele>
        <time>2023-05-03T13:23:41.445Z</time>
      </trkpt>
      <trkpt lat="48.21831" lon="-3.08487">
        <ele>249.293958</ele>
        <time>2023-05-03T13:23:44.445Z</time>
      </trkpt>
      <trkpt lat="48.21836" lon="-3.08476">
        <ele>249.323325</ele>
        <time>2023-05-03T13:23:47.435Z</time>
      </trkpt>
      <trkpt lat="48.2184" lon="-3.08462">
        <ele>249.355477</ele>
        <time>2023-05-03T13:23:50.433Z</time>
      </trkpt>
      <trkpt lat="48.21845" lon="-3.0845">
        <ele>249.38569</ele>
        <time>2023-05-03T13:23:53.441Z</time>
      </trkpt>
      <trkpt lat="48.21849" lon="-3.08438">
        <ele>249.415032</ele>
        <time>2023-05-03T13:23:56.438Z</time>
      </trkpt>
      <trkpt lat="48.21853" lon="-3.08425">
        <ele>249.445576</ele>
        <time>2023-05-03T13:23:59.434Z</time>
      </trkpt>
      <trkpt lat="48.21857" lon="-3.08412">
        <ele>249.476841</ele>
        <time>2023-05-03T13:24:02.434Z</time>
      </trkpt>
      <trkpt lat="48.21861" lon="-3.08399">
        <ele>249.508162</ele>
        <time>2023-05-03T13:24:05.443Z</time>
      </trkpt>
      <trkpt lat="48.21866" lon="-3.08386">
        <ele>249.540846</ele>
        <time>2023-05-03T13:24:08.435Z</time>
      </trkpt>
      <trkpt lat="48.21871" lon="-3.08372">
        <ele>249.574136</ele>
        <time>2023-05-03T13:24:11.444Z</time>
      </trkpt>
      <trkpt lat="48.21874" lon="-3.08357">
        <ele>249.725431</ele>
        <time>2023-05-03T13:24:14.439Z</time>
      </trkpt>
      <trkpt lat="48.21878" lon="-3.08342">
        <ele>249.913054</ele>
        <time>2023-05-03T13:24:17.443Z</time>
      </trkpt>
      <trkpt lat="48.21882" lon="-3.08328">
        <ele>250.097596</ele>
        <time>2023-05-03T13:24:20.438Z</time>
      </trkpt>
      <trkpt lat="48.21886" lon="-3.08313">
        <ele>250.282343</ele>
        <time>2023-05-03T13:24:23.437Z</time>
      </trkpt>
      <trkpt lat="48.21889" lon="-3.08299">
        <ele>250.462292</ele>
        <time>2023-05-03T13:24:26.436Z</time>
      </trkpt>
      <trkpt lat="48.21892" lon="-3.08284">
        <ele>250.646064</ele>
        <time>2023-05-03T13:24:31.430Z</time>
      </trkpt>
      <trkpt lat="48.21896" lon="-3.08269">
        <ele>250.837662</ele>
        <time>2023-05-03T13:24:36.437Z</time>
      </trkpt>
      <trkpt lat="48.21899" lon="-3.08256">
        <ele>251.003493</ele>
        <time>2023-05-03T13:24:39.439Z</time>
      </trkpt>
      <trkpt lat="48.21901" lon="-3.08243">
        <ele>251.168881</ele>
        <time>2023-05-03T13:24:42.441Z</time>
      </trkpt>
      <trkpt lat="48.21905" lon="-3.08228">
        <ele>251.349871</ele>
        <time>2023-05-03T13:24:46.435Z</time>
      </trkpt>
      <trkpt lat="48.21907" lon="-3.08212">
        <ele>251.549523</ele>
        <time>2023-05-03T13:24:51.432Z</time>
      </trkpt>
      <trkpt lat="48.2191" lon="-3.08195">
        <ele>251.762078</ele>
        <time>2023-05-03T13:24:55.433Z</time>
      </trkpt>
      <trkpt lat="48.21913" lon="-3.08179">
        <ele>251.952775</ele>
        <time>2023-05-03T13:24:59.434Z</time>
      </trkpt>
      <trkpt lat="48.21915" lon="-3.08162">
        <ele>252.158533</ele>
        <time>2023-05-03T13:25:03.436Z</time>
      </trkpt>
      <trkpt lat="48.21916" lon="-3.08145">
        <ele>252.368473</ele>
        <time>2023-05-03T13:25:07.437Z</time>
      </trkpt>
      <trkpt lat="48.21916" lon="-3.08127">
        <ele>252.572906</ele>
        <time>2023-05-03T13:25:11.437Z</time>
      </trkpt>
      <trkpt lat="48.21916" lon="-3.08113">
        <ele>252.740526</ele>
        <time>2023-05-03T13:25:14.438Z</time>
      </trkpt>
      <trkpt lat="48.21916" lon="-3.08098">
        <ele>252.778303</ele>
        <time>2023-05-03T13:25:17.443Z</time>
      </trkpt>
      <trkpt lat="48.21917" lon="-3.08085">
        <ele>252.763933</ele>
        <time>2023-05-03T13:25:20.437Z</time>
      </trkpt>
      <trkpt lat="48.21917" lon="-3.08071">
        <ele>252.749686</ele>
        <time>2023-05-03T13:25:23.431Z</time>
      </trkpt>
      <trkpt lat="48.21917" lon="-3.08053">
        <ele>252.731265</ele>
        <time>2023-05-03T13:25:27.437Z</time>
      </trkpt>
      <trkpt lat="48.21916" lon="-3.08038">
        <ele>252.715328</ele>
        <time>2023-05-03T13:25:30.434Z</time>
      </trkpt>
      <trkpt lat="48.21915" lon="-3.08023">
        <ele>252.70017</ele>
        <time>2023-05-03T13:25:33.433Z</time>
      </trkpt>
      <trkpt lat="48.21914" lon="-3.0801">
        <ele>252.685781</ele>
        <time>2023-05-03T13:25:36.440Z</time>
      </trkpt>
      <trkpt lat="48.21913" lon="-3.07996">
        <ele>252.671742</ele>
        <time>2023-05-03T13:25:39.439Z</time>
      </trkpt>
      <trkpt lat="48.21911" lon="-3.07978">
        <ele>252.652918</ele>
        <time>2023-05-03T13:25:43.433Z</time>
      </trkpt>
      <trkpt lat="48.2191" lon="-3.07964">
        <ele>252.638035</ele>
        <time>2023-05-03T13:25:46.437Z</time>
      </trkpt>
      <trkpt lat="48.21909" lon="-3.07949">
        <ele>252.622192</ele>
        <time>2023-05-03T13:25:50.433Z</time>
      </trkpt>
      <trkpt lat="48.21907" lon="-3.07935">
        <ele>252.607235</ele>
        <time>2023-05-03T13:25:54.440Z</time>
      </trkpt>
      <trkpt lat="48.21903" lon="-3.0792">
        <ele>252.590461</ele>
        <time>2023-05-03T13:25:58.434Z</time>
      </trkpt>
      <trkpt lat="48.21901" lon="-3.07906">
        <ele>252.576191</ele>
        <time>2023-05-03T13:26:01.444Z</time>
      </trkpt>
      <trkpt lat="48.21898" lon="-3.07893">
        <ele>252.561579</ele>
        <time>2023-05-03T13:26:04.439Z</time>
      </trkpt>
      <trkpt lat="48.21896" lon="-3.0788">
        <ele>252.547251</ele>
        <time>2023-05-03T13:26:07.441Z</time>
      </trkpt>
      <trkpt lat="48.21894" lon="-3.07866">
        <ele>252.53232</ele>
        <time>2023-05-03T13:26:10.433Z</time>
      </trkpt>
      <trkpt lat="48.2189" lon="-3.07851">
        <ele>252.516088</ele>
        <time>2023-05-03T13:26:13.430Z</time>
      </trkpt>
      <trkpt lat="48.21887" lon="-3.07837">
        <ele>252.493</ele>
        <time>2023-05-03T13:26:16.438Z</time>
      </trkpt>
      <trkpt lat="48.21884" lon="-3.07823">
        <ele>252.462939</ele>
        <time>2023-05-03T13:26:19.442Z</time>
      </trkpt>
      <trkpt lat="48.21882" lon="-3.0781">
        <ele>252.433823</ele>
        <time>2023-05-03T13:26:22.443Z</time>
      </trkpt>
      <trkpt lat="48.21879" lon="-3.07793">
        <ele>252.396838</ele>
        <time>2023-05-03T13:26:26.438Z</time>
      </trkpt>
      <trkpt lat="48.21875" lon="-3.07777">
        <ele>252.361301</ele>
        <time>2023-05-03T13:26:30.439Z</time>
      </trkpt>
      <trkpt lat="48.21872" lon="-3.0776">
        <ele>252.32387</ele>
        <time>2023-05-03T13:26:34.434Z</time>
      </trkpt>
      <trkpt lat="48.21869" lon="-3.07747">
        <ele>252.29524</ele>
        <time>2023-05-03T13:26:38.434Z</time>
      </trkpt>
      <trkpt lat="48.21867" lon="-3.07733">
        <ele>252.265261</ele>
        <time>2023-05-03T13:26:42.439Z</time>
      </trkpt>
      <trkpt lat="48.21865" lon="-3.07718">
        <ele>252.232408</ele>
        <time>2023-05-03T13:26:46.438Z</time>
      </trkpt>
      <trkpt lat="48.21862" lon="-3.07703">
        <ele>252.200749</ele>
        <time>2023-05-03T13:26:50.431Z</time>
      </trkpt>
      <trkpt lat="48.21859" lon="-3.0769">
        <ele>252.170285</ele>
        <time>2023-05-03T13:26:54.444Z</time>
      </trkpt>
      <trkpt lat="48.21855" lon="-3.07674">
        <ele>252.136326</ele>
        <time>2023-05-03T13:26:58.430Z</time>
      </trkpt>
      <trkpt lat="48.21853" lon="-3.07659">
        <ele>252.103841</ele>
        <time>2023-05-03T13:27:02.438Z</time>
      </trkpt>
      <trkpt lat="48.21849" lon="-3.07643">
        <ele>252.0686</ele>
        <time>2023-05-03T13:27:06.438Z</time>
      </trkpt>
      <trkpt lat="48.21847" lon="-3.07626">
        <ele>252.031962</ele>
        <time>2023-05-03T13:27:10.431Z</time>
      </trkpt>
      <trkpt lat="48.21845" lon="-3.0761">
        <ele>251.997706</ele>
        <time>2023-05-03T13:27:14.438Z</time>
      </trkpt>
      <trkpt lat="48.21844" lon="-3.07595">
        <ele>251.967122</ele>
        <time>2023-05-03T13:27:17.435Z</time>
      </trkpt>
      <trkpt lat="48.21843" lon="-3.07582">
        <ele>251.937536</ele>
        <time>2023-05-03T13:27:20.433Z</time>
      </trkpt>
      <trkpt lat="48.21841" lon="-3.07566">
        <ele>251.900419</ele>
        <time>2023-05-03T13:27:24.444Z</time>
      </trkpt>
      <trkpt lat="48.21841" lon="-3.07549">
        <ele>251.860009</ele>
        <time>2023-05-03T13:27:28.431Z</time>
      </trkpt>
      <trkpt lat="48.2184" lon="-3.07534">
        <ele>251.824297</ele>
        <time>2023-05-03T13:27:31.439Z</time>
      </trkpt>
      <trkpt lat="48.2184" lon="-3.07519">
        <ele>251.789075</ele>
        <time>2023-05-03T13:27:34.440Z</time>
      </trkpt>
      <trkpt lat="48.2184" lon="-3.07505">
        <ele>251.754843</ele>
        <time>2023-05-03T13:27:37.434Z</time>
      </trkpt>
      <trkpt lat="48.21841" lon="-3.0749">
        <ele>251.719317</ele>
        <time>2023-05-03T13:27:40.428Z</time>
      </trkpt>
      <trkpt lat="48.21842" lon="-3.07476">
        <ele>251.686504</ele>
        <time>2023-05-03T13:27:43.433Z</time>
      </trkpt>
      <trkpt lat="48.21842" lon="-3.07459">
        <ele>251.646127</ele>
        <time>2023-05-03T13:27:47.435Z</time>
      </trkpt>
      <trkpt lat="48.21843" lon="-3.07441">
        <ele>251.604556</ele>
        <time>2023-05-03T13:27:51.437Z</time>
      </trkpt>
      <trkpt lat="48.21844" lon="-3.07427">
        <ele>251.571692</ele>
        <time>2023-05-03T13:27:54.444Z</time>
      </trkpt>
      <trkpt lat="48.21845" lon="-3.07412">
        <ele>251.535398</ele>
        <time>2023-05-03T13:27:57.448Z</time>
      </trkpt>
      <trkpt lat="48.21846" lon="-3.07397">
        <ele>251.500466</ele>
        <time>2023-05-03T13:28:00.434Z</time>
      </trkpt>
      <trkpt lat="48.21848" lon="-3.07383">
        <ele>251.46686</ele>
        <time>2023-05-03T13:28:03.434Z</time>
      </trkpt>
      <trkpt lat="48.21849" lon="-3.07368">
        <ele>251.430117</ele>
        <time>2023-05-03T13:28:06.439Z</time>
      </trkpt>
      <trkpt lat="48.21849" lon="-3.07353">
        <ele>251.39423</ele>
        <time>2023-05-03T13:28:10.435Z</time>
      </trkpt>
      <trkpt lat="48.2185" lon="-3.07338">
        <ele>251.359437</ele>
        <time>2023-05-03T13:28:13.433Z</time>
      </trkpt>
      <trkpt lat="48.2185" lon="-3.07324">
        <ele>251.326081</ele>
        <time>2023-05-03T13:28:16.445Z</time>
      </trkpt>
      <trkpt lat="48.21852" lon="-3.07309">
        <ele>251.368495</ele>
        <time>2023-05-03T13:28:19.438Z</time>
      </trkpt>
      <trkpt lat="48.21853" lon="-3.07296">
        <ele>251.513927</ele>
        <time>2023-05-03T13:28:22.438Z</time>
      </trkpt>
      <trkpt lat="48.21855" lon="-3.07278">
        <ele>251.712721</ele>
        <time>2023-05-03T13:28:26.432Z</time>
      </trkpt>
      <trkpt lat="48.21856" lon="-3.07264">
        <ele>251.86248</ele>
        <time>2023-05-03T13:28:29.434Z</time>
      </trkpt>
      <trkpt lat="48.21857" lon="-3.0725">
        <ele>252.015882</ele>
        <time>2023-05-03T13:28:32.437Z</time>
      </trkpt>
      <trkpt lat="48.21858" lon="-3.07235">
        <ele>252.169231</ele>
        <time>2023-05-03T13:28:35.439Z</time>
      </trkpt>
      <trkpt lat="48.21859" lon="-3.07221">
        <ele>252.327131</ele>
        <time>2023-05-03T13:28:38.433Z</time>
      </trkpt>
      <trkpt lat="48.2186" lon="-3.07207">
        <ele>252.472626</ele>
        <time>2023-05-03T13:28:41.445Z</time>
      </trkpt>
      <trkpt lat="48.21859" lon="-3.0719">
        <ele>252.656983</ele>
        <time>2023-05-03T13:28:45.438Z</time>
      </trkpt>
      <trkpt lat="48.21859" lon="-3.07176">
        <ele>252.810203</ele>
        <time>2023-05-03T13:28:48.431Z</time>
      </trkpt>
      <trkpt lat="48.21858" lon="-3.07162">
        <ele>252.957768</ele>
        <time>2023-05-03T13:28:51.439Z</time>
      </trkpt>
      <trkpt lat="48.21858" lon="-3.07149">
        <ele>253.107377</ele>
        <time>2023-05-03T13:28:54.443Z</time>
      </trkpt>
      <trkpt lat="48.21858" lon="-3.0713">
        <ele>253.302315</ele>
        <time>2023-05-03T13:28:58.433Z</time>
      </trkpt>
      <trkpt lat="48.21856" lon="-3.07115">
        <ele>253.474053</ele>
        <time>2023-05-03T13:29:01.433Z</time>
      </trkpt>
      <trkpt lat="48.21856" lon="-3.07101">
        <ele>253.6262</ele>
        <time>2023-05-03T13:29:04.435Z</time>
      </trkpt>
      <trkpt lat="48.21855" lon="-3.07086">
        <ele>253.783714</ele>
        <time>2023-05-03T13:29:07.438Z</time>
      </trkpt>
      <trkpt lat="48.21853" lon="-3.07071">
        <ele>253.950901</ele>
        <time>2023-05-03T13:29:10.429Z</time>
      </trkpt>
      <trkpt lat="48.2185" lon="-3.07057">
        <ele>254.109693</ele>
        <time>2023-05-03T13:29:13.431Z</time>
      </trkpt>
      <trkpt lat="48.21847" lon="-3.07041">
        <ele>254.180636</ele>
        <time>2023-05-03T13:29:16.436Z</time>
      </trkpt>
      <trkpt lat="48.21844" lon="-3.07026">
        <ele>254.111729</ele>
        <time>2023-05-03T13:29:19.433Z</time>
      </trkpt>
      <trkpt lat="48.21841" lon="-3.07013">
        <ele>254.047712</ele>
        <time>2023-05-03T13:29:22.438Z</time>
      </trkpt>
      <trkpt lat="48.21837" lon="-3.06997">
        <ele>253.971785</ele>
        <time>2023-05-03T13:29:26.441Z</time>
      </trkpt>
      <trkpt lat="48.21833" lon="-3.06984">
        <ele>253.908338</ele>
        <time>2023-05-03T13:29:30.434Z</time>
      </trkpt>
      <trkpt lat="48.21829" lon="-3.06971">
        <ele>253.844703</ele>
        <time>2023-05-03T13:29:35.431Z</time>
      </trkpt>
      <trkpt lat="48.21825" lon="-3.06957">
        <ele>253.777942</ele>
        <time>2023-05-03T13:29:40.433Z</time>
      </trkpt>
      <trkpt lat="48.2182" lon="-3.06942">
        <ele>253.703543</ele>
        <time>2023-05-03T13:29:45.434Z</time>
      </trkpt>
      <trkpt lat="48.21814" lon="-3.06929">
        <ele>253.631843</ele>
        <time>2023-05-03T13:29:50.432Z</time>
      </trkpt>
      <trkpt lat="48.21809" lon="-3.06916">
        <ele>253.566575</ele>
        <time>2023-05-03T13:29:56.437Z</time>
      </trkpt>
      <trkpt lat="48.21803" lon="-3.06902">
        <ele>253.491573</ele>
        <time>2023-05-03T13:30:01.444Z</time>
      </trkpt>
      <trkpt lat="48.21798" lon="-3.0689">
        <ele>253.426916</ele>
        <time>2023-05-03T13:30:05.440Z</time>
      </trkpt>
      <trkpt lat="48.21792" lon="-3.06878">
        <ele>253.363368</ele>
        <time>2023-05-03T13:30:09.435Z</time>
      </trkpt>
      <trkpt lat="48.21786" lon="-3.06865">
        <ele>253.292009</ele>
        <time>2023-05-03T13:30:14.439Z</time>
      </trkpt>
      <trkpt lat="48.2178" lon="-3.06854">
        <ele>253.226509</ele>
        <time>2023-05-03T13:30:18.440Z</time>
      </trkpt>
      <trkpt lat="48.21773" lon="-3.06842">
        <ele>253.160333</ele>
        <time>2023-05-03T13:30:22.434Z</time>
      </trkpt>
      <trkpt lat="48.21766" lon="-3.06831">
        <ele>253.091384</ele>
        <time>2023-05-03T13:30:26.443Z</time>
      </trkpt>
      <trkpt lat="48.21759" lon="-3.06819">
        <ele>253.020804</ele>
        <time>2023-05-03T13:30:30.437Z</time>
      </trkpt>
      <trkpt lat="48.21751" lon="-3.06808">
        <ele>253.064898</ele>
        <time>2023-05-03T13:30:34.434Z</time>
      </trkpt>
      <trkpt lat="48.21744" lon="-3.06797">
        <ele>253.125178</ele>
        <time>2023-05-03T13:30:38.440Z</time>
      </trkpt>
      <trkpt lat="48.21737" lon="-3.06787">
        <ele>253.183629</ele>
        <time>2023-05-03T13:30:42.442Z</time>
      </trkpt>
      <trkpt lat="48.2173" lon="-3.06778">
        <ele>253.236946</ele>
        <time>2023-05-03T13:30:47.439Z</time>
      </trkpt>
      <trkpt lat="48.21723" lon="-3.06768">
        <ele>253.293133</ele>
        <time>2023-05-03T13:30:53.434Z</time>
      </trkpt>
      <trkpt lat="48.21715" lon="-3.06758">
        <ele>253.352626</ele>
        <time>2023-05-03T13:30:59.439Z</time>
      </trkpt>
      <trkpt lat="48.21708" lon="-3.06749">
        <ele>253.410259</ele>
        <time>2023-05-03T13:31:05.434Z</time>
      </trkpt>
      <trkpt lat="48.217" lon="-3.0674">
        <ele>253.465054</ele>
        <time>2023-05-03T13:31:11.433Z</time>
      </trkpt>
      <trkpt lat="48.21692" lon="-3.0673">
        <ele>253.525734</ele>
        <time>2023-05-03T13:31:17.444Z</time>
      </trkpt>
      <trkpt lat="48.21685" lon="-3.0672">
        <ele>253.582534</ele>
        <time>2023-05-03T13:31:22.445Z</time>
      </trkpt>
      <trkpt lat="48.21677" lon="-3.06709">
        <ele>253.645864</ele>
        <time>2023-05-03T13:31:28.438Z</time>
      </trkpt>
      <trkpt lat="48.2167" lon="-3.06699">
        <ele>253.702152</ele>
        <time>2023-05-03T13:31:33.442Z</time>
      </trkpt>
      <trkpt lat="48.21663" lon="-3.0669">
        <ele>253.756949</ele>
        <time>2023-05-03T13:31:38.433Z</time>
      </trkpt>
      <trkpt lat="48.21656" lon="-3.06681">
        <ele>253.814547</ele>
        <time>2023-05-03T13:31:44.428Z</time>
      </trkpt>
      <trkpt lat="48.21647" lon="-3.0667">
        <ele>253.87992</ele>
        <time>2023-05-03T13:31:50.427Z</time>
      </trkpt>
      <trkpt lat="48.21639" lon="-3.06659">
        <ele>253.943492</ele>
        <time>2023-05-03T13:31:55.432Z</time>
      </trkpt>
      <trkpt lat="48.21632" lon="-3.06648">
        <ele>254.004903</ele>
        <time>2023-05-03T13:32:00.436Z</time>
      </trkpt>
      <trkpt lat="48.21625" lon="-3.06638">
        <ele>254.061354</ele>
        <time>2023-05-03T13:32:04.440Z</time>
      </trkpt>
      <trkpt lat="48.21617" lon="-3.06628">
        <ele>254.061209</ele>
        <time>2023-05-03T13:32:08.433Z</time>
      </trkpt>
      <trkpt lat="48.21609" lon="-3.06619">
        <ele>254.057776</ele>
        <time>2023-05-03T13:32:12.438Z</time>
      </trkpt>
      <trkpt lat="48.21601" lon="-3.06608">
        <ele>254.054307</ele>
        <time>2023-05-03T13:32:16.440Z</time>
      </trkpt>
      <trkpt lat="48.21593" lon="-3.06597">
        <ele>254.050737</ele>
        <time>2023-05-03T13:32:21.444Z</time>
      </trkpt>
      <trkpt lat="48.21587" lon="-3.06586">
        <ele>254.047528</ele>
        <time>2023-05-03T13:32:25.431Z</time>
      </trkpt>
      <trkpt lat="48.21581" lon="-3.06573">
        <ele>254.044088</ele>
        <time>2023-05-03T13:32:29.433Z</time>
      </trkpt>
      <trkpt lat="48.21573" lon="-3.06561">
        <ele>254.040566</ele>
        <time>2023-05-03T13:32:33.438Z</time>
      </trkpt>
      <trkpt lat="48.21567" lon="-3.0655">
        <ele>254.037451</ele>
        <time>2023-05-03T13:32:37.434Z</time>
      </trkpt>
      <trkpt lat="48.21562" lon="-3.06538">
        <ele>254.034362</ele>
        <time>2023-05-03T13:32:41.434Z</time>
      </trkpt>
      <trkpt lat="48.21556" lon="-3.06526">
        <ele>254.030985</ele>
        <time>2023-05-03T13:32:45.430Z</time>
      </trkpt>
      <trkpt lat="48.2155" lon="-3.06512">
        <ele>254.027347</ele>
        <time>2023-05-03T13:32:49.423Z</time>
      </trkpt>
      <trkpt lat="48.21544" lon="-3.065">
        <ele>254.024235</ele>
        <time>2023-05-03T13:32:53.436Z</time>
      </trkpt>
      <trkpt lat="48.21539" lon="-3.06485">
        <ele>254.020461</ele>
        <time>2023-05-03T13:32:58.443Z</time>
      </trkpt>
      <trkpt lat="48.21535" lon="-3.0647">
        <ele>254.016803</ele>
        <time>2023-05-03T13:33:02.431Z</time>
      </trkpt>
      <trkpt lat="48.2153" lon="-3.06453">
        <ele>254.012925</ele>
        <time>2023-05-03T13:33:06.442Z</time>
      </trkpt>
      <trkpt lat="48.21526" lon="-3.06438">
        <ele>254.009259</ele>
        <time>2023-05-03T13:33:10.433Z</time>
      </trkpt>
      <trkpt lat="48.21523" lon="-3.06423">
        <ele>254.005779</ele>
        <time>2023-05-03T13:33:15.435Z</time>
      </trkpt>
      <trkpt lat="48.2152" lon="-3.06409">
        <ele>253.983433</ele>
        <time>2023-05-03T13:33:19.435Z</time>
      </trkpt>
      <trkpt lat="48.21517" lon="-3.06395">
        <ele>253.956487</ele>
        <time>2023-05-03T13:33:23.443Z</time>
      </trkpt>
      <trkpt lat="48.21515" lon="-3.0638">
        <ele>253.929827</ele>
        <time>2023-05-03T13:33:27.439Z</time>
      </trkpt>
      <trkpt lat="48.21513" lon="-3.06364">
        <ele>253.899199</ele>
        <time>2023-05-03T13:33:32.432Z</time>
      </trkpt>
      <trkpt lat="48.21512" lon="-3.06348">
        <ele>253.871453</ele>
        <time>2023-05-03T13:33:36.435Z</time>
      </trkpt>
      <trkpt lat="48.21512" lon="-3.06334">
        <ele>253.845746</ele>
        <time>2023-05-03T13:33:40.432Z</time>
      </trkpt>
      <trkpt lat="48.21511" lon="-3.06319">
        <ele>253.819102</ele>
        <time>2023-05-03T13:33:45.430Z</time>
      </trkpt>
      <trkpt lat="48.21511" lon="-3.06303">
        <ele>253.790165</ele>
        <time>2023-05-03T13:33:49.433Z</time>
      </trkpt>
      <trkpt lat="48.2151" lon="-3.06288">
        <ele>253.76296</ele>
        <time>2023-05-03T13:33:53.438Z</time>
      </trkpt>
      <trkpt lat="48.2151" lon="-3.06271">
        <ele>253.732402</ele>
        <time>2023-05-03T13:33:57.437Z</time>
      </trkpt>
      <trkpt lat="48.21511" lon="-3.06257">
        <ele>253.706199</ele>
        <time>2023-05-03T13:34:00.433Z</time>
      </trkpt>
      <trkpt lat="48.21515" lon="-3.0624">
        <ele>253.674124</ele>
        <time>2023-05-03T13:34:04.439Z</time>
      </trkpt>
      <trkpt lat="48.21519" lon="-3.06227">
        <ele>253.648272</ele>
        <time>2023-05-03T13:34:07.436Z</time>
      </trkpt>
      <trkpt lat="48.21523" lon="-3.06212">
        <ele>253.61798</ele>
        <time>2023-05-03T13:34:10.431Z</time>
      </trkpt>
      <trkpt lat="48.21525" lon="-3.06197">
        <ele>253.590742</ele>
        <time>2023-05-03T13:34:13.432Z</time>
      </trkpt>
      <trkpt lat="48.21527" lon="-3.06183">
        <ele>253.565974</ele>
        <time>2023-05-03T13:34:16.437Z</time>
      </trkpt>
      <trkpt lat="48.21531" lon="-3.06169">
        <ele>253.538542</ele>
        <time>2023-05-03T13:34:20.426Z</time>
      </trkpt>
      <trkpt lat="48.21533" lon="-3.06156">
        <ele>253.462924</ele>
        <time>2023-05-03T13:34:24.433Z</time>
      </trkpt>
      <trkpt lat="48.21536" lon="-3.06142">
        <ele>253.085843</ele>
        <time>2023-05-03T13:34:28.437Z</time>
      </trkpt>
      <trkpt lat="48.21539" lon="-3.06128">
        <ele>252.710199</ele>
        <time>2023-05-03T13:34:32.436Z</time>
      </trkpt>
      <trkpt lat="48.21543" lon="-3.06116">
        <ele>252.357448</ele>
        <time>2023-05-03T13:34:35.433Z</time>
      </trkpt>
      <trkpt lat="48.21549" lon="-3.06101">
        <ele>251.914032</ele>
        <time>2023-05-03T13:34:39.477Z</time>
      </trkpt>
      <trkpt lat="48.21554" lon="-3.06089">
        <ele>251.567413</ele>
        <time>2023-05-03T13:34:42.438Z</time>
      </trkpt>
      <trkpt lat="48.2156" lon="-3.06078">
        <ele>251.203721</ele>
        <time>2023-05-03T13:34:45.432Z</time>
      </trkpt>
      <trkpt lat="48.21566" lon="-3.06066">
        <ele>250.817896</ele>
        <time>2023-05-03T13:34:49.432Z</time>
      </trkpt>
      <trkpt lat="48.2157" lon="-3.06055">
        <ele>250.468267</ele>
        <time>2023-05-03T13:34:52.445Z</time>
      </trkpt>
      <trkpt lat="48.21576" lon="-3.06043">
        <ele>250.090756</ele>
        <time>2023-05-03T13:34:55.438Z</time>
      </trkpt>
      <trkpt lat="48.21581" lon="-3.0603">
        <ele>249.719934</ele>
        <time>2023-05-03T13:34:58.441Z</time>
      </trkpt>
      <trkpt lat="48.21586" lon="-3.06019">
        <ele>249.372616</ele>
        <time>2023-05-03T13:35:01.441Z</time>
      </trkpt>
      <trkpt lat="48.21593" lon="-3.06004">
        <ele>248.899514</ele>
        <time>2023-05-03T13:35:05.431Z</time>
      </trkpt>
      <trkpt lat="48.21599" lon="-3.05992">
        <ele>248.527889</ele>
        <time>2023-05-03T13:35:08.430Z</time>
      </trkpt>
      <trkpt lat="48.21605" lon="-3.0598">
        <ele>248.122866</ele>
        <time>2023-05-03T13:35:11.435Z</time>
      </trkpt>
      <trkpt lat="48.21612" lon="-3.05967">
        <ele>247.718063</ele>
        <time>2023-05-03T13:35:14.435Z</time>
      </trkpt>
      <trkpt lat="48.21618" lon="-3.05956">
        <ele>247.3609</ele>
        <time>2023-05-03T13:35:17.433Z</time>
      </trkpt>
      <trkpt lat="48.21623" lon="-3.05945">
        <ele>247.007076</ele>
        <time>2023-05-03T13:35:20.445Z</time>
      </trkpt>
      <trkpt lat="48.2163" lon="-3.05932">
        <ele>246.600025</ele>
        <time>2023-05-03T13:35:24.441Z</time>
      </trkpt>
      <trkpt lat="48.21638" lon="-3.05919">
        <ele>246.531647</ele>
        <time>2023-05-03T13:35:28.430Z</time>
      </trkpt>
      <trkpt lat="48.21643" lon="-3.05907">
        <ele>246.477187</ele>
        <time>2023-05-03T13:35:31.434Z</time>
      </trkpt>
      <trkpt lat="48.21648" lon="-3.05896">
        <ele>246.42307</ele>
        <time>2023-05-03T13:35:34.434Z</time>
      </trkpt>
      <trkpt lat="48.21653" lon="-3.05883">
        <ele>246.361356</ele>
        <time>2023-05-03T13:35:37.434Z</time>
      </trkpt>
      <trkpt lat="48.21659" lon="-3.05869">
        <ele>246.300166</ele>
        <time>2023-05-03T13:35:40.437Z</time>
      </trkpt>
      <trkpt lat="48.21663" lon="-3.05856">
        <ele>246.239142</ele>
        <time>2023-05-03T13:35:43.436Z</time>
      </trkpt>
      <trkpt lat="48.21669" lon="-3.05843">
        <ele>246.177747</ele>
        <time>2023-05-03T13:35:46.432Z</time>
      </trkpt>
      <trkpt lat="48.21673" lon="-3.05829">
        <ele>246.118248</ele>
        <time>2023-05-03T13:35:49.433Z</time>
      </trkpt>
      <trkpt lat="48.21679" lon="-3.05814">
        <ele>246.049245</ele>
        <time>2023-05-03T13:35:53.437Z</time>
      </trkpt>
      <trkpt lat="48.21683" lon="-3.05801">
        <ele>245.99276</ele>
        <time>2023-05-03T13:35:56.432Z</time>
      </trkpt>
      <trkpt lat="48.21687" lon="-3.05788">
        <ele>245.93767</ele>
        <time>2023-05-03T13:35:59.434Z</time>
      </trkpt>
      <trkpt lat="48.21691" lon="-3.05775">
        <ele>245.87969</ele>
        <time>2023-05-03T13:36:02.437Z</time>
      </trkpt>
      <trkpt lat="48.21693" lon="-3.05761">
        <ele>245.821217</ele>
        <time>2023-05-03T13:36:05.433Z</time>
      </trkpt>
      <trkpt lat="48.21696" lon="-3.05745">
        <ele>245.756925</ele>
        <time>2023-05-03T13:36:09.431Z</time>
      </trkpt>
      <trkpt lat="48.21699" lon="-3.0573">
        <ele>245.694247</ele>
        <time>2023-05-03T13:36:13.435Z</time>
      </trkpt>
      <trkpt lat="48.21702" lon="-3.05717">
        <ele>245.639611</ele>
        <time>2023-05-03T13:36:16.431Z</time>
      </trkpt>
      <trkpt lat="48.21704" lon="-3.057">
        <ele>245.569678</ele>
        <time>2023-05-03T13:36:20.439Z</time>
      </trkpt>
      <trkpt lat="48.21707" lon="-3.05684">
        <ele>245.447034</ele>
        <time>2023-05-03T13:36:23.431Z</time>
      </trkpt>
      <trkpt lat="48.21709" lon="-3.0567">
        <ele>245.272131</ele>
        <time>2023-05-03T13:36:26.429Z</time>
      </trkpt>
      <trkpt lat="48.21712" lon="-3.05655">
        <ele>245.092616</ele>
        <time>2023-05-03T13:36:29.432Z</time>
      </trkpt>
      <trkpt lat="48.21714" lon="-3.05637">
        <ele>244.87409</ele>
        <time>2023-05-03T13:36:33.437Z</time>
      </trkpt>
      <trkpt lat="48.21715" lon="-3.05621">
        <ele>244.679982</ele>
        <time>2023-05-03T13:36:36.431Z</time>
      </trkpt>
      <trkpt lat="48.21717" lon="-3.05607">
        <ele>244.507502</ele>
        <time>2023-05-03T13:36:39.427Z</time>
      </trkpt>
      <trkpt lat="48.21719" lon="-3.05593">
        <ele>244.335119</ele>
        <time>2023-05-03T13:36:42.439Z</time>
      </trkpt>
      <trkpt lat="48.2172" lon="-3.05579">
        <ele>244.163824</ele>
        <time>2023-05-03T13:36:45.425Z</time>
      </trkpt>
      <trkpt lat="48.21722" lon="-3.05565">
        <ele>243.993819</ele>
        <time>2023-05-03T13:36:48.432Z</time>
      </trkpt>
      <trkpt lat="48.21723" lon="-3.05548">
        <ele>243.796578</ele>
        <time>2023-05-03T13:36:51.431Z</time>
      </trkpt>
      <trkpt lat="48.21724" lon="-3.05532">
        <ele>243.604885</ele>
        <time>2023-05-03T13:36:54.431Z</time>
      </trkpt>
      <trkpt lat="48.21726" lon="-3.05516">
        <ele>243.410591</ele>
        <time>2023-05-03T13:36:57.428Z</time>
      </trkpt>
      <trkpt lat="48.21727" lon="-3.05502">
        <ele>243.240419</ele>
        <time>2023-05-03T13:37:00.437Z</time>
      </trkpt>
      <trkpt lat="48.21728" lon="-3.05487">
        <ele>243.05425</ele>
        <time>2023-05-03T13:37:03.436Z</time>
      </trkpt>
      <trkpt lat="48.2173" lon="-3.0547">
        <ele>242.8546</ele>
        <time>2023-05-03T13:37:06.431Z</time>
      </trkpt>
      <trkpt lat="48.21732" lon="-3.05454">
        <ele>242.656581</ele>
        <time>2023-05-03T13:37:09.433Z</time>
      </trkpt>
      <trkpt lat="48.21733" lon="-3.05438">
        <ele>242.466362</ele>
        <time>2023-05-03T13:37:12.434Z</time>
      </trkpt>
      <trkpt lat="48.21733" lon="-3.05423">
        <ele>242.278702</ele>
        <time>2023-05-03T13:37:15.436Z</time>
      </trkpt>
      <trkpt lat="48.21732" lon="-3.05406">
        <ele>241.968814</ele>
        <time>2023-05-03T13:37:19.430Z</time>
      </trkpt>
      <trkpt lat="48.21732" lon="-3.05392">
        <ele>241.720272</ele>
        <time>2023-05-03T13:37:22.432Z</time>
      </trkpt>
      <trkpt lat="48.2173" lon="-3.05378">
        <ele>241.463201</ele>
        <time>2023-05-03T13:37:25.426Z</time>
      </trkpt>
      <trkpt lat="48.21727" lon="-3.05364">
        <ele>241.209519</ele>
        <time>2023-05-03T13:37:28.427Z</time>
      </trkpt>
      <trkpt lat="48.21724" lon="-3.05349">
        <ele>240.934721</ele>
        <time>2023-05-03T13:37:32.435Z</time>
      </trkpt>
      <trkpt lat="48.21721" lon="-3.05334">
        <ele>240.65335</ele>
        <time>2023-05-03T13:37:36.430Z</time>
      </trkpt>
      <trkpt lat="48.21717" lon="-3.0532">
        <ele>240.400162</ele>
        <time>2023-05-03T13:37:39.433Z</time>
      </trkpt>
      <trkpt lat="48.21713" lon="-3.05306">
        <ele>240.118279</ele>
        <time>2023-05-03T13:37:42.435Z</time>
      </trkpt>
      <trkpt lat="48.21708" lon="-3.05289">
        <ele>239.802378</ele>
        <time>2023-05-03T13:37:45.443Z</time>
      </trkpt>
      <trkpt lat="48.21703" lon="-3.05277">
        <ele>239.555242</ele>
        <time>2023-05-03T13:37:48.429Z</time>
      </trkpt>
      <trkpt lat="48.21699" lon="-3.0526">
        <ele>239.23701</ele>
        <time>2023-05-03T13:37:52.437Z</time>
      </trkpt>
      <trkpt lat="48.21695" lon="-3.05244">
        <ele>238.928137</ele>
        <time>2023-05-03T13:37:56.423Z</time>
      </trkpt>
      <trkpt lat="48.21691" lon="-3.05231">
        <ele>238.6842</ele>
        <time>2023-05-03T13:37:59.439Z</time>
      </trkpt>
      <trkpt lat="48.21686" lon="-3.05215">
        <ele>238.371231</ele>
        <time>2023-05-03T13:38:03.429Z</time>
      </trkpt>
      <trkpt lat="48.21681" lon="-3.052">
        <ele>238.083255</ele>
        <time>2023-05-03T13:38:07.431Z</time>
      </trkpt>
      <trkpt lat="48.21677" lon="-3.05187">
        <ele>237.82441</ele>
        <time>2023-05-03T13:38:11.431Z</time>
      </trkpt>
      <trkpt lat="48.21673" lon="-3.05174">
        <ele>237.580472</ele>
        <time>2023-05-03T13:38:14.438Z</time>
      </trkpt>
      <trkpt lat="48.21669" lon="-3.05159">
        <ele>237.480325</ele>
        <time>2023-05-03T13:38:17.438Z</time>
      </trkpt>
      <trkpt lat="48.21665" lon="-3.05145">
        <ele>237.405552</ele>
        <time>2023-05-03T13:38:20.434Z</time>
      </trkpt>
      <trkpt lat="48.21661" lon="-3.05131">
        <ele>237.327712</ele>
        <time>2023-05-03T13:38:23.436Z</time>
      </trkpt>
      <trkpt lat="48.21657" lon="-3.05117">
        <ele>237.246149</ele>
        <time>2023-05-03T13:38:26.431Z</time>
      </trkpt>
      <trkpt lat="48.21652" lon="-3.05102">
        <ele>237.1638</ele>
        <time>2023-05-03T13:38:29.433Z</time>
      </trkpt>
      <trkpt lat="48.21647" lon="-3.05086">
        <ele>237.073385</ele>
        <time>2023-05-03T13:38:32.439Z</time>
      </trkpt>
      <trkpt lat="48.21643" lon="-3.05071">
        <ele>236.990852</ele>
        <time>2023-05-03T13:38:35.435Z</time>
      </trkpt>
      <trkpt lat="48.21639" lon="-3.05057">
        <ele>236.912236</ele>
        <time>2023-05-03T13:38:38.441Z</time>
      </trkpt>
      <trkpt lat="48.21635" lon="-3.05042">
        <ele>236.828104</ele>
        <time>2023-05-03T13:38:41.429Z</time>
      </trkpt>
      <trkpt lat="48.2163" lon="-3.05028">
        <ele>236.752266</ele>
        <time>2023-05-03T13:38:44.439Z</time>
      </trkpt>
      <trkpt lat="48.21626" lon="-3.05014">
        <ele>236.675028</ele>
        <time>2023-05-03T13:38:47.432Z</time>
      </trkpt>
      <trkpt lat="48.21621" lon="-3.04998">
        <ele>236.585206</ele>
        <time>2023-05-03T13:38:50.432Z</time>
      </trkpt>
      <trkpt lat="48.21616" lon="-3.04982">
        <ele>236.492479</ele>
        <time>2023-05-03T13:38:53.434Z</time>
      </trkpt>
      <trkpt lat="48.21612" lon="-3.04964">
        <ele>236.39462</ele>
        <time>2023-05-03T13:38:56.436Z</time>
      </trkpt>
      <trkpt lat="48.21606" lon="-3.04947">
        <ele>236.300017</ele>
        <time>2023-05-03T13:38:59.432Z</time>
      </trkpt>
      <trkpt lat="48.216" lon="-3.04929">
        <ele>236.198821</ele>
        <time>2023-05-03T13:39:02.436Z</time>
      </trkpt>
      <trkpt lat="48.21594" lon="-3.0491">
        <ele>235.875078</ele>
        <time>2023-05-03T13:39:05.436Z</time>
      </trkpt>
      <trkpt lat="48.2159" lon="-3.04897">
        <ele>235.645089</ele>
        <time>2023-05-03T13:39:07.437Z</time>
      </trkpt>
      <trkpt lat="48.21585" lon="-3.0488">
        <ele>235.329179</ele>
        <time>2023-05-03T13:39:10.430Z</time>
      </trkpt>
      <trkpt lat="48.2158" lon="-3.04862">
        <ele>235.010211</ele>
        <time>2023-05-03T13:39:13.436Z</time>
      </trkpt>
      <trkpt lat="48.21576" lon="-3.0485">
        <ele>234.782318</ele>
        <time>2023-05-03T13:39:15.439Z</time>
      </trkpt>
      <trkpt lat="48.21573" lon="-3.04836">
        <ele>234.550177</ele>
        <time>2023-05-03T13:39:17.436Z</time>
      </trkpt>
      <trkpt lat="48.21567" lon="-3.04819">
        <ele>234.23173</ele>
        <time>2023-05-03T13:39:20.433Z</time>
      </trkpt>
      <trkpt lat="48.21562" lon="-3.04803">
        <ele>233.939265</ele>
        <time>2023-05-03T13:39:23.437Z</time>
      </trkpt>
      <trkpt lat="48.21558" lon="-3.04787">
        <ele>233.656502</ele>
        <time>2023-05-03T13:39:26.429Z</time>
      </trkpt>
      <trkpt lat="48.21553" lon="-3.0477">
        <ele>233.34188</ele>
        <time>2023-05-03T13:39:29.430Z</time>
      </trkpt>
      <trkpt lat="48.21547" lon="-3.04752">
        <ele>233.014299</ele>
        <time>2023-05-03T13:39:32.433Z</time>
      </trkpt>
      <trkpt lat="48.21541" lon="-3.04734">
        <ele>232.691812</ele>
        <time>2023-05-03T13:39:35.434Z</time>
      </trkpt>
      <trkpt lat="48.21536" lon="-3.04717">
        <ele>232.368685</ele>
        <time>2023-05-03T13:39:38.432Z</time>
      </trkpt>
      <trkpt lat="48.21531" lon="-3.04698">
        <ele>232.03597</ele>
        <time>2023-05-03T13:39:41.427Z</time>
      </trkpt>
      <trkpt lat="48.21527" lon="-3.04685">
        <ele>231.8115</ele>
        <time>2023-05-03T13:39:43.431Z</time>
      </trkpt>
      <trkpt lat="48.21524" lon="-3.04672">
        <ele>231.547689</ele>
        <time>2023-05-03T13:39:45.431Z</time>
      </trkpt>
      <trkpt lat="48.2152" lon="-3.04659">
        <ele>231.250608</ele>
        <time>2023-05-03T13:39:47.432Z</time>
      </trkpt>
      <trkpt lat="48.21518" lon="-3.04646">
        <ele>230.960363</ele>
        <time>2023-05-03T13:39:49.431Z</time>
      </trkpt>
      <trkpt lat="48.21512" lon="-3.04633">
        <ele>230.651846</ele>
        <time>2023-05-03T13:39:51.428Z</time>
      </trkpt>
      <trkpt lat="48.21509" lon="-3.0462">
        <ele>230.359242</ele>
        <time>2023-05-03T13:39:53.436Z</time>
      </trkpt>
      <trkpt lat="48.21504" lon="-3.04608">
        <ele>230.075333</ele>
        <time>2023-05-03T13:39:55.434Z</time>
      </trkpt>
      <trkpt lat="48.21499" lon="-3.04596">
        <ele>229.776957</ele>
        <time>2023-05-03T13:39:57.440Z</time>
      </trkpt>
      <trkpt lat="48.21495" lon="-3.04583">
        <ele>229.480729</ele>
        <time>2023-05-03T13:39:59.433Z</time>
      </trkpt>
      <trkpt lat="48.21492" lon="-3.0457">
        <ele>229.199569</ele>
        <time>2023-05-03T13:40:01.437Z</time>
      </trkpt>
      <trkpt lat="48.21487" lon="-3.04552">
        <ele>228.798871</ele>
        <time>2023-05-03T13:40:04.438Z</time>
      </trkpt>
      <trkpt lat="48.21486" lon="-3.04537">
        <ele>228.485662</ele>
        <time>2023-05-03T13:40:07.434Z</time>
      </trkpt>
      <trkpt lat="48.21484" lon="-3.04521">
        <ele>228.165113</ele>
        <time>2023-05-03T13:40:11.449Z</time>
      </trkpt>
      <trkpt lat="48.21481" lon="-3.04509">
        <ele>227.882051</ele>
        <time>2023-05-03T13:40:15.428Z</time>
      </trkpt>
      <trkpt lat="48.21478" lon="-3.04492">
        <ele>227.532196</ele>
        <time>2023-05-03T13:40:20.433Z</time>
      </trkpt>
      <trkpt lat="48.21477" lon="-3.04476">
        <ele>227.201868</ele>
        <time>2023-05-03T13:40:24.438Z</time>
      </trkpt>
      <trkpt lat="48.21476" lon="-3.04462">
        <ele>226.91887</ele>
        <time>2023-05-03T13:40:27.430Z</time>
      </trkpt>
      <trkpt lat="48.21476" lon="-3.04448">
        <ele>226.62787</ele>
        <time>2023-05-03T13:40:30.431Z</time>
      </trkpt>
      <trkpt lat="48.21476" lon="-3.04434">
        <ele>226.328967</ele>
        <time>2023-05-03T13:40:34.438Z</time>
      </trkpt>
      <trkpt lat="48.21477" lon="-3.0442">
        <ele>226.131787</ele>
        <time>2023-05-03T13:40:38.433Z</time>
      </trkpt>
      <trkpt lat="48.21479" lon="-3.04406">
        <ele>226.043205</ele>
        <time>2023-05-03T13:40:42.430Z</time>
      </trkpt>
      <trkpt lat="48.21482" lon="-3.0439">
        <ele>225.939176</ele>
        <time>2023-05-03T13:40:46.423Z</time>
      </trkpt>
      <trkpt lat="48.21484" lon="-3.04373">
        <ele>225.836785</ele>
        <time>2023-05-03T13:40:50.431Z</time>
      </trkpt>
      <trkpt lat="48.21488" lon="-3.04359">
        <ele>225.742927</ele>
        <time>2023-05-03T13:40:54.435Z</time>
      </trkpt>
      <trkpt lat="48.21492" lon="-3.04342">
        <ele>225.631868</ele>
        <time>2023-05-03T13:40:58.449Z</time>
      </trkpt>
      <trkpt lat="48.21494" lon="-3.04328">
        <ele>225.542954</ele>
        <time>2023-05-03T13:41:01.437Z</time>
      </trkpt>
      <trkpt lat="48.21499" lon="-3.04313">
        <ele>225.444868</ele>
        <time>2023-05-03T13:41:04.433Z</time>
      </trkpt>
      <trkpt lat="48.21503" lon="-3.043">
        <ele>225.349503</ele>
        <time>2023-05-03T13:41:07.427Z</time>
      </trkpt>
      <trkpt lat="48.21508" lon="-3.04285">
        <ele>225.246443</ele>
        <time>2023-05-03T13:41:10.428Z</time>
      </trkpt>
      <trkpt lat="48.21514" lon="-3.04269">
        <ele>225.138161</ele>
        <time>2023-05-03T13:41:13.446Z</time>
      </trkpt>
      <trkpt lat="48.21518" lon="-3.04255">
        <ele>225.042696</ele>
        <time>2023-05-03T13:41:16.436Z</time>
      </trkpt>
      <trkpt lat="48.21521" lon="-3.04241">
        <ele>224.956117</ele>
        <time>2023-05-03T13:41:19.436Z</time>
      </trkpt>
      <trkpt lat="48.21525" lon="-3.04225">
        <ele>224.849605</ele>
        <time>2023-05-03T13:41:23.447Z</time>
      </trkpt>
      <trkpt lat="48.2153" lon="-3.04213">
        <ele>224.763995</ele>
        <time>2023-05-03T13:41:26.440Z</time>
      </trkpt>
      <trkpt lat="48.21534" lon="-3.042">
        <ele>224.672032</ele>
        <time>2023-05-03T13:41:29.430Z</time>
      </trkpt>
      <trkpt lat="48.21539" lon="-3.04184">
        <ele>224.56795</ele>
        <time>2023-05-03T13:41:32.424Z</time>
      </trkpt>
      <trkpt lat="48.21544" lon="-3.0417">
        <ele>224.472787</ele>
        <time>2023-05-03T13:41:35.431Z</time>
      </trkpt>
      <trkpt lat="48.21549" lon="-3.04158">
        <ele>224.389265</ele>
        <time>2023-05-03T13:41:38.431Z</time>
      </trkpt>
      <trkpt lat="48.21552" lon="-3.04143">
        <ele>224.293867</ele>
        <time>2023-05-03T13:41:42.430Z</time>
      </trkpt>
      <trkpt lat="48.21556" lon="-3.04126">
        <ele>224.18864</ele>
        <time>2023-05-03T13:41:46.438Z</time>
      </trkpt>
      <trkpt lat="48.21559" lon="-3.04111">
        <ele>224.096475</ele>
        <time>2023-05-03T13:41:50.428Z</time>
      </trkpt>
      <trkpt lat="48.21561" lon="-3.04098">
        <ele>224.015899</ele>
        <time>2023-05-03T13:41:53.442Z</time>
      </trkpt>
      <trkpt lat="48.21563" lon="-3.04082">
        <ele>223.919599</ele>
        <time>2023-05-03T13:41:57.434Z</time>
      </trkpt>
      <trkpt lat="48.21565" lon="-3.04063">
        <ele>223.810557</ele>
        <time>2023-05-03T13:42:01.436Z</time>
      </trkpt>
      <trkpt lat="48.21565" lon="-3.04047">
        <ele>223.715642</ele>
        <time>2023-05-03T13:42:04.442Z</time>
      </trkpt>
      <trkpt lat="48.21565" lon="-3.04031">
        <ele>223.62132</ele>
        <time>2023-05-03T13:42:07.429Z</time>
      </trkpt>
      <trkpt lat="48.21564" lon="-3.04014">
        <ele>223.519736</ele>
        <time>2023-05-03T13:42:10.427Z</time>
      </trkpt>
      <trkpt lat="48.21564" lon="-3.03998">
        <ele>223.424722</ele>
        <time>2023-05-03T13:42:13.439Z</time>
      </trkpt>
      <trkpt lat="48.21562" lon="-3.03984">
        <ele>223.340548</ele>
        <time>2023-05-03T13:42:16.433Z</time>
      </trkpt>
      <trkpt lat="48.21557" lon="-3.0397">
        <ele>223.249923</ele>
        <time>2023-05-03T13:42:21.430Z</time>
      </trkpt>
      <trkpt lat="48.21548" lon="-3.03966">
        <ele>223.166451</ele>
        <time>2023-05-03T13:42:28.425Z</time>
      </trkpt>
      <trkpt lat="48.21542" lon="-3.03954">
        <ele>223.0798</ele>
        <time>2023-05-03T13:42:32.427Z</time>
      </trkpt>
      <trkpt lat="48.2154" lon="-3.03939">
        <ele>222.987139</ele>
        <time>2023-05-03T13:42:35.428Z</time>
      </trkpt>
      <trkpt lat="48.21538" lon="-3.03921">
        <ele>222.938785</ele>
        <time>2023-05-03T13:42:38.427Z</time>
      </trkpt>
      <trkpt lat="48.21535" lon="-3.03903">
        <ele>222.994427</ele>
        <time>2023-05-03T13:42:41.432Z</time>
      </trkpt>
      <trkpt lat="48.21533" lon="-3.03887">
        <ele>223.044139</ele>
        <time>2023-05-03T13:42:44.436Z</time>
      </trkpt>
      <trkpt lat="48.2153" lon="-3.03872">
        <ele>223.093314</ele>
        <time>2023-05-03T13:42:48.425Z</time>
      </trkpt>
      <trkpt lat="48.21526" lon="-3.03856">
        <ele>223.143496</ele>
        <time>2023-05-03T13:42:53.430Z</time>
      </trkpt>
      <trkpt lat="48.21524" lon="-3.03842">
        <ele>223.185022</ele>
        <time>2023-05-03T13:42:57.430Z</time>
      </trkpt>
      <trkpt lat="48.21521" lon="-3.03827">
        <ele>223.235112</ele>
        <time>2023-05-03T13:43:01.437Z</time>
      </trkpt>
      <trkpt lat="48.21518" lon="-3.03812">
        <ele>223.281163</ele>
        <time>2023-05-03T13:43:04.436Z</time>
      </trkpt>
      <trkpt lat="48.21515" lon="-3.03797">
        <ele>223.328392</ele>
        <time>2023-05-03T13:43:08.427Z</time>
      </trkpt>
      <trkpt lat="48.2151" lon="-3.03784">
        <ele>223.374724</ele>
        <time>2023-05-03T13:43:12.433Z</time>
      </trkpt>
      <trkpt lat="48.21505" lon="-3.03772">
        <ele>223.416134</ele>
        <time>2023-05-03T13:43:15.430Z</time>
      </trkpt>
      <trkpt lat="48.21502" lon="-3.03759">
        <ele>223.458696</ele>
        <time>2023-05-03T13:43:18.428Z</time>
      </trkpt>
      <trkpt lat="48.215" lon="-3.03746">
        <ele>223.499878</ele>
        <time>2023-05-03T13:43:21.436Z</time>
      </trkpt>
      <trkpt lat="48.21497" lon="-3.0373">
        <ele>223.549728</ele>
        <time>2023-05-03T13:43:25.434Z</time>
      </trkpt>
      <trkpt lat="48.21493" lon="-3.03716">
        <ele>223.596226</ele>
        <time>2023-05-03T13:43:29.432Z</time>
      </trkpt>
      <trkpt lat="48.2149" lon="-3.03701">
        <ele>223.64167</ele>
        <time>2023-05-03T13:43:33.430Z</time>
      </trkpt>
      <trkpt lat="48.21488" lon="-3.03687">
        <ele>223.687069</ele>
        <time>2023-05-03T13:43:37.441Z</time>
      </trkpt>
      <trkpt lat="48.21484" lon="-3.0367">
        <ele>223.725487</ele>
        <time>2023-05-03T13:43:41.433Z</time>
      </trkpt>
      <trkpt lat="48.21481" lon="-3.03655">
        <ele>223.621315</ele>
        <time>2023-05-03T13:43:44.436Z</time>
      </trkpt>
      <trkpt lat="48.21479" lon="-3.0364">
        <ele>223.518432</ele>
        <time>2023-05-03T13:43:47.432Z</time>
      </trkpt>
      <trkpt lat="48.21482" lon="-3.03625">
        <ele>223.412755</ele>
        <time>2023-05-03T13:43:51.434Z</time>
      </trkpt>
      <trkpt lat="48.21488" lon="-3.03615">
        <ele>223.32103</ele>
        <time>2023-05-03T13:43:55.437Z</time>
      </trkpt>
      <trkpt lat="48.21492" lon="-3.036">
        <ele>223.214305</ele>
        <time>2023-05-03T13:43:59.429Z</time>
      </trkpt>
      <trkpt lat="48.21492" lon="-3.03584">
        <ele>223.108661</ele>
        <time>2023-05-03T13:44:03.429Z</time>
      </trkpt>
      <trkpt lat="48.21492" lon="-3.03567">
        <ele>222.992093</ele>
        <time>2023-05-03T13:44:07.433Z</time>
      </trkpt>
      <trkpt lat="48.21491" lon="-3.03553">
        <ele>222.895611</ele>
        <time>2023-05-03T13:44:10.429Z</time>
      </trkpt>
      <trkpt lat="48.21491" lon="-3.03538">
        <ele>222.800039</ele>
        <time>2023-05-03T13:44:13.429Z</time>
      </trkpt>
      <trkpt lat="48.21491" lon="-3.03524">
        <ele>222.701791</ele>
        <time>2023-05-03T13:44:16.435Z</time>
      </trkpt>
      <trkpt lat="48.21491" lon="-3.03509">
        <ele>222.603503</ele>
        <time>2023-05-03T13:44:19.433Z</time>
      </trkpt>
      <trkpt lat="48.21491" lon="-3.03495">
        <ele>222.506601</ele>
        <time>2023-05-03T13:44:22.434Z</time>
      </trkpt>
      <trkpt lat="48.21491" lon="-3.03481">
        <ele>222.411702</ele>
        <time>2023-05-03T13:44:25.438Z</time>
      </trkpt>
      <trkpt lat="48.21492" lon="-3.03467">
        <ele>222.318645</ele>
        <time>2023-05-03T13:44:28.428Z</time>
      </trkpt>
      <trkpt lat="48.21492" lon="-3.0345">
        <ele>222.206781</ele>
        <time>2023-05-03T13:44:32.432Z</time>
      </trkpt>
      <trkpt lat="48.21492" lon="-3.03436">
        <ele>222.110552</ele>
        <time>2023-05-03T13:44:36.431Z</time>
      </trkpt>
      <trkpt lat="48.21493" lon="-3.03422">
        <ele>222.019707</ele>
        <time>2023-05-03T13:44:39.432Z</time>
      </trkpt>
      <trkpt lat="48.21494" lon="-3.03406">
        <ele>221.902243</ele>
        <time>2023-05-03T13:44:42.428Z</time>
      </trkpt>
      <trkpt lat="48.21495" lon="-3.03389">
        <ele>221.764538</ele>
        <time>2023-05-03T13:44:45.433Z</time>
      </trkpt>
      <trkpt lat="48.21496" lon="-3.03373">
        <ele>221.636167</ele>
        <time>2023-05-03T13:44:48.430Z</time>
      </trkpt>
      <trkpt lat="48.21496" lon="-3.03357">
        <ele>221.504013</ele>
        <time>2023-05-03T13:44:51.438Z</time>
      </trkpt>
      <trkpt lat="48.21498" lon="-3.0334">
        <ele>221.371772</ele>
        <time>2023-05-03T13:44:54.436Z</time>
      </trkpt>
      <trkpt lat="48.21499" lon="-3.03323">
        <ele>221.230544</ele>
        <time>2023-05-03T13:44:57.436Z</time>
      </trkpt>
      <trkpt lat="48.21502" lon="-3.03306">
        <ele>221.091431</ele>
        <time>2023-05-03T13:45:00.436Z</time>
      </trkpt>
      <trkpt lat="48.21505" lon="-3.0329">
        <ele>220.955318</ele>
        <time>2023-05-03T13:45:03.430Z</time>
      </trkpt>
      <trkpt lat="48.21508" lon="-3.03274">
        <ele>220.82187</ele>
        <time>2023-05-03T13:45:06.434Z</time>
      </trkpt>
      <trkpt lat="48.2151" lon="-3.03258">
        <ele>220.685678</ele>
        <time>2023-05-03T13:45:09.431Z</time>
      </trkpt>
      <trkpt lat="48.21514" lon="-3.03242">
        <ele>220.546667</ele>
        <time>2023-05-03T13:45:12.436Z</time>
      </trkpt>
      <trkpt lat="48.21517" lon="-3.03225">
        <ele>220.408801</ele>
        <time>2023-05-03T13:45:15.435Z</time>
      </trkpt>
      <trkpt lat="48.21522" lon="-3.0321">
        <ele>220.271846</ele>
        <time>2023-05-03T13:45:18.431Z</time>
      </trkpt>
      <trkpt lat="48.21526" lon="-3.03195">
        <ele>220.144597</ele>
        <time>2023-05-03T13:45:21.437Z</time>
      </trkpt>
      <trkpt lat="48.21529" lon="-3.03181">
        <ele>220.018229</ele>
        <time>2023-05-03T13:45:24.440Z</time>
      </trkpt>
      <trkpt lat="48.21533" lon="-3.03167">
        <ele>219.899882</ele>
        <time>2023-05-03T13:45:27.431Z</time>
      </trkpt>
      <trkpt lat="48.21537" lon="-3.03154">
        <ele>219.782993</ele>
        <time>2023-05-03T13:45:30.431Z</time>
      </trkpt>
      <trkpt lat="48.2154" lon="-3.03141">
        <ele>219.609537</ele>
        <time>2023-05-03T13:45:33.427Z</time>
      </trkpt>
      <trkpt lat="48.21543" lon="-3.03128">
        <ele>219.39513</ele>
        <time>2023-05-03T13:45:36.435Z</time>
      </trkpt>
      <trkpt lat="48.21548" lon="-3.03115">
        <ele>219.154776</ele>
        <time>2023-05-03T13:45:40.437Z</time>
      </trkpt>
      <trkpt lat="48.21552" lon="-3.03101">
        <ele>218.907972</ele>
        <time>2023-05-03T13:45:46.428Z</time>
      </trkpt>
      <trkpt lat="48.21558" lon="-3.03088">
        <ele>218.659964</ele>
        <time>2023-05-03T13:45:50.431Z</time>
      </trkpt>
      <trkpt lat="48.21564" lon="-3.03073">
        <ele>218.398403</ele>
        <time>2023-05-03T13:45:54.430Z</time>
      </trkpt>
      <trkpt lat="48.21569" lon="-3.0306">
        <ele>218.154111</ele>
        <time>2023-05-03T13:45:58.430Z</time>
      </trkpt>
      <trkpt lat="48.21574" lon="-3.03045">
        <ele>217.891361</ele>
        <time>2023-05-03T13:46:02.426Z</time>
      </trkpt>
      <trkpt lat="48.21579" lon="-3.03029">
        <ele>217.607348</ele>
        <time>2023-05-03T13:46:06.430Z</time>
      </trkpt>
      <trkpt lat="48.21584" lon="-3.03017">
        <ele>217.37501</ele>
        <time>2023-05-03T13:46:09.429Z</time>
      </trkpt>
      <trkpt lat="48.21589" lon="-3.03004">
        <ele>217.149318</ele>
        <time>2023-05-03T13:46:12.430Z</time>
      </trkpt>
      <trkpt lat="48.21594" lon="-3.02988">
        <ele>216.867134</ele>
        <time>2023-05-03T13:46:16.433Z</time>
      </trkpt>
      <trkpt lat="48.216" lon="-3.02973">
        <ele>216.582984</ele>
        <time>2023-05-03T13:46:20.427Z</time>
      </trkpt>
      <trkpt lat="48.21605" lon="-3.0296">
        <ele>216.34623</ele>
        <time>2023-05-03T13:46:23.428Z</time>
      </trkpt>
      <trkpt lat="48.21611" lon="-3.02947">
        <ele>216.099549</ele>
        <time>2023-05-03T13:46:26.435Z</time>
      </trkpt>
      <trkpt lat="48.21615" lon="-3.02935">
        <ele>215.874966</ele>
        <time>2023-05-03T13:46:29.430Z</time>
      </trkpt>
      <trkpt lat="48.21621" lon="-3.02919">
        <ele>215.590665</ele>
        <time>2023-05-03T13:46:33.429Z</time>
      </trkpt>
      <trkpt lat="48.21627" lon="-3.02906">
        <ele>215.417022</ele>
        <time>2023-05-03T13:46:36.437Z</time>
      </trkpt>
      <trkpt lat="48.21632" lon="-3.02893">
        <ele>215.323155</ele>
        <time>2023-05-03T13:46:39.429Z</time>
      </trkpt>
      <trkpt lat="48.21637" lon="-3.0288">
        <ele>215.236655</ele>
        <time>2023-05-03T13:46:42.433Z</time>
      </trkpt>
      <trkpt lat="48.21641" lon="-3.02866">
        <ele>215.147016</ele>
        <time>2023-05-03T13:46:45.432Z</time>
      </trkpt>
      <trkpt lat="48.21647" lon="-3.02855">
        <ele>215.06215</ele>
        <time>2023-05-03T13:46:48.429Z</time>
      </trkpt>
      <trkpt lat="48.21652" lon="-3.02841">
        <ele>214.969806</ele>
        <time>2023-05-03T13:46:51.433Z</time>
      </trkpt>
      <trkpt lat="48.21657" lon="-3.02827">
        <ele>214.87458</ele>
        <time>2023-05-03T13:46:54.434Z</time>
      </trkpt>
      <trkpt lat="48.21662" lon="-3.02814">
        <ele>214.788446</ele>
        <time>2023-05-03T13:46:57.436Z</time>
      </trkpt>
      <trkpt lat="48.21667" lon="-3.02801">
        <ele>214.697071</ele>
        <time>2023-05-03T13:47:00.433Z</time>
      </trkpt>
      <trkpt lat="48.21672" lon="-3.02787">
        <ele>214.605582</ele>
        <time>2023-05-03T13:47:03.427Z</time>
      </trkpt>
      <trkpt lat="48.21677" lon="-3.02774">
        <ele>214.512967</ele>
        <time>2023-05-03T13:47:06.433Z</time>
      </trkpt>
      <trkpt lat="48.21682" lon="-3.0276">
        <ele>214.417498</ele>
        <time>2023-05-03T13:47:09.428Z</time>
      </trkpt>
      <trkpt lat="48.21687" lon="-3.02746">
        <ele>214.322983</ele>
        <time>2023-05-03T13:47:12.435Z</time>
      </trkpt>
      <trkpt lat="48.21693" lon="-3.02732">
        <ele>214.223789</ele>
        <time>2023-05-03T13:47:15.435Z</time>
      </trkpt>
      <trkpt lat="48.21698" lon="-3.02717">
        <ele>214.125732</ele>
        <time>2023-05-03T13:47:18.425Z</time>
      </trkpt>
      <trkpt lat="48.21704" lon="-3.02703">
        <ele>214.028408</ele>
        <time>2023-05-03T13:47:21.432Z</time>
      </trkpt>
      <trkpt lat="48.21709" lon="-3.0269">
        <ele>213.936978</ele>
        <time>2023-05-03T13:47:24.434Z</time>
      </trkpt>
      <trkpt lat="48.21714" lon="-3.02676">
        <ele>213.843518</ele>
        <time>2023-05-03T13:47:27.431Z</time>
      </trkpt>
      <trkpt lat="48.21719" lon="-3.02662">
        <ele>213.705921</ele>
        <time>2023-05-03T13:47:30.426Z</time>
      </trkpt>
      <trkpt lat="48.21724" lon="-3.02647">
        <ele>213.568693</ele>
        <time>2023-05-03T13:47:33.438Z</time>
      </trkpt>
      <trkpt lat="48.21727" lon="-3.02633">
        <ele>213.445248</ele>
        <time>2023-05-03T13:47:36.432Z</time>
      </trkpt>
      <trkpt lat="48.21731" lon="-3.02618">
        <ele>213.314242</ele>
        <time>2023-05-03T13:47:39.430Z</time>
      </trkpt>
      <trkpt lat="48.21734" lon="-3.02604">
        <ele>213.188799</ele>
        <time>2023-05-03T13:47:42.434Z</time>
      </trkpt>
      <trkpt lat="48.21738" lon="-3.02587">
        <ele>213.041269</ele>
        <time>2023-05-03T13:47:45.431Z</time>
      </trkpt>
      <trkpt lat="48.2174" lon="-3.0257">
        <ele>212.890979</ele>
        <time>2023-05-03T13:47:48.428Z</time>
      </trkpt>
      <trkpt lat="48.21741" lon="-3.02553">
        <ele>212.75231</ele>
        <time>2023-05-03T13:47:51.431Z</time>
      </trkpt>
      <trkpt lat="48.21741" lon="-3.02535">
        <ele>212.599493</ele>
        <time>2023-05-03T13:47:54.424Z</time>
      </trkpt>
      <trkpt lat="48.21741" lon="-3.02516">
        <ele>212.43938</ele>
        <time>2023-05-03T13:47:57.437Z</time>
      </trkpt>
      <trkpt lat="48.21741" lon="-3.02502">
        <ele>212.325888</ele>
        <time>2023-05-03T13:47:59.427Z</time>
      </trkpt>
      <trkpt lat="48.21738" lon="-3.02483">
        <ele>212.161729</ele>
        <time>2023-05-03T13:48:02.434Z</time>
      </trkpt>
      <trkpt lat="48.21734" lon="-3.02465">
        <ele>212.009459</ele>
        <time>2023-05-03T13:48:05.434Z</time>
      </trkpt>
      <trkpt lat="48.21731" lon="-3.0245">
        <ele>211.871408</ele>
        <time>2023-05-03T13:48:08.427Z</time>
      </trkpt>
      <trkpt lat="48.21726" lon="-3.02434">
        <ele>211.729337</ele>
        <time>2023-05-03T13:48:11.436Z</time>
      </trkpt>
      <trkpt lat="48.21721" lon="-3.02419">
        <ele>211.571052</ele>
        <time>2023-05-03T13:48:14.429Z</time>
      </trkpt>
      <trkpt lat="48.21715" lon="-3.02405">
        <ele>211.241459</ele>
        <time>2023-05-03T13:48:17.426Z</time>
      </trkpt>
      <trkpt lat="48.21709" lon="-3.02391">
        <ele>210.918563</ele>
        <time>2023-05-03T13:48:20.435Z</time>
      </trkpt>
      <trkpt lat="48.21702" lon="-3.02377">
        <ele>210.559127</ele>
        <time>2023-05-03T13:48:23.438Z</time>
      </trkpt>
      <trkpt lat="48.21695" lon="-3.02364">
        <ele>210.259727</ele>
        <time>2023-05-03T13:48:26.429Z</time>
      </trkpt>
      <trkpt lat="48.21688" lon="-3.02355">
        <ele>209.972229</ele>
        <time>2023-05-03T13:48:29.428Z</time>
      </trkpt>
      <trkpt lat="48.21681" lon="-3.02345">
        <ele>209.6817</ele>
        <time>2023-05-03T13:48:32.434Z</time>
      </trkpt>
      <trkpt lat="48.21674" lon="-3.02333">
        <ele>209.382859</ele>
        <time>2023-05-03T13:48:35.444Z</time>
      </trkpt>
      <trkpt lat="48.21666" lon="-3.02322">
        <ele>209.067728</ele>
        <time>2023-05-03T13:48:38.432Z</time>
      </trkpt>
      <trkpt lat="48.21658" lon="-3.02312">
        <ele>208.766775</ele>
        <time>2023-05-03T13:48:41.431Z</time>
      </trkpt>
      <trkpt lat="48.21652" lon="-3.02302">
        <ele>208.498449</ele>
        <time>2023-05-03T13:48:44.429Z</time>
      </trkpt>
      <trkpt lat="48.21643" lon="-3.02289">
        <ele>208.130951</ele>
        <time>2023-05-03T13:48:48.427Z</time>
      </trkpt>
      <trkpt lat="48.21634" lon="-3.02277">
        <ele>207.794453</ele>
        <time>2023-05-03T13:48:51.436Z</time>
      </trkpt>
      <trkpt lat="48.21627" lon="-3.02264">
        <ele>207.453859</ele>
        <time>2023-05-03T13:48:55.430Z</time>
      </trkpt>
      <trkpt lat="48.2162" lon="-3.02252">
        <ele>207.144361</ele>
        <time>2023-05-03T13:48:59.430Z</time>
      </trkpt>
      <trkpt lat="48.21613" lon="-3.02241">
        <ele>206.857196</ele>
        <time>2023-05-03T13:49:02.437Z</time>
      </trkpt>
      <trkpt lat="48.21607" lon="-3.0223">
        <ele>206.569074</ele>
        <time>2023-05-03T13:49:06.432Z</time>
      </trkpt>
      <trkpt lat="48.21601" lon="-3.02219">
        <ele>206.293367</ele>
        <time>2023-05-03T13:49:10.428Z</time>
      </trkpt>
      <trkpt lat="48.21593" lon="-3.02207">
        <ele>205.97689</ele>
        <time>2023-05-03T13:49:14.428Z</time>
      </trkpt>
      <trkpt lat="48.21587" lon="-3.02197">
        <ele>205.719224</ele>
        <time>2023-05-03T13:49:17.435Z</time>
      </trkpt>
      <trkpt lat="48.2158" lon="-3.02183">
        <ele>205.392936</ele>
        <time>2023-05-03T13:49:21.433Z</time>
      </trkpt>
      <trkpt lat="48.21574" lon="-3.02171">
        <ele>205.123484</ele>
        <time>2023-05-03T13:49:24.428Z</time>
      </trkpt>
      <trkpt lat="48.21569" lon="-3.0216">
        <ele>204.859085</ele>
        <time>2023-05-03T13:49:27.431Z</time>
      </trkpt>
      <trkpt lat="48.21565" lon="-3.02147">
        <ele>204.590853</ele>
        <time>2023-05-03T13:49:30.428Z</time>
      </trkpt>
      <trkpt lat="48.2156" lon="-3.02135">
        <ele>204.33436</ele>
        <time>2023-05-03T13:49:33.435Z</time>
      </trkpt>
      <trkpt lat="48.21555" lon="-3.02119">
        <ele>203.99701</ele>
        <time>2023-05-03T13:49:37.433Z</time>
      </trkpt>
      <trkpt lat="48.21551" lon="-3.02103">
        <ele>203.669998</ele>
        <time>2023-05-03T13:49:41.430Z</time>
      </trkpt>
      <trkpt lat="48.21547" lon="-3.02088">
        <ele>203.36867</ele>
        <time>2023-05-03T13:49:45.436Z</time>
      </trkpt>
      <trkpt lat="48.21543" lon="-3.02075">
        <ele>203.10283</ele>
        <time>2023-05-03T13:49:48.428Z</time>
      </trkpt>
      <trkpt lat="48.2154" lon="-3.02059">
        <ele>202.790349</ele>
        <time>2023-05-03T13:49:51.433Z</time>
      </trkpt>
      <trkpt lat="48.21537" lon="-3.02042">
        <ele>202.466245</ele>
        <time>2023-05-03T13:49:54.418Z</time>
      </trkpt>
      <trkpt lat="48.21534" lon="-3.02026">
        <ele>202.160995</ele>
        <time>2023-05-03T13:49:57.426Z</time>
      </trkpt>
      <trkpt lat="48.21532" lon="-3.02011">
        <ele>201.868139</ele>
        <time>2023-05-03T13:50:00.437Z</time>
      </trkpt>
      <trkpt lat="48.21529" lon="-3.01995">
        <ele>201.546354</ele>
        <time>2023-05-03T13:50:04.428Z</time>
      </trkpt>
      <trkpt lat="48.21526" lon="-3.01979">
        <ele>201.246169</ele>
        <time>2023-05-03T13:50:08.426Z</time>
      </trkpt>
      <trkpt lat="48.21524" lon="-3.01962">
        <ele>201.006131</ele>
        <time>2023-05-03T13:50:12.434Z</time>
      </trkpt>
      <trkpt lat="48.21521" lon="-3.01948">
        <ele>200.815846</ele>
        <time>2023-05-03T13:50:15.430Z</time>
      </trkpt>
      <trkpt lat="48.2152" lon="-3.01934">
        <ele>200.611123</ele>
        <time>2023-05-03T13:50:18.430Z</time>
      </trkpt>
      <trkpt lat="48.21517" lon="-3.01919">
        <ele>200.406458</ele>
        <time>2023-05-03T13:50:21.432Z</time>
      </trkpt>
      <trkpt lat="48.21514" lon="-3.01906">
        <ele>200.204353</ele>
        <time>2023-05-03T13:50:24.429Z</time>
      </trkpt>
      <trkpt lat="48.21513" lon="-3.01891">
        <ele>200.000343</ele>
        <time>2023-05-03T13:50:27.431Z</time>
      </trkpt>
      <trkpt lat="48.21511" lon="-3.01876">
        <ele>199.790888</ele>
        <time>2023-05-03T13:50:30.428Z</time>
      </trkpt>
      <trkpt lat="48.21508" lon="-3.01861">
        <ele>199.580369</ele>
        <time>2023-05-03T13:50:33.431Z</time>
      </trkpt>
      <trkpt lat="48.21506" lon="-3.01845">
        <ele>199.347932</ele>
        <time>2023-05-03T13:50:36.434Z</time>
      </trkpt>
      <trkpt lat="48.21503" lon="-3.01827">
        <ele>199.09219</ele>
        <time>2023-05-03T13:50:39.430Z</time>
      </trkpt>
      <trkpt lat="48.21501" lon="-3.01808">
        <ele>198.835418</ele>
        <time>2023-05-03T13:50:42.431Z</time>
      </trkpt>
      <trkpt lat="48.21499" lon="-3.01791">
        <ele>198.591601</ele>
        <time>2023-05-03T13:50:45.433Z</time>
      </trkpt>
      <trkpt lat="48.21497" lon="-3.01774">
        <ele>198.350861</ele>
        <time>2023-05-03T13:50:48.428Z</time>
      </trkpt>
      <trkpt lat="48.21494" lon="-3.01757">
        <ele>198.109408</ele>
        <time>2023-05-03T13:50:51.437Z</time>
      </trkpt>
      <trkpt lat="48.21492" lon="-3.01741">
        <ele>197.889393</ele>
        <time>2023-05-03T13:50:54.428Z</time>
      </trkpt>
      <trkpt lat="48.2149" lon="-3.01724">
        <ele>197.653391</ele>
        <time>2023-05-03T13:50:57.433Z</time>
      </trkpt>
      <trkpt lat="48.21487" lon="-3.01708">
        <ele>197.488963</ele>
        <time>2023-05-03T13:51:00.437Z</time>
      </trkpt>
      <trkpt lat="48.21485" lon="-3.01694">
        <ele>197.388509</ele>
        <time>2023-05-03T13:51:03.426Z</time>
      </trkpt>
      <trkpt lat="48.21484" lon="-3.0168">
        <ele>197.295333</ele>
        <time>2023-05-03T13:51:06.427Z</time>
      </trkpt>
      <trkpt lat="48.21482" lon="-3.01665">
        <ele>197.195843</ele>
        <time>2023-05-03T13:51:09.429Z</time>
      </trkpt>
      <trkpt lat="48.21481" lon="-3.01648">
        <ele>197.082348</ele>
        <time>2023-05-03T13:51:12.429Z</time>
      </trkpt>
      <trkpt lat="48.21482" lon="-3.0163">
        <ele>196.967062</ele>
        <time>2023-05-03T13:51:15.435Z</time>
      </trkpt>
      <trkpt lat="48.21483" lon="-3.01614">
        <ele>196.855678</ele>
        <time>2023-05-03T13:51:18.428Z</time>
      </trkpt>
      <trkpt lat="48.21483" lon="-3.01598">
        <ele>196.751596</ele>
        <time>2023-05-03T13:51:21.437Z</time>
      </trkpt>
      <trkpt lat="48.21485" lon="-3.01584">
        <ele>196.656947</ele>
        <time>2023-05-03T13:51:24.428Z</time>
      </trkpt>
      <trkpt lat="48.21487" lon="-3.01567">
        <ele>196.543569</ele>
        <time>2023-05-03T13:51:28.427Z</time>
      </trkpt>
      <trkpt lat="48.2149" lon="-3.01553">
        <ele>196.447654</ele>
        <time>2023-05-03T13:51:32.431Z</time>
      </trkpt>
      <trkpt lat="48.21493" lon="-3.0154">
        <ele>196.356208</ele>
        <time>2023-05-03T13:51:37.430Z</time>
      </trkpt>
      <trkpt lat="48.21498" lon="-3.01523">
        <ele>196.234318</ele>
        <time>2023-05-03T13:51:41.429Z</time>
      </trkpt>
      <trkpt lat="48.21502" lon="-3.01508">
        <ele>196.12292</ele>
        <time>2023-05-03T13:51:44.421Z</time>
      </trkpt>
      <trkpt lat="48.21511" lon="-3.0148">
        <ele>195.913443</ele>
        <time>2023-05-03T13:54:28.427Z</time>
      </trkpt>
      <trkpt lat="48.21516" lon="-3.01464">
        <ele>195.799193</ele>
        <time>2023-05-03T13:54:32.433Z</time>
      </trkpt>
      <trkpt lat="48.21521" lon="-3.01451">
        <ele>195.704927</ele>
        <time>2023-05-03T13:54:35.424Z</time>
      </trkpt>
      <trkpt lat="48.21526" lon="-3.01439">
        <ele>195.612915</ele>
        <time>2023-05-03T13:54:38.430Z</time>
      </trkpt>
      <trkpt lat="48.21531" lon="-3.01426">
        <ele>195.518656</ele>
        <time>2023-05-03T13:54:42.427Z</time>
      </trkpt>
      <trkpt lat="48.21537" lon="-3.01411">
        <ele>195.415397</ele>
        <time>2023-05-03T13:54:46.429Z</time>
      </trkpt>
      <trkpt lat="48.2154" lon="-3.01398">
        <ele>195.328075</ele>
        <time>2023-05-03T13:54:49.426Z</time>
      </trkpt>
      <trkpt lat="48.21545" lon="-3.01385">
        <ele>195.232093</ele>
        <time>2023-05-03T13:54:52.430Z</time>
      </trkpt>
      <trkpt lat="48.2155" lon="-3.01371">
        <ele>195.133468</ele>
        <time>2023-05-03T13:54:55.426Z</time>
      </trkpt>
      <trkpt lat="48.21555" lon="-3.01358">
        <ele>195.041672</ele>
        <time>2023-05-03T13:54:58.430Z</time>
      </trkpt>
      <trkpt lat="48.21559" lon="-3.01344">
        <ele>194.945746</ele>
        <time>2023-05-03T13:55:01.439Z</time>
      </trkpt>
      <trkpt lat="48.21564" lon="-3.0133">
        <ele>194.850791</ele>
        <time>2023-05-03T13:55:04.430Z</time>
      </trkpt>
      <trkpt lat="48.21568" lon="-3.01315">
        <ele>194.748083</ele>
        <time>2023-05-03T13:55:07.434Z</time>
      </trkpt>
      <trkpt lat="48.21572" lon="-3.01301">
        <ele>194.65013</ele>
        <time>2023-05-03T13:55:10.424Z</time>
      </trkpt>
      <trkpt lat="48.21575" lon="-3.01287">
        <ele>194.557072</ele>
        <time>2023-05-03T13:55:13.431Z</time>
      </trkpt>
      <trkpt lat="48.21578" lon="-3.01273">
        <ele>194.466815</ele>
        <time>2023-05-03T13:55:16.441Z</time>
      </trkpt>
      <trkpt lat="48.2158" lon="-3.01258">
        <ele>194.371106</ele>
        <time>2023-05-03T13:55:19.428Z</time>
      </trkpt>
      <trkpt lat="48.21582" lon="-3.01244">
        <ele>194.27964</ele>
        <time>2023-05-03T13:55:22.434Z</time>
      </trkpt>
      <trkpt lat="48.21583" lon="-3.0123">
        <ele>194.193592</ele>
        <time>2023-05-03T13:55:25.423Z</time>
      </trkpt>
      <trkpt lat="48.21585" lon="-3.01216">
        <ele>194.107319</ele>
        <time>2023-05-03T13:55:28.418Z</time>
      </trkpt>
      <trkpt lat="48.21586" lon="-3.01202">
        <ele>194.026021</ele>
        <time>2023-05-03T13:55:31.436Z</time>
      </trkpt>
      <trkpt lat="48.21585" lon="-3.01188">
        <ele>193.954432</ele>
        <time>2023-05-03T13:55:34.427Z</time>
      </trkpt>
      <trkpt lat="48.21583" lon="-3.01174">
        <ele>193.873505</ele>
        <time>2023-05-03T13:55:37.431Z</time>
      </trkpt>
      <trkpt lat="48.21581" lon="-3.01158">
        <ele>193.788745</ele>
        <time>2023-05-03T13:55:40.425Z</time>
      </trkpt>
      <trkpt lat="48.21579" lon="-3.01142">
        <ele>193.702238</ele>
        <time>2023-05-03T13:55:43.431Z</time>
      </trkpt>
      <trkpt lat="48.21575" lon="-3.01125">
        <ele>193.606574</ele>
        <time>2023-05-03T13:55:46.435Z</time>
      </trkpt>
      <trkpt lat="48.21572" lon="-3.01109">
        <ele>193.519728</ele>
        <time>2023-05-03T13:55:49.429Z</time>
      </trkpt>
      <trkpt lat="48.21568" lon="-3.01095">
        <ele>193.4409</ele>
        <time>2023-05-03T13:55:52.434Z</time>
      </trkpt>
      <trkpt lat="48.21561" lon="-3.01081">
        <ele>193.35018</ele>
        <time>2023-05-03T13:55:55.428Z</time>
      </trkpt>
      <trkpt lat="48.21556" lon="-3.01069">
        <ele>193.274423</ele>
        <time>2023-05-03T13:55:58.428Z</time>
      </trkpt>
      <trkpt lat="48.2155" lon="-3.01057">
        <ele>193.194981</ele>
        <time>2023-05-03T13:56:01.431Z</time>
      </trkpt>
      <trkpt lat="48.21544" lon="-3.01044">
        <ele>193.112606</ele>
        <time>2023-05-03T13:56:04.431Z</time>
      </trkpt>
      <trkpt lat="48.21537" lon="-3.01029">
        <ele>193.01483</ele>
        <time>2023-05-03T13:56:08.427Z</time>
      </trkpt>
      <trkpt lat="48.21532" lon="-3.01017">
        <ele>192.93677</ele>
        <time>2023-05-03T13:56:11.438Z</time>
      </trkpt>
      <trkpt lat="48.21524" lon="-3.01004">
        <ele>192.846302</ele>
        <time>2023-05-03T13:56:15.420Z</time>
      </trkpt>
      <trkpt lat="48.21516" lon="-3.00992">
        <ele>192.754422</ele>
        <time>2023-05-03T13:56:18.428Z</time>
      </trkpt>
      <trkpt lat="48.2151" lon="-3.0098">
        <ele>192.679907</ele>
        <time>2023-05-03T13:56:21.434Z</time>
      </trkpt>
      <trkpt lat="48.21502" lon="-3.00967">
        <ele>192.71958</ele>
        <time>2023-05-03T13:56:24.433Z</time>
      </trkpt>
      <trkpt lat="48.21495" lon="-3.00955">
        <ele>192.826807</ele>
        <time>2023-05-03T13:56:27.431Z</time>
      </trkpt>
      <trkpt lat="48.21488" lon="-3.00946">
        <ele>192.91557</ele>
        <time>2023-05-03T13:56:30.427Z</time>
      </trkpt>
      <trkpt lat="48.21479" lon="-3.00933">
        <ele>193.036357</ele>
        <time>2023-05-03T13:56:34.432Z</time>
      </trkpt>
      <trkpt lat="48.21472" lon="-3.0092">
        <ele>193.150623</ele>
        <time>2023-05-03T13:56:38.431Z</time>
      </trkpt>
      <trkpt lat="48.21464" lon="-3.00907">
        <ele>193.265545</ele>
        <time>2023-05-03T13:56:41.429Z</time>
      </trkpt>
      <trkpt lat="48.21456" lon="-3.00896">
        <ele>193.373707</ele>
        <time>2023-05-03T13:56:44.433Z</time>
      </trkpt>
      <trkpt lat="48.21449" lon="-3.00885">
        <ele>193.474122</ele>
        <time>2023-05-03T13:56:47.428Z</time>
      </trkpt>
      <trkpt lat="48.21442" lon="-3.00876">
        <ele>193.565703</ele>
        <time>2023-05-03T13:56:50.428Z</time>
      </trkpt>
      <trkpt lat="48.21433" lon="-3.00864">
        <ele>193.68621</ele>
        <time>2023-05-03T13:56:54.430Z</time>
      </trkpt>
      <trkpt lat="48.21425" lon="-3.00855">
        <ele>193.785459</ele>
        <time>2023-05-03T13:56:58.434Z</time>
      </trkpt>
      <trkpt lat="48.21416" lon="-3.00843">
        <ele>193.8989</ele>
        <time>2023-05-03T13:57:03.425Z</time>
      </trkpt>
      <trkpt lat="48.21409" lon="-3.00835">
        <ele>193.987996</ele>
        <time>2023-05-03T13:57:06.436Z</time>
      </trkpt>
      <trkpt lat="48.21401" lon="-3.00824">
        <ele>194.100802</ele>
        <time>2023-05-03T13:57:10.426Z</time>
      </trkpt>
      <trkpt lat="48.21392" lon="-3.00815">
        <ele>194.206424</ele>
        <time>2023-05-03T13:57:14.431Z</time>
      </trkpt>
      <trkpt lat="48.21383" lon="-3.00806">
        <ele>194.307659</ele>
        <time>2023-05-03T13:57:17.429Z</time>
      </trkpt>
      <trkpt lat="48.21374" lon="-3.00796">
        <ele>194.421955</ele>
        <time>2023-05-03T13:57:21.431Z</time>
      </trkpt>
      <trkpt lat="48.21366" lon="-3.00788">
        <ele>194.654249</ele>
        <time>2023-05-03T13:57:24.432Z</time>
      </trkpt>
      <trkpt lat="48.21356" lon="-3.00779">
        <ele>194.926391</ele>
        <time>2023-05-03T13:57:28.428Z</time>
      </trkpt>
      <trkpt lat="48.21347" lon="-3.0077">
        <ele>195.188356</ele>
        <time>2023-05-03T13:57:32.432Z</time>
      </trkpt>
      <trkpt lat="48.2134" lon="-3.00762">
        <ele>195.405717</ele>
        <time>2023-05-03T13:57:36.434Z</time>
      </trkpt>
      <trkpt lat="48.21332" lon="-3.00752">
        <ele>195.664852</ele>
        <time>2023-05-03T13:57:41.427Z</time>
      </trkpt>
      <trkpt lat="48.21324" lon="-3.00743">
        <ele>195.895119</ele>
        <time>2023-05-03T13:57:45.428Z</time>
      </trkpt>
      <trkpt lat="48.21316" lon="-3.00734">
        <ele>196.136667</ele>
        <time>2023-05-03T13:57:49.427Z</time>
      </trkpt>
      <trkpt lat="48.21308" lon="-3.00724">
        <ele>196.392914</ele>
        <time>2023-05-03T13:57:53.435Z</time>
      </trkpt>
      <trkpt lat="48.213" lon="-3.00713">
        <ele>196.651052</ele>
        <time>2023-05-03T13:57:57.428Z</time>
      </trkpt>
      <trkpt lat="48.21292" lon="-3.00703">
        <ele>196.897477</ele>
        <time>2023-05-03T13:58:01.429Z</time>
      </trkpt>
      <trkpt lat="48.21284" lon="-3.00694">
        <ele>197.157374</ele>
        <time>2023-05-03T13:58:05.428Z</time>
      </trkpt>
      <trkpt lat="48.21275" lon="-3.00684">
        <ele>197.415676</ele>
        <time>2023-05-03T13:58:09.427Z</time>
      </trkpt>
      <trkpt lat="48.21267" lon="-3.00674">
        <ele>197.673692</ele>
        <time>2023-05-03T13:58:13.432Z</time>
      </trkpt>
      <trkpt lat="48.21259" lon="-3.00665">
        <ele>197.925019</ele>
        <time>2023-05-03T13:58:17.429Z</time>
      </trkpt>
      <trkpt lat="48.2125" lon="-3.00656">
        <ele>198.168238</ele>
        <time>2023-05-03T13:58:22.432Z</time>
      </trkpt>
      <trkpt lat="48.21242" lon="-3.00647">
        <ele>198.413163</ele>
        <time>2023-05-03T13:58:28.426Z</time>
      </trkpt>
      <trkpt lat="48.21234" lon="-3.00637">
        <ele>198.670273</ele>
        <time>2023-05-03T13:58:33.432Z</time>
      </trkpt>
      <trkpt lat="48.21227" lon="-3.00627">
        <ele>198.79216</ele>
        <time>2023-05-03T13:58:37.426Z</time>
      </trkpt>
      <trkpt lat="48.21219" lon="-3.00618">
        <ele>198.833728</ele>
        <time>2023-05-03T13:58:41.435Z</time>
      </trkpt>
      <trkpt lat="48.21211" lon="-3.0061">
        <ele>198.878166</ele>
        <time>2023-05-03T13:58:45.428Z</time>
      </trkpt>
      <trkpt lat="48.21203" lon="-3.006">
        <ele>198.922165</ele>
        <time>2023-05-03T13:58:49.426Z</time>
      </trkpt>
      <trkpt lat="48.21195" lon="-3.00591">
        <ele>198.965505</ele>
        <time>2023-05-03T13:58:53.430Z</time>
      </trkpt>
      <trkpt lat="48.21187" lon="-3.00581">
        <ele>199.013352</ele>
        <time>2023-05-03T13:58:57.430Z</time>
      </trkpt>
      <trkpt lat="48.21178" lon="-3.00571">
        <ele>199.061396</ele>
        <time>2023-05-03T13:59:01.430Z</time>
      </trkpt>
      <trkpt lat="48.21169" lon="-3.00561">
        <ele>199.107753</ele>
        <time>2023-05-03T13:59:05.426Z</time>
      </trkpt>
      <trkpt lat="48.2116" lon="-3.00551">
        <ele>199.159827</ele>
        <time>2023-05-03T13:59:09.426Z</time>
      </trkpt>
      <trkpt lat="48.21153" lon="-3.00542">
        <ele>199.199484</ele>
        <time>2023-05-03T13:59:12.432Z</time>
      </trkpt>
      <trkpt lat="48.21144" lon="-3.00531">
        <ele>199.249723</ele>
        <time>2023-05-03T13:59:16.427Z</time>
      </trkpt>
      <trkpt lat="48.21135" lon="-3.00521">
        <ele>199.299667</ele>
        <time>2023-05-03T13:59:20.425Z</time>
      </trkpt>
      <trkpt lat="48.21125" lon="-3.00511">
        <ele>199.350083</ele>
        <time>2023-05-03T13:59:24.434Z</time>
      </trkpt>
      <trkpt lat="48.21116" lon="-3.005">
        <ele>199.401034</ele>
        <time>2023-05-03T13:59:28.427Z</time>
      </trkpt>
      <trkpt lat="48.21109" lon="-3.0049">
        <ele>199.444191</ele>
        <time>2023-05-03T13:59:32.426Z</time>
      </trkpt>
      <trkpt lat="48.21101" lon="-3.00481">
        <ele>199.485927</ele>
        <time>2023-05-03T13:59:36.436Z</time>
      </trkpt>
      <trkpt lat="48.21092" lon="-3.00471">
        <ele>199.534479</ele>
        <time>2023-05-03T13:59:40.426Z</time>
      </trkpt>
      <trkpt lat="48.21084" lon="-3.00464">
        <ele>199.521901</ele>
        <time>2023-05-03T13:59:43.429Z</time>
      </trkpt>
      <trkpt lat="48.21074" lon="-3.00453">
        <ele>199.455751</ele>
        <time>2023-05-03T13:59:47.433Z</time>
      </trkpt>
      <trkpt lat="48.21066" lon="-3.00442">
        <ele>199.391921</ele>
        <time>2023-05-03T13:59:51.430Z</time>
      </trkpt>
      <trkpt lat="48.21056" lon="-3.00431">
        <ele>199.326434</ele>
        <time>2023-05-03T13:59:55.431Z</time>
      </trkpt>
      <trkpt lat="48.21047" lon="-3.00421">
        <ele>199.26381</ele>
        <time>2023-05-03T13:59:59.431Z</time>
      </trkpt>
      <trkpt lat="48.21039" lon="-3.00412">
        <ele>199.208055</ele>
        <time>2023-05-03T14:00:02.431Z</time>
      </trkpt>
      <trkpt lat="48.21032" lon="-3.00404">
        <ele>199.158269</ele>
        <time>2023-05-03T14:00:05.430Z</time>
      </trkpt>
      <trkpt lat="48.21024" lon="-3.00395">
        <ele>199.104485</ele>
        <time>2023-05-03T14:00:09.418Z</time>
      </trkpt>
      <trkpt lat="48.21016" lon="-3.00385">
        <ele>199.04821</ele>
        <time>2023-05-03T14:00:13.430Z</time>
      </trkpt>
      <trkpt lat="48.21009" lon="-3.00376">
        <ele>198.995318</ele>
        <time>2023-05-03T14:00:17.433Z</time>
      </trkpt>
      <trkpt lat="48.20999" lon="-3.00366">
        <ele>198.930268</ele>
        <time>2023-05-03T14:00:22.431Z</time>
      </trkpt>
      <trkpt lat="48.20991" lon="-3.00355">
        <ele>198.868178</ele>
        <time>2023-05-03T14:00:26.427Z</time>
      </trkpt>
      <trkpt lat="48.20982" lon="-3.00344">
        <ele>198.807973</ele>
        <time>2023-05-03T14:00:30.427Z</time>
      </trkpt>
      <trkpt lat="48.20975" lon="-3.00336">
        <ele>198.755095</ele>
        <time>2023-05-03T14:00:33.429Z</time>
      </trkpt>
      <trkpt lat="48.20967" lon="-3.00328">
        <ele>198.704653</ele>
        <time>2023-05-03T14:00:36.426Z</time>
      </trkpt>
      <trkpt lat="48.2096" lon="-3.00317">
        <ele>198.646441</ele>
        <time>2023-05-03T14:00:40.431Z</time>
      </trkpt>
      <trkpt lat="48.20952" lon="-3.00309">
        <ele>198.595765</ele>
        <time>2023-05-03T14:00:43.429Z</time>
      </trkpt>
      <trkpt lat="48.20944" lon="-3.003">
        <ele>198.593007</ele>
        <time>2023-05-03T14:00:47.432Z</time>
      </trkpt>
      <trkpt lat="48.20933" lon="-3.00289">
        <ele>198.728428</ele>
        <time>2023-05-03T14:00:51.435Z</time>
      </trkpt>
      <trkpt lat="48.20925" lon="-3.00281">
        <ele>198.84022</ele>
        <time>2023-05-03T14:00:54.434Z</time>
      </trkpt>
      <trkpt lat="48.20917" lon="-3.00269">
        <ele>198.953448</ele>
        <time>2023-05-03T14:00:57.429Z</time>
      </trkpt>
      <trkpt lat="48.2091" lon="-3.00261">
        <ele>199.050173</ele>
        <time>2023-05-03T14:01:00.431Z</time>
      </trkpt>
      <trkpt lat="48.20902" lon="-3.00252">
        <ele>199.155464</ele>
        <time>2023-05-03T14:01:03.431Z</time>
      </trkpt>
      <trkpt lat="48.20893" lon="-3.00243">
        <ele>199.271596</ele>
        <time>2023-05-03T14:01:06.426Z</time>
      </trkpt>
      <trkpt lat="48.20885" lon="-3.00233">
        <ele>199.383473</ele>
        <time>2023-05-03T14:01:09.427Z</time>
      </trkpt>
      <trkpt lat="48.20876" lon="-3.00221">
        <ele>199.514163</ele>
        <time>2023-05-03T14:01:13.431Z</time>
      </trkpt>
      <trkpt lat="48.20867" lon="-3.00213">
        <ele>199.622818</ele>
        <time>2023-05-03T14:01:16.427Z</time>
      </trkpt>
      <trkpt lat="48.2086" lon="-3.00204">
        <ele>199.724302</ele>
        <time>2023-05-03T14:01:19.430Z</time>
      </trkpt>
      <trkpt lat="48.20852" lon="-3.00195">
        <ele>199.827465</ele>
        <time>2023-05-03T14:01:22.430Z</time>
      </trkpt>
      <trkpt lat="48.20845" lon="-3.00186">
        <ele>199.933238</ele>
        <time>2023-05-03T14:01:25.424Z</time>
      </trkpt>
      <trkpt lat="48.20837" lon="-3.00176">
        <ele>200.044658</ele>
        <time>2023-05-03T14:01:29.426Z</time>
      </trkpt>
      <trkpt lat="48.20829" lon="-3.00165">
        <ele>200.161085</ele>
        <time>2023-05-03T14:01:33.424Z</time>
      </trkpt>
      <trkpt lat="48.2082" lon="-3.00156">
        <ele>200.271509</ele>
        <time>2023-05-03T14:01:37.426Z</time>
      </trkpt>
      <trkpt lat="48.20813" lon="-3.00147">
        <ele>200.37383</ele>
        <time>2023-05-03T14:01:41.417Z</time>
      </trkpt>
      <trkpt lat="48.20805" lon="-3.0014">
        <ele>200.47001</ele>
        <time>2023-05-03T14:01:45.433Z</time>
      </trkpt>
      <trkpt lat="48.20798" lon="-3.0013">
        <ele>200.601224</ele>
        <time>2023-05-03T14:01:49.420Z</time>
      </trkpt>
      <trkpt lat="48.20788" lon="-3.0012">
        <ele>200.761716</ele>
        <time>2023-05-03T14:01:53.419Z</time>
      </trkpt>
      <trkpt lat="48.20779" lon="-3.00113">
        <ele>200.900423</ele>
        <time>2023-05-03T14:01:56.427Z</time>
      </trkpt>
      <trkpt lat="48.20771" lon="-3.00106">
        <ele>201.023127</ele>
        <time>2023-05-03T14:01:59.427Z</time>
      </trkpt>
      <trkpt lat="48.20762" lon="-3.00097">
        <ele>201.174313</ele>
        <time>2023-05-03T14:02:03.434Z</time>
      </trkpt>
      <trkpt lat="48.20753" lon="-3.0009">
        <ele>201.305636</ele>
        <time>2023-05-03T14:02:07.429Z</time>
      </trkpt>
      <trkpt lat="48.20744" lon="-3.00082">
        <ele>201.449096</ele>
        <time>2023-05-03T14:02:11.428Z</time>
      </trkpt>
      <trkpt lat="48.20736" lon="-3.00075">
        <ele>201.578071</ele>
        <time>2023-05-03T14:02:15.428Z</time>
      </trkpt>
      <trkpt lat="48.20727" lon="-3.00069">
        <ele>201.713542</ele>
        <time>2023-05-03T14:02:19.430Z</time>
      </trkpt>
      <trkpt lat="48.20718" lon="-3.00066">
        <ele>201.836706</ele>
        <time>2023-05-03T14:02:24.427Z</time>
      </trkpt>
      <trkpt lat="48.2071" lon="-3.00061">
        <ele>201.961202</ele>
        <time>2023-05-03T14:02:30.428Z</time>
      </trkpt>
      <trkpt lat="48.207" lon="-3.00057">
        <ele>202.090705</ele>
        <time>2023-05-03T14:02:36.432Z</time>
      </trkpt>
      <trkpt lat="48.20691" lon="-3.00051">
        <ele>202.233988</ele>
        <time>2023-05-03T14:02:42.427Z</time>
      </trkpt>
      <trkpt lat="48.20681" lon="-3.00047">
        <ele>202.373206</ele>
        <time>2023-05-03T14:02:47.425Z</time>
      </trkpt>
      <trkpt lat="48.20671" lon="-3.00041">
        <ele>202.52074</ele>
        <time>2023-05-03T14:02:52.429Z</time>
      </trkpt>
      <trkpt lat="48.20662" lon="-3.00038">
        <ele>202.644816</ele>
        <time>2023-05-03T14:02:57.424Z</time>
      </trkpt>
      <trkpt lat="48.20653" lon="-3.00038">
        <ele>202.768716</ele>
        <time>2023-05-03T14:03:01.419Z</time>
      </trkpt>
      <trkpt lat="48.20642" lon="-3.00036">
        <ele>202.911707</ele>
        <time>2023-05-03T14:03:06.426Z</time>
      </trkpt>
      <trkpt lat="48.20631" lon="-3.00035">
        <ele>203.040613</ele>
        <time>2023-05-03T14:03:11.422Z</time>
      </trkpt>
      <trkpt lat="48.20622" lon="-3.00032">
        <ele>203.156216</ele>
        <time>2023-05-03T14:03:15.430Z</time>
      </trkpt>
      <trkpt lat="48.20611" lon="-3.0003">
        <ele>203.277764</ele>
        <time>2023-05-03T14:03:20.435Z</time>
      </trkpt>
      <trkpt lat="48.2059" lon="-3.0003">
        <ele>203.532905</ele>
        <time>2023-05-03T14:04:16.424Z</time>
      </trkpt>
      <trkpt lat="48.2058" lon="-3.0003">
        <ele>203.64877</ele>
        <time>2023-05-03T14:04:20.431Z</time>
      </trkpt>
      <trkpt lat="48.2057" lon="-3.00031">
        <ele>203.759246</ele>
        <time>2023-05-03T14:04:24.429Z</time>
      </trkpt>
      <trkpt lat="48.2056" lon="-3.00033">
        <ele>203.879353</ele>
        <time>2023-05-03T14:04:28.427Z</time>
      </trkpt>
      <trkpt lat="48.2055" lon="-3.00035">
        <ele>204.003324</ele>
        <time>2023-05-03T14:04:32.425Z</time>
      </trkpt>
      <trkpt lat="48.2054" lon="-3.00036">
        <ele>204.118611</ele>
        <time>2023-05-03T14:04:36.429Z</time>
      </trkpt>
      <trkpt lat="48.2053" lon="-3.00038">
        <ele>204.235143</ele>
        <time>2023-05-03T14:04:40.434Z</time>
      </trkpt>
      <trkpt lat="48.2052" lon="-3.00039">
        <ele>204.355891</ele>
        <time>2023-05-03T14:04:44.429Z</time>
      </trkpt>
      <trkpt lat="48.20509" lon="-3.00042">
        <ele>204.478345</ele>
        <time>2023-05-03T14:04:48.428Z</time>
      </trkpt>
      <trkpt lat="48.20499" lon="-3.00047">
        <ele>204.608187</ele>
        <time>2023-05-03T14:04:52.427Z</time>
      </trkpt>
      <trkpt lat="48.20488" lon="-3.00051">
        <ele>204.740468</ele>
        <time>2023-05-03T14:04:56.429Z</time>
      </trkpt>
      <trkpt lat="48.20477" lon="-3.00055">
        <ele>204.870731</ele>
        <time>2023-05-03T14:05:00.429Z</time>
      </trkpt>
      <trkpt lat="48.20467" lon="-3.0006">
        <ele>204.988553</ele>
        <time>2023-05-03T14:05:04.431Z</time>
      </trkpt>
      <trkpt lat="48.20457" lon="-3.00064">
        <ele>205.181152</ele>
        <time>2023-05-03T14:05:09.427Z</time>
      </trkpt>
      <trkpt lat="48.20448" lon="-3.00068">
        <ele>205.388202</ele>
        <time>2023-05-03T14:05:13.432Z</time>
      </trkpt>
      <trkpt lat="48.20439" lon="-3.00073">
        <ele>205.592819</ele>
        <time>2023-05-03T14:05:17.426Z</time>
      </trkpt>
      <trkpt lat="48.20429" lon="-3.00078">
        <ele>205.804869</ele>
        <time>2023-05-03T14:05:21.430Z</time>
      </trkpt>
      <trkpt lat="48.2042" lon="-3.00082">
        <ele>206.013564</ele>
        <time>2023-05-03T14:05:25.429Z</time>
      </trkpt>
      <trkpt lat="48.20411" lon="-3.00086">
        <ele>206.208303</ele>
        <time>2023-05-03T14:05:29.426Z</time>
      </trkpt>
      <trkpt lat="48.20402" lon="-3.0009">
        <ele>206.407138</ele>
        <time>2023-05-03T14:05:33.431Z</time>
      </trkpt>
      <trkpt lat="48.20393" lon="-3.00096">
        <ele>206.627731</ele>
        <time>2023-05-03T14:05:37.426Z</time>
      </trkpt>
      <trkpt lat="48.20384" lon="-3.00101">
        <ele>206.83868</ele>
        <time>2023-05-03T14:05:41.430Z</time>
      </trkpt>
      <trkpt lat="48.20374" lon="-3.00105">
        <ele>207.044487</ele>
        <time>2023-05-03T14:05:45.432Z</time>
      </trkpt>
      <trkpt lat="48.20365" lon="-3.0011">
        <ele>207.254057</ele>
        <time>2023-05-03T14:05:49.425Z</time>
      </trkpt>
      <trkpt lat="48.20355" lon="-3.00115">
        <ele>207.477163</ele>
        <time>2023-05-03T14:05:53.430Z</time>
      </trkpt>
      <trkpt lat="48.20346" lon="-3.00119">
        <ele>207.693279</ele>
        <time>2023-05-03T14:05:57.420Z</time>
      </trkpt>
      <trkpt lat="48.20336" lon="-3.00123">
        <ele>207.903332</ele>
        <time>2023-05-03T14:06:01.428Z</time>
      </trkpt>
      <trkpt lat="48.20326" lon="-3.00126">
        <ele>208.12341</ele>
        <time>2023-05-03T14:06:05.430Z</time>
      </trkpt>
      <trkpt lat="48.20316" lon="-3.0013">
        <ele>208.351841</ele>
        <time>2023-05-03T14:06:09.424Z</time>
      </trkpt>
      <trkpt lat="48.20305" lon="-3.00134">
        <ele>208.583097</ele>
        <time>2023-05-03T14:06:13.427Z</time>
      </trkpt>
      <trkpt lat="48.20294" lon="-3.00137">
        <ele>208.826337</ele>
        <time>2023-05-03T14:06:17.438Z</time>
      </trkpt>
      <trkpt lat="48.20283" lon="-3.0014">
        <ele>208.891724</ele>
        <time>2023-05-03T14:06:21.429Z</time>
      </trkpt>
      <trkpt lat="48.20272" lon="-3.00143">
        <ele>208.903656</ele>
        <time>2023-05-03T14:06:25.428Z</time>
      </trkpt>
      <trkpt lat="48.20261" lon="-3.00145">
        <ele>208.915438</ele>
        <time>2023-05-03T14:06:29.422Z</time>
      </trkpt>
      <trkpt lat="48.20252" lon="-3.00147">
        <ele>208.925178</ele>
        <time>2023-05-03T14:06:33.426Z</time>
      </trkpt>
      <trkpt lat="48.20242" lon="-3.00147">
        <ele>208.935131</ele>
        <time>2023-05-03T14:06:37.427Z</time>
      </trkpt>
      <trkpt lat="48.20231" lon="-3.00147">
        <ele>208.947286</ele>
        <time>2023-05-03T14:06:41.429Z</time>
      </trkpt>
      <trkpt lat="48.20219" lon="-3.00147">
        <ele>208.959761</ele>
        <time>2023-05-03T14:06:45.424Z</time>
      </trkpt>
      <trkpt lat="48.20209" lon="-3.00146">
        <ele>208.970471</ele>
        <time>2023-05-03T14:06:48.426Z</time>
      </trkpt>
      <trkpt lat="48.20199" lon="-3.00145">
        <ele>208.980754</ele>
        <time>2023-05-03T14:06:51.426Z</time>
      </trkpt>
      <trkpt lat="48.20188" lon="-3.00144">
        <ele>208.991996</ele>
        <time>2023-05-03T14:06:55.431Z</time>
      </trkpt>
      <trkpt lat="48.20178" lon="-3.00142">
        <ele>209.002611</ele>
        <time>2023-05-03T14:06:59.427Z</time>
      </trkpt>
      <trkpt lat="48.20167" lon="-3.0014">
        <ele>209.014316</ele>
        <time>2023-05-03T14:07:03.424Z</time>
      </trkpt>
      <trkpt lat="48.20158" lon="-3.00139">
        <ele>209.023839</ele>
        <time>2023-05-03T14:07:06.428Z</time>
      </trkpt>
      <trkpt lat="48.20149" lon="-3.00134">
        <ele>209.033894</ele>
        <time>2023-05-03T14:07:09.424Z</time>
      </trkpt>
      <trkpt lat="48.20139" lon="-3.00131">
        <ele>209.044009</ele>
        <time>2023-05-03T14:07:12.422Z</time>
      </trkpt>
      <trkpt lat="48.2013" lon="-3.00128">
        <ele>209.054054</ele>
        <time>2023-05-03T14:07:15.428Z</time>
      </trkpt>
      <trkpt lat="48.20121" lon="-3.00123">
        <ele>209.064392</ele>
        <time>2023-05-03T14:07:18.423Z</time>
      </trkpt>
      <trkpt lat="48.20112" lon="-3.00119">
        <ele>209.016747</ele>
        <time>2023-05-03T14:07:21.436Z</time>
      </trkpt>
      <trkpt lat="48.20102" lon="-3.00113">
        <ele>208.755324</ele>
        <time>2023-05-03T14:07:26.430Z</time>
      </trkpt>
      <trkpt lat="48.20094" lon="-3.00107">
        <ele>208.525383</ele>
        <time>2023-05-03T14:07:30.421Z</time>
      </trkpt>
      <trkpt lat="48.20084" lon="-3.00101">
        <ele>208.263053</ele>
        <time>2023-05-03T14:07:34.427Z</time>
      </trkpt>
      <trkpt lat="48.20074" lon="-3.00092">
        <ele>207.971105</ele>
        <time>2023-05-03T14:07:38.417Z</time>
      </trkpt>
      <trkpt lat="48.20066" lon="-3.00085">
        <ele>207.742248</ele>
        <time>2023-05-03T14:07:42.433Z</time>
      </trkpt>
      <trkpt lat="48.20057" lon="-3.00081">
        <ele>207.504213</ele>
        <time>2023-05-03T14:08:05.428Z</time>
      </trkpt>
      <trkpt lat="48.20049" lon="-3.00074">
        <ele>207.267649</ele>
        <time>2023-05-03T14:08:22.427Z</time>
      </trkpt>
      <trkpt lat="48.20039" lon="-3.00064">
        <ele>206.971622</ele>
        <time>2023-05-03T14:08:26.425Z</time>
      </trkpt>
      <trkpt lat="48.20031" lon="-3.00057">
        <ele>206.735912</ele>
        <time>2023-05-03T14:08:29.424Z</time>
      </trkpt>
      <trkpt lat="48.20022" lon="-3.0005">
        <ele>206.488092</ele>
        <time>2023-05-03T14:08:32.428Z</time>
      </trkpt>
      <trkpt lat="48.20015" lon="-3.00042">
        <ele>206.246736</ele>
        <time>2023-05-03T14:08:35.431Z</time>
      </trkpt>
      <trkpt lat="48.20007" lon="-3.00033">
        <ele>205.999255</ele>
        <time>2023-05-03T14:08:39.429Z</time>
      </trkpt>
      <trkpt lat="48.19997" lon="-3.00022">
        <ele>205.700797</ele>
        <time>2023-05-03T14:08:42.429Z</time>
      </trkpt>
      <trkpt lat="48.19988" lon="-3.0001">
        <ele>205.395591</ele>
        <time>2023-05-03T14:08:45.429Z</time>
      </trkpt>
      <trkpt lat="48.19979" lon="-2.99996">
        <ele>205.071614</ele>
        <time>2023-05-03T14:08:48.414Z</time>
      </trkpt>
      <trkpt lat="48.1997" lon="-2.99983">
        <ele>204.760648</ele>
        <time>2023-05-03T14:08:51.419Z</time>
      </trkpt>
      <trkpt lat="48.19962" lon="-2.9997">
        <ele>204.408182</ele>
        <time>2023-05-03T14:08:54.418Z</time>
      </trkpt>
      <trkpt lat="48.19953" lon="-2.99957">
        <ele>203.929258</ele>
        <time>2023-05-03T14:08:57.429Z</time>
      </trkpt>
      <trkpt lat="48.19947" lon="-2.99943">
        <ele>203.479178</ele>
        <time>2023-05-03T14:09:00.429Z</time>
      </trkpt>
      <trkpt lat="48.19939" lon="-2.99928">
        <ele>203.015524</ele>
        <time>2023-05-03T14:09:03.427Z</time>
      </trkpt>
      <trkpt lat="48.19931" lon="-2.99913">
        <ele>202.52783</ele>
        <time>2023-05-03T14:09:06.432Z</time>
      </trkpt>
      <trkpt lat="48.19925" lon="-2.99898">
        <ele>202.056443</ele>
        <time>2023-05-03T14:09:09.426Z</time>
      </trkpt>
      <trkpt lat="48.19918" lon="-2.99881">
        <ele>201.535271</ele>
        <time>2023-05-03T14:09:12.433Z</time>
      </trkpt>
      <trkpt lat="48.1991" lon="-2.99866">
        <ele>201.050262</ele>
        <time>2023-05-03T14:09:15.430Z</time>
      </trkpt>
      <trkpt lat="48.19906" lon="-2.99851">
        <ele>200.635461</ele>
        <time>2023-05-03T14:09:18.420Z</time>
      </trkpt>
      <trkpt lat="48.19903" lon="-2.99838">
        <ele>200.277628</ele>
        <time>2023-05-03T14:09:21.426Z</time>
      </trkpt>
      <trkpt lat="48.19896" lon="-2.99827">
        <ele>199.887074</ele>
        <time>2023-05-03T14:09:26.426Z</time>
      </trkpt>
      <trkpt lat="48.19891" lon="-2.99841">
        <ele>199.480894</ele>
        <time>2023-05-03T14:09:31.431Z</time>
      </trkpt>
      <trkpt lat="48.19889" lon="-2.99858">
        <ele>199.034368</ele>
        <time>2023-05-03T14:09:35.426Z</time>
      </trkpt>
      <trkpt lat="48.19887" lon="-2.99874">
        <ele>198.614596</ele>
        <time>2023-05-03T14:09:39.429Z</time>
      </trkpt>
      <trkpt lat="48.19883" lon="-2.99888">
        <ele>198.218607</ele>
        <time>2023-05-03T14:09:43.424Z</time>
      </trkpt>
      <trkpt lat="48.19878" lon="-2.99903">
        <ele>197.798852</ele>
        <time>2023-05-03T14:09:47.466Z</time>
      </trkpt>
      <trkpt lat="48.19871" lon="-2.99917">
        <ele>197.50941</ele>
        <time>2023-05-03T14:09:50.422Z</time>
      </trkpt>
      <trkpt lat="48.19864" lon="-2.99928">
        <ele>197.338119</ele>
        <time>2023-05-03T14:09:53.427Z</time>
      </trkpt>
      <trkpt lat="48.19856" lon="-2.99939">
        <ele>197.144606</ele>
        <time>2023-05-03T14:09:57.427Z</time>
      </trkpt>
      <trkpt lat="48.19848" lon="-2.99947">
        <ele>196.986586</ele>
        <time>2023-05-03T14:10:01.431Z</time>
      </trkpt>
      <trkpt lat="48.19839" lon="-2.99954">
        <ele>196.80993</ele>
        <time>2023-05-03T14:10:05.426Z</time>
      </trkpt>
      <trkpt lat="48.19829" lon="-2.99963">
        <ele>196.619437</ele>
        <time>2023-05-03T14:10:09.420Z</time>
      </trkpt>
      <trkpt lat="48.19822" lon="-2.99971">
        <ele>196.466126</ele>
        <time>2023-05-03T14:10:13.429Z</time>
      </trkpt>
      <trkpt lat="48.19813" lon="-2.99979">
        <ele>196.290677</ele>
        <time>2023-05-03T14:10:17.431Z</time>
      </trkpt>
      <trkpt lat="48.19805" lon="-2.99986">
        <ele>196.137827</ele>
        <time>2023-05-03T14:10:20.428Z</time>
      </trkpt>
      <trkpt lat="48.19796" lon="-2.99994">
        <ele>195.962692</ele>
        <time>2023-05-03T14:10:23.427Z</time>
      </trkpt>
      <trkpt lat="48.19788" lon="-3.00002">
        <ele>195.800616</ele>
        <time>2023-05-03T14:10:26.430Z</time>
      </trkpt>
      <trkpt lat="48.19781" lon="-3.00014">
        <ele>195.617213</ele>
        <time>2023-05-03T14:10:29.425Z</time>
      </trkpt>
      <trkpt lat="48.19775" lon="-3.00025">
        <ele>195.461592</ele>
        <time>2023-05-03T14:10:32.426Z</time>
      </trkpt>
      <trkpt lat="48.19769" lon="-3.00037">
        <ele>195.290893</ele>
        <time>2023-05-03T14:10:36.425Z</time>
      </trkpt>
      <trkpt lat="48.19764" lon="-3.0005">
        <ele>195.121428</ele>
        <time>2023-05-03T14:10:40.434Z</time>
      </trkpt>
      <trkpt lat="48.1976" lon="-3.00065">
        <ele>194.941315</ele>
        <time>2023-05-03T14:10:44.428Z</time>
      </trkpt>
      <trkpt lat="48.19755" lon="-3.0008">
        <ele>194.754096</ele>
        <time>2023-05-03T14:10:47.428Z</time>
      </trkpt>
      <trkpt lat="48.19752" lon="-3.00094">
        <ele>194.586697</ele>
        <time>2023-05-03T14:10:50.424Z</time>
      </trkpt>
      <trkpt lat="48.19749" lon="-3.00108">
        <ele>194.652375</ele>
        <time>2023-05-03T14:10:53.429Z</time>
      </trkpt>
      <trkpt lat="48.19747" lon="-3.00125">
        <ele>194.73155</ele>
        <time>2023-05-03T14:10:57.427Z</time>
      </trkpt>
      <trkpt lat="48.19745" lon="-3.00138">
        <ele>194.794419</ele>
        <time>2023-05-03T14:11:00.427Z</time>
      </trkpt>
      <trkpt lat="48.19744" lon="-3.00152">
        <ele>194.86055</ele>
        <time>2023-05-03T14:11:03.425Z</time>
      </trkpt>
      <trkpt lat="48.19742" lon="-3.00168">
        <ele>194.933776</ele>
        <time>2023-05-03T14:11:06.427Z</time>
      </trkpt>
      <trkpt lat="48.19741" lon="-3.00183">
        <ele>195.002658</ele>
        <time>2023-05-03T14:11:09.426Z</time>
      </trkpt>
      <trkpt lat="48.1974" lon="-3.002">
        <ele>195.083451</ele>
        <time>2023-05-03T14:11:13.431Z</time>
      </trkpt>
      <trkpt lat="48.19738" lon="-3.00217">
        <ele>195.16361</ele>
        <time>2023-05-03T14:11:17.431Z</time>
      </trkpt>
      <trkpt lat="48.19738" lon="-3.00232">
        <ele>195.229385</ele>
        <time>2023-05-03T14:12:15.428Z</time>
      </trkpt>
      <trkpt lat="48.19739" lon="-3.0025">
        <ele>195.311905</ele>
        <time>2023-05-03T14:12:20.425Z</time>
      </trkpt>
      <trkpt lat="48.19737" lon="-3.00266">
        <ele>195.390402</ele>
        <time>2023-05-03T14:12:24.422Z</time>
      </trkpt>
      <trkpt lat="48.19734" lon="-3.00283">
        <ele>195.468272</ele>
        <time>2023-05-03T14:12:28.426Z</time>
      </trkpt>
      <trkpt lat="48.19733" lon="-3.00297">
        <ele>195.535766</ele>
        <time>2023-05-03T14:12:31.420Z</time>
      </trkpt>
      <trkpt lat="48.19731" lon="-3.00311">
        <ele>195.601934</ele>
        <time>2023-05-03T14:12:34.421Z</time>
      </trkpt>
      <trkpt lat="48.19729" lon="-3.00329">
        <ele>195.68419</ele>
        <time>2023-05-03T14:12:38.426Z</time>
      </trkpt>
      <trkpt lat="48.19728" lon="-3.00346">
        <ele>195.762611</ele>
        <time>2023-05-03T14:12:42.434Z</time>
      </trkpt>
      <trkpt lat="48.19727" lon="-3.00361">
        <ele>195.819933</ele>
        <time>2023-05-03T14:12:46.428Z</time>
      </trkpt>
      <trkpt lat="48.19725" lon="-3.00376">
        <ele>195.618025</ele>
        <time>2023-05-03T14:12:50.420Z</time>
      </trkpt>
      <trkpt lat="48.19717" lon="-3.00388">
        <ele>195.386752</ele>
        <time>2023-05-03T14:12:54.421Z</time>
      </trkpt>
      <trkpt lat="48.19709" lon="-3.00401">
        <ele>195.165106</ele>
        <time>2023-05-03T14:12:57.433Z</time>
      </trkpt>
      <trkpt lat="48.19702" lon="-3.00414">
        <ele>194.935422</ele>
        <time>2023-05-03T14:13:00.433Z</time>
      </trkpt>
      <trkpt lat="48.19695" lon="-3.00427">
        <ele>194.710063</ele>
        <time>2023-05-03T14:13:03.429Z</time>
      </trkpt>
      <trkpt lat="48.19688" lon="-3.00439">
        <ele>194.505565</ele>
        <time>2023-05-03T14:13:06.429Z</time>
      </trkpt>
      <trkpt lat="48.19681" lon="-3.00452">
        <ele>194.281482</ele>
        <time>2023-05-03T14:13:09.427Z</time>
      </trkpt>
      <trkpt lat="48.19675" lon="-3.00464">
        <ele>194.081651</ele>
        <time>2023-05-03T14:13:11.427Z</time>
      </trkpt>
      <trkpt lat="48.19668" lon="-3.00476">
        <ele>193.876848</ele>
        <time>2023-05-03T14:13:13.426Z</time>
      </trkpt>
      <trkpt lat="48.19661" lon="-3.0049">
        <ele>193.645882</ele>
        <time>2023-05-03T14:13:15.430Z</time>
      </trkpt>
      <trkpt lat="48.19654" lon="-3.00504">
        <ele>193.406028</ele>
        <time>2023-05-03T14:13:17.428Z</time>
      </trkpt>
      <trkpt lat="48.19646" lon="-3.00517">
        <ele>193.177081</ele>
        <time>2023-05-03T14:13:19.424Z</time>
      </trkpt>
      <trkpt lat="48.1964" lon="-3.00529">
        <ele>192.973107</ele>
        <time>2023-05-03T14:13:21.429Z</time>
      </trkpt>
      <trkpt lat="48.19632" lon="-3.00541">
        <ele>192.754763</ele>
        <time>2023-05-03T14:13:23.427Z</time>
      </trkpt>
      <trkpt lat="48.19626" lon="-3.00552">
        <ele>192.557879</ele>
        <time>2023-05-03T14:13:25.429Z</time>
      </trkpt>
      <trkpt lat="48.19617" lon="-3.00565">
        <ele>192.320207</ele>
        <time>2023-05-03T14:13:28.426Z</time>
      </trkpt>
      <trkpt lat="48.1961" lon="-3.00576">
        <ele>192.699078</ele>
        <time>2023-05-03T14:13:31.429Z</time>
      </trkpt>
      <trkpt lat="48.19603" lon="-3.00586">
        <ele>193.340169</ele>
        <time>2023-05-03T14:13:34.425Z</time>
      </trkpt>
      <trkpt lat="48.19599" lon="-3.00598">
        <ele>193.964201</ele>
        <time>2023-05-03T14:13:38.426Z</time>
      </trkpt>
      <trkpt lat="48.196" lon="-3.00614">
        <ele>194.661079</ele>
        <time>2023-05-03T14:13:43.428Z</time>
      </trkpt>
      <trkpt lat="48.19605" lon="-3.00627">
        <ele>195.319761</ele>
        <time>2023-05-03T14:13:48.421Z</time>
      </trkpt>
      <trkpt lat="48.1961" lon="-3.00639">
        <ele>195.951648</ele>
        <time>2023-05-03T14:13:53.430Z</time>
      </trkpt>
      <trkpt lat="48.19615" lon="-3.00653">
        <ele>196.657977</ele>
        <time>2023-05-03T14:13:58.425Z</time>
      </trkpt>
      <trkpt lat="48.19619" lon="-3.00666">
        <ele>197.289153</ele>
        <time>2023-05-03T14:14:03.422Z</time>
      </trkpt>
      <trkpt lat="48.19622" lon="-3.00679">
        <ele>197.909949</ele>
        <time>2023-05-03T14:14:08.420Z</time>
      </trkpt>
      <trkpt lat="48.19619" lon="-3.00694">
        <ele>198.561508</ele>
        <time>2023-05-03T14:17:21.425Z</time>
      </trkpt>
      <trkpt lat="48.19618" lon="-3.00708">
        <ele>199.219362</ele>
        <time>2023-05-03T14:17:28.421Z</time>
      </trkpt>
      <trkpt lat="48.19616" lon="-3.00722">
        <ele>199.831596</ele>
        <time>2023-05-03T14:17:35.424Z</time>
      </trkpt>
      <trkpt lat="48.19612" lon="-3.00735">
        <ele>200.475606</ele>
        <time>2023-05-03T14:17:42.422Z</time>
      </trkpt>
      <trkpt lat="48.19609" lon="-3.00749">
        <ele>201.114083</ele>
        <time>2023-05-03T14:17:49.424Z</time>
      </trkpt>
      <trkpt lat="48.19605" lon="-3.00762">
        <ele>201.755017</ele>
        <time>2023-05-03T14:17:56.425Z</time>
      </trkpt>
      <trkpt lat="48.19602" lon="-3.00776">
        <ele>202.395953</ele>
        <time>2023-05-03T14:18:03.425Z</time>
      </trkpt>
      <trkpt lat="48.19598" lon="-3.00788">
        <ele>203.010016</ele>
        <time>2023-05-03T14:18:10.427Z</time>
      </trkpt>
      <trkpt lat="48.19585" lon="-3.00815">
        <ele>204.18456</ele>
        <time>2023-05-03T14:18:59.427Z</time>
      </trkpt>
      <trkpt lat="48.1958" lon="-3.00827">
        <ele>204.095653</ele>
        <time>2023-05-03T14:19:03.423Z</time>
      </trkpt>
      <trkpt lat="48.19576" lon="-3.00841">
        <ele>204.004384</ele>
        <time>2023-05-03T14:19:07.429Z</time>
      </trkpt>
      <trkpt lat="48.19571" lon="-3.00853">
        <ele>203.916851</ele>
        <time>2023-05-03T14:19:12.427Z</time>
      </trkpt>
      <trkpt lat="48.19566" lon="-3.00865">
        <ele>203.827396</ele>
        <time>2023-05-03T14:19:17.430Z</time>
      </trkpt>
      <trkpt lat="48.19558" lon="-3.00874">
        <ele>203.735095</ele>
        <time>2023-05-03T14:19:23.430Z</time>
      </trkpt>
      <trkpt lat="48.19549" lon="-3.00874">
        <ele>203.647856</ele>
        <time>2023-05-03T14:19:28.419Z</time>
      </trkpt>
      <trkpt lat="48.19541" lon="-3.00881">
        <ele>203.559515</ele>
        <time>2023-05-03T14:19:32.431Z</time>
      </trkpt>
      <trkpt lat="48.1953" lon="-3.00884">
        <ele>203.456412</ele>
        <time>2023-05-03T14:19:37.428Z</time>
      </trkpt>
      <trkpt lat="48.1952" lon="-3.00889">
        <ele>203.356162</ele>
        <time>2023-05-03T14:19:42.425Z</time>
      </trkpt>
      <trkpt lat="48.1951" lon="-3.00893">
        <ele>203.258956</ele>
        <time>2023-05-03T14:19:46.430Z</time>
      </trkpt>
      <trkpt lat="48.19499" lon="-3.00896">
        <ele>203.15585</ele>
        <time>2023-05-03T14:19:50.425Z</time>
      </trkpt>
      <trkpt lat="48.1949" lon="-3.00898">
        <ele>203.067756</ele>
        <time>2023-05-03T14:19:54.422Z</time>
      </trkpt>
      <trkpt lat="48.1948" lon="-3.009">
        <ele>202.975178</ele>
        <time>2023-05-03T14:20:00.435Z</time>
      </trkpt>
      <trkpt lat="48.19465" lon="-3.009">
        <ele>202.831702</ele>
        <time>2023-05-03T14:20:37.431Z</time>
      </trkpt>
      <trkpt lat="48.19453" lon="-3.00901">
        <ele>202.724545</ele>
        <time>2023-05-03T14:20:40.422Z</time>
      </trkpt>
      <trkpt lat="48.19442" lon="-3.009">
        <ele>202.615687</ele>
        <time>2023-05-03T14:20:43.430Z</time>
      </trkpt>
      <trkpt lat="48.1943" lon="-3.00901">
        <ele>202.430682</ele>
        <time>2023-05-03T14:20:46.430Z</time>
      </trkpt>
      <trkpt lat="48.1942" lon="-3.00901">
        <ele>201.9603</ele>
        <time>2023-05-03T14:20:49.424Z</time>
      </trkpt>
      <trkpt lat="48.19409" lon="-3.009">
        <ele>201.507033</ele>
        <time>2023-05-03T14:20:52.428Z</time>
      </trkpt>
      <trkpt lat="48.19398" lon="-3.00899">
        <ele>201.030378</ele>
        <time>2023-05-03T14:20:55.428Z</time>
      </trkpt>
      <trkpt lat="48.19387" lon="-3.00899">
        <ele>200.564276</ele>
        <time>2023-05-03T14:20:58.428Z</time>
      </trkpt>
      <trkpt lat="48.19376" lon="-3.00899">
        <ele>200.085047</ele>
        <time>2023-05-03T14:21:01.429Z</time>
      </trkpt>
      <trkpt lat="48.19364" lon="-3.00899">
        <ele>199.580108</ele>
        <time>2023-05-03T14:21:04.424Z</time>
      </trkpt>
      <trkpt lat="48.19352" lon="-3.009">
        <ele>199.027703</ele>
        <time>2023-05-03T14:21:07.429Z</time>
      </trkpt>
      <trkpt lat="48.19339" lon="-3.009">
        <ele>198.466578</ele>
        <time>2023-05-03T14:21:10.427Z</time>
      </trkpt>
      <trkpt lat="48.19326" lon="-3.009">
        <ele>197.927118</ele>
        <time>2023-05-03T14:21:13.430Z</time>
      </trkpt>
      <trkpt lat="48.19314" lon="-3.009">
        <ele>197.417897</ele>
        <time>2023-05-03T14:21:16.427Z</time>
      </trkpt>
      <trkpt lat="48.19303" lon="-3.00901">
        <ele>196.924921</ele>
        <time>2023-05-03T14:21:19.424Z</time>
      </trkpt>
      <trkpt lat="48.19291" lon="-3.00903">
        <ele>196.426242</ele>
        <time>2023-05-03T14:21:22.430Z</time>
      </trkpt>
      <trkpt lat="48.19278" lon="-3.00905">
        <ele>195.859884</ele>
        <time>2023-05-03T14:21:25.432Z</time>
      </trkpt>
      <trkpt lat="48.19267" lon="-3.00909">
        <ele>195.361682</ele>
        <time>2023-05-03T14:21:28.415Z</time>
      </trkpt>
      <trkpt lat="48.19256" lon="-3.00914">
        <ele>194.87797</ele>
        <time>2023-05-03T14:21:31.427Z</time>
      </trkpt>
      <trkpt lat="48.19244" lon="-3.00917">
        <ele>194.142244</ele>
        <time>2023-05-03T14:21:34.420Z</time>
      </trkpt>
      <trkpt lat="48.19231" lon="-3.00921">
        <ele>193.327439</ele>
        <time>2023-05-03T14:21:37.423Z</time>
      </trkpt>
      <trkpt lat="48.19219" lon="-3.00924">
        <ele>192.532773</ele>
        <time>2023-05-03T14:21:40.430Z</time>
      </trkpt>
      <trkpt lat="48.19206" lon="-3.00928">
        <ele>191.697443</ele>
        <time>2023-05-03T14:21:43.424Z</time>
      </trkpt>
      <trkpt lat="48.19193" lon="-3.00931">
        <ele>190.905919</ele>
        <time>2023-05-03T14:21:46.429Z</time>
      </trkpt>
      <trkpt lat="48.19181" lon="-3.00935">
        <ele>190.133016</ele>
        <time>2023-05-03T14:21:49.424Z</time>
      </trkpt>
      <trkpt lat="48.19171" lon="-3.0094">
        <ele>189.439296</ele>
        <time>2023-05-03T14:21:52.425Z</time>
      </trkpt>
      <trkpt lat="48.1916" lon="-3.00944">
        <ele>188.760394</ele>
        <time>2023-05-03T14:21:55.434Z</time>
      </trkpt>
      <trkpt lat="48.19151" lon="-3.00949">
        <ele>188.106992</ele>
        <time>2023-05-03T14:21:58.432Z</time>
      </trkpt>
      <trkpt lat="48.19141" lon="-3.00954">
        <ele>187.452158</ele>
        <time>2023-05-03T14:22:01.418Z</time>
      </trkpt>
      <trkpt lat="48.19131" lon="-3.00959">
        <ele>186.843906</ele>
        <time>2023-05-03T14:22:04.425Z</time>
      </trkpt>
      <trkpt lat="48.19121" lon="-3.00963">
        <ele>186.178215</ele>
        <time>2023-05-03T14:22:07.427Z</time>
      </trkpt>
      <trkpt lat="48.1911" lon="-3.00969">
        <ele>185.443681</ele>
        <time>2023-05-03T14:22:10.423Z</time>
      </trkpt>
      <trkpt lat="48.19099" lon="-3.00975">
        <ele>184.712511</ele>
        <time>2023-05-03T14:22:13.429Z</time>
      </trkpt>
      <trkpt lat="48.19089" lon="-3.0098">
        <ele>184.023587</ele>
        <time>2023-05-03T14:22:16.429Z</time>
      </trkpt>
      <trkpt lat="48.19079" lon="-3.00989">
        <ele>183.253428</ele>
        <time>2023-05-03T14:22:19.424Z</time>
      </trkpt>
      <trkpt lat="48.1907" lon="-3.00999">
        <ele>182.421817</ele>
        <time>2023-05-03T14:22:22.426Z</time>
      </trkpt>
      <trkpt lat="48.19062" lon="-3.01011">
        <ele>181.571707</ele>
        <time>2023-05-03T14:22:25.423Z</time>
      </trkpt>
      <trkpt lat="48.19055" lon="-3.01024">
        <ele>180.749263</ele>
        <time>2023-05-03T14:22:28.425Z</time>
      </trkpt>
      <trkpt lat="48.19047" lon="-3.01036">
        <ele>179.940845</ele>
        <time>2023-05-03T14:22:31.429Z</time>
      </trkpt>
      <trkpt lat="48.1904" lon="-3.01049">
        <ele>179.075467</ele>
        <time>2023-05-03T14:22:34.421Z</time>
      </trkpt>
      <trkpt lat="48.19032" lon="-3.01061">
        <ele>178.25681</ele>
        <time>2023-05-03T14:22:38.428Z</time>
      </trkpt>
      <trkpt lat="48.19026" lon="-3.01074">
        <ele>177.475591</ele>
        <time>2023-05-03T14:22:41.423Z</time>
      </trkpt>
      <trkpt lat="48.19019" lon="-3.01087">
        <ele>176.635006</ele>
        <time>2023-05-03T14:22:44.422Z</time>
      </trkpt>
      <trkpt lat="48.19012" lon="-3.011">
        <ele>175.812558</ele>
        <time>2023-05-03T14:22:47.425Z</time>
      </trkpt>
      <trkpt lat="48.19006" lon="-3.01114">
        <ele>174.965163</ele>
        <time>2023-05-03T14:22:50.421Z</time>
      </trkpt>
      <trkpt lat="48.18998" lon="-3.01126">
        <ele>174.134696</ele>
        <time>2023-05-03T14:22:53.424Z</time>
      </trkpt>
      <trkpt lat="48.18992" lon="-3.01139">
        <ele>173.344708</ele>
        <time>2023-05-03T14:22:56.432Z</time>
      </trkpt>
      <trkpt lat="48.18985" lon="-3.01149">
        <ele>172.628105</ele>
        <time>2023-05-03T14:22:59.424Z</time>
      </trkpt>
      <trkpt lat="48.18978" lon="-3.01159">
        <ele>171.915006</ele>
        <time>2023-05-03T14:23:02.427Z</time>
      </trkpt>
      <trkpt lat="48.1897" lon="-3.01169">
        <ele>171.118964</ele>
        <time>2023-05-03T14:23:05.432Z</time>
      </trkpt>
      <trkpt lat="48.1896" lon="-3.01179">
        <ele>170.278358</ele>
        <time>2023-05-03T14:23:08.425Z</time>
      </trkpt>
      <trkpt lat="48.18951" lon="-3.01188">
        <ele>169.001677</ele>
        <time>2023-05-03T14:23:11.424Z</time>
      </trkpt>
      <trkpt lat="48.18942" lon="-3.01198">
        <ele>167.612381</ele>
        <time>2023-05-03T14:23:14.422Z</time>
      </trkpt>
      <trkpt lat="48.18934" lon="-3.01207">
        <ele>166.43307</ele>
        <time>2023-05-03T14:23:17.429Z</time>
      </trkpt>
      <trkpt lat="48.18927" lon="-3.01217">
        <ele>165.177375</ele>
        <time>2023-05-03T14:23:20.427Z</time>
      </trkpt>
      <trkpt lat="48.1892" lon="-3.01226">
        <ele>164.037014</ele>
        <time>2023-05-03T14:23:23.426Z</time>
      </trkpt>
      <trkpt lat="48.18911" lon="-3.01237">
        <ele>162.546189</ele>
        <time>2023-05-03T14:23:27.428Z</time>
      </trkpt>
      <trkpt lat="48.18904" lon="-3.01248">
        <ele>161.326492</ele>
        <time>2023-05-03T14:23:30.422Z</time>
      </trkpt>
      <trkpt lat="48.18896" lon="-3.01257">
        <ele>160.130969</ele>
        <time>2023-05-03T14:23:33.428Z</time>
      </trkpt>
      <trkpt lat="48.18889" lon="-3.01265">
        <ele>158.976084</ele>
        <time>2023-05-03T14:23:36.421Z</time>
      </trkpt>
      <trkpt lat="48.18882" lon="-3.01276">
        <ele>157.706434</ele>
        <time>2023-05-03T14:23:39.424Z</time>
      </trkpt>
      <trkpt lat="48.18874" lon="-3.01285">
        <ele>156.467522</ele>
        <time>2023-05-03T14:23:42.429Z</time>
      </trkpt>
      <trkpt lat="48.18867" lon="-3.01294">
        <ele>155.285648</ele>
        <time>2023-05-03T14:23:45.434Z</time>
      </trkpt>
      <trkpt lat="48.1886" lon="-3.01304">
        <ele>154.133133</ele>
        <time>2023-05-03T14:23:48.421Z</time>
      </trkpt>
      <trkpt lat="48.18852" lon="-3.01316">
        <ele>152.728705</ele>
        <time>2023-05-03T14:23:52.426Z</time>
      </trkpt>
      <trkpt lat="48.18848" lon="-3.01332">
        <ele>151.311668</ele>
        <time>2023-05-03T14:23:56.421Z</time>
      </trkpt>
      <trkpt lat="48.18854" lon="-3.01348">
        <ele>149.720465</ele>
        <time>2023-05-03T14:23:59.416Z</time>
      </trkpt>
      <trkpt lat="48.18865" lon="-3.01359">
        <ele>148.086346</ele>
        <time>2023-05-03T14:24:01.422Z</time>
      </trkpt>
      <trkpt lat="48.18879" lon="-3.01371">
        <ele>146.928192</ele>
        <time>2023-05-03T14:24:03.419Z</time>
      </trkpt>
      <trkpt lat="48.18894" lon="-3.01387">
        <ele>145.789604</ele>
        <time>2023-05-03T14:24:05.419Z</time>
      </trkpt>
      <trkpt lat="48.18902" lon="-3.01396">
        <ele>145.153144</ele>
        <time>2023-05-03T14:24:06.424Z</time>
      </trkpt>
      <trkpt lat="48.1891" lon="-3.01408">
        <ele>144.498511</ele>
        <time>2023-05-03T14:24:07.419Z</time>
      </trkpt>
      <trkpt lat="48.18917" lon="-3.0142">
        <ele>143.808061</ele>
        <time>2023-05-03T14:24:08.424Z</time>
      </trkpt>
      <trkpt lat="48.18925" lon="-3.01429">
        <ele>143.226758</ele>
        <time>2023-05-03T14:24:09.428Z</time>
      </trkpt>
      <trkpt lat="48.18935" lon="-3.01448">
        <ele>142.197905</ele>
        <time>2023-05-03T14:24:11.425Z</time>
      </trkpt>
      <trkpt lat="48.18944" lon="-3.01464">
        <ele>141.345846</ele>
        <time>2023-05-03T14:24:13.425Z</time>
      </trkpt>
      <trkpt lat="48.18951" lon="-3.01479">
        <ele>140.599539</ele>
        <time>2023-05-03T14:24:15.424Z</time>
      </trkpt>
      <trkpt lat="48.18957" lon="-3.01493">
        <ele>139.904872</ele>
        <time>2023-05-03T14:24:17.429Z</time>
      </trkpt>
      <trkpt lat="48.18963" lon="-3.01509">
        <ele>139.177097</ele>
        <time>2023-05-03T14:24:19.426Z</time>
      </trkpt>
      <trkpt lat="48.18969" lon="-3.01525">
        <ele>138.394812</ele>
        <time>2023-05-03T14:24:21.433Z</time>
      </trkpt>
      <trkpt lat="48.18975" lon="-3.01542">
        <ele>137.608939</ele>
        <time>2023-05-03T14:24:23.425Z</time>
      </trkpt>
      <trkpt lat="48.18981" lon="-3.01557">
        <ele>136.923062</ele>
        <time>2023-05-03T14:24:25.427Z</time>
      </trkpt>
      <trkpt lat="48.18986" lon="-3.01571">
        <ele>136.441965</ele>
        <time>2023-05-03T14:24:27.425Z</time>
      </trkpt>
      <trkpt lat="48.18988" lon="-3.01585">
        <ele>136.176378</ele>
        <time>2023-05-03T14:24:29.419Z</time>
      </trkpt>
      <trkpt lat="48.18992" lon="-3.01599">
        <ele>135.882753</ele>
        <time>2023-05-03T14:24:31.423Z</time>
      </trkpt>
      <trkpt lat="48.18994" lon="-3.01615">
        <ele>135.572194</ele>
        <time>2023-05-03T14:24:33.428Z</time>
      </trkpt>
      <trkpt lat="48.18996" lon="-3.0163">
        <ele>135.285042</ele>
        <time>2023-05-03T14:24:35.423Z</time>
      </trkpt>
      <trkpt lat="48.18997" lon="-3.01644">
        <ele>135.014639</ele>
        <time>2023-05-03T14:24:37.431Z</time>
      </trkpt>
      <trkpt lat="48.19001" lon="-3.01659">
        <ele>134.719109</ele>
        <time>2023-05-03T14:24:39.423Z</time>
      </trkpt>
      <trkpt lat="48.19002" lon="-3.01672">
        <ele>134.461314</ele>
        <time>2023-05-03T14:24:41.413Z</time>
      </trkpt>
      <trkpt lat="48.19003" lon="-3.0169">
        <ele>134.13005</ele>
        <time>2023-05-03T14:24:44.425Z</time>
      </trkpt>
      <trkpt lat="48.19006" lon="-3.01703">
        <ele>133.873516</ele>
        <time>2023-05-03T14:24:47.425Z</time>
      </trkpt>
      <trkpt lat="48.19008" lon="-3.01724">
        <ele>133.470899</ele>
        <time>2023-05-03T14:26:18.421Z</time>
      </trkpt>
      <trkpt lat="48.16775" lon="-2.99517">
        <ele>120.929367</ele>
        <time>2023-05-03T14:46:51.412Z</time>
      </trkpt>
      <trkpt lat="48.1677" lon="-2.99528">
        <ele>121.299762</ele>
        <time>2023-05-03T14:47:31.417Z</time>
      </trkpt>
      <trkpt lat="48.16753" lon="-2.99536">
        <ele>122.012599</ele>
        <time>2023-05-03T14:49:12.422Z</time>
      </trkpt>
      <trkpt lat="48.16743" lon="-2.9954">
        <ele>122.450027</ele>
        <time>2023-05-03T14:49:16.424Z</time>
      </trkpt>
      <trkpt lat="48.16734" lon="-2.99545">
        <ele>122.84096</ele>
        <time>2023-05-03T14:49:20.426Z</time>
      </trkpt>
      <trkpt lat="48.16725" lon="-2.99549">
        <ele>123.216293</ele>
        <time>2023-05-03T14:49:24.426Z</time>
      </trkpt>
      <trkpt lat="48.16715" lon="-2.99556">
        <ele>123.68004</ele>
        <time>2023-05-03T14:49:29.425Z</time>
      </trkpt>
      <trkpt lat="48.16706" lon="-2.99562">
        <ele>124.066005</ele>
        <time>2023-05-03T14:49:33.425Z</time>
      </trkpt>
      <trkpt lat="48.16698" lon="-2.99567">
        <ele>124.455745</ele>
        <time>2023-05-03T14:49:37.426Z</time>
      </trkpt>
      <trkpt lat="48.16687" lon="-2.99573">
        <ele>124.699424</ele>
        <time>2023-05-03T14:49:41.423Z</time>
      </trkpt>
      <trkpt lat="48.16677" lon="-2.99581">
        <ele>124.653893</ele>
        <time>2023-05-03T14:49:45.426Z</time>
      </trkpt>
      <trkpt lat="48.16668" lon="-2.99586">
        <ele>124.613013</ele>
        <time>2023-05-03T14:49:48.418Z</time>
      </trkpt>
      <trkpt lat="48.16659" lon="-2.99591">
        <ele>124.573364</ele>
        <time>2023-05-03T14:49:51.418Z</time>
      </trkpt>
      <trkpt lat="48.16649" lon="-2.99598">
        <ele>124.527659</ele>
        <time>2023-05-03T14:49:55.424Z</time>
      </trkpt>
      <trkpt lat="48.16639" lon="-2.99604">
        <ele>124.486379</ele>
        <time>2023-05-03T14:49:59.424Z</time>
      </trkpt>
      <trkpt lat="48.16629" lon="-2.99611">
        <ele>124.442302</ele>
        <time>2023-05-03T14:50:03.419Z</time>
      </trkpt>
      <trkpt lat="48.16619" lon="-2.99616">
        <ele>124.39819</ele>
        <time>2023-05-03T14:50:07.409Z</time>
      </trkpt>
      <trkpt lat="48.1661" lon="-2.9962">
        <ele>124.358805</ele>
        <time>2023-05-03T14:50:10.428Z</time>
      </trkpt>
      <trkpt lat="48.16601" lon="-2.99626">
        <ele>124.321146</ele>
        <time>2023-05-03T14:50:13.417Z</time>
      </trkpt>
      <trkpt lat="48.16591" lon="-2.99633">
        <ele>124.275959</ele>
        <time>2023-05-03T14:50:17.423Z</time>
      </trkpt>
      <trkpt lat="48.1658" lon="-2.9964">
        <ele>124.22691</ele>
        <time>2023-05-03T14:50:21.429Z</time>
      </trkpt>
      <trkpt lat="48.1657" lon="-2.99647">
        <ele>124.180879</ele>
        <time>2023-05-03T14:50:25.425Z</time>
      </trkpt>
      <trkpt lat="48.1656" lon="-2.99653">
        <ele>124.13736</ele>
        <time>2023-05-03T14:50:29.420Z</time>
      </trkpt>
      <trkpt lat="48.1655" lon="-2.99659">
        <ele>124.093136</ele>
        <time>2023-05-03T14:50:33.418Z</time>
      </trkpt>
      <trkpt lat="48.1654" lon="-2.99664">
        <ele>124.050353</ele>
        <time>2023-05-03T14:50:37.425Z</time>
      </trkpt>
      <trkpt lat="48.1653" lon="-2.99669">
        <ele>124.009949</ele>
        <time>2023-05-03T14:50:41.427Z</time>
      </trkpt>
      <trkpt lat="48.1652" lon="-2.99676">
        <ele>123.842722</ele>
        <time>2023-05-03T14:50:45.430Z</time>
      </trkpt>
      <trkpt lat="48.16511" lon="-2.99681">
        <ele>123.594023</ele>
        <time>2023-05-03T14:50:50.416Z</time>
      </trkpt>
      <trkpt lat="48.165" lon="-2.99688">
        <ele>123.292817</ele>
        <time>2023-05-03T14:50:55.423Z</time>
      </trkpt>
      <trkpt lat="48.1649" lon="-2.99694">
        <ele>123.028038</ele>
        <time>2023-05-03T14:50:58.423Z</time>
      </trkpt>
      <trkpt lat="48.16479" lon="-2.997">
        <ele>122.743998</ele>
        <time>2023-05-03T14:51:01.425Z</time>
      </trkpt>
      <trkpt lat="48.16469" lon="-2.99706">
        <ele>122.45993</ele>
        <time>2023-05-03T14:51:04.425Z</time>
      </trkpt>
      <trkpt lat="48.16459" lon="-2.99712">
        <ele>122.198282</ele>
        <time>2023-05-03T14:51:07.423Z</time>
      </trkpt>
      <trkpt lat="48.1645" lon="-2.99718">
        <ele>121.931729</ele>
        <time>2023-05-03T14:51:10.427Z</time>
      </trkpt>
      <trkpt lat="48.1644" lon="-2.99723">
        <ele>121.677518</ele>
        <time>2023-05-03T14:51:13.418Z</time>
      </trkpt>
      <trkpt lat="48.16429" lon="-2.9973">
        <ele>121.37374</ele>
        <time>2023-05-03T14:51:17.424Z</time>
      </trkpt>
      <trkpt lat="48.16419" lon="-2.99734">
        <ele>121.105047</ele>
        <time>2023-05-03T14:51:21.423Z</time>
      </trkpt>
      <trkpt lat="48.1641" lon="-2.99739">
        <ele>120.866757</ele>
        <time>2023-05-03T14:51:24.416Z</time>
      </trkpt>
      <trkpt lat="48.164" lon="-2.99746">
        <ele>120.591254</ele>
        <time>2023-05-03T14:51:28.424Z</time>
      </trkpt>
      <trkpt lat="48.16391" lon="-2.99754">
        <ele>120.326225</ele>
        <time>2023-05-03T14:51:32.419Z</time>
      </trkpt>
      <trkpt lat="48.1638" lon="-2.99761">
        <ele>120.037989</ele>
        <time>2023-05-03T14:51:36.424Z</time>
      </trkpt>
      <trkpt lat="48.1637" lon="-2.99768">
        <ele>119.753478</ele>
        <time>2023-05-03T14:51:40.423Z</time>
      </trkpt>
      <trkpt lat="48.16361" lon="-2.99776">
        <ele>119.499704</ele>
        <time>2023-05-03T14:51:43.415Z</time>
      </trkpt>
      <trkpt lat="48.16352" lon="-2.9978">
        <ele>119.511535</ele>
        <time>2023-05-03T14:51:46.424Z</time>
      </trkpt>
      <trkpt lat="48.16343" lon="-2.99784">
        <ele>119.568979</ele>
        <time>2023-05-03T14:51:49.419Z</time>
      </trkpt>
      <trkpt lat="48.16333" lon="-2.99791">
        <ele>119.639326</ele>
        <time>2023-05-03T14:51:53.419Z</time>
      </trkpt>
      <trkpt lat="48.16324" lon="-2.99796">
        <ele>119.696701</ele>
        <time>2023-05-03T14:51:56.424Z</time>
      </trkpt>
      <trkpt lat="48.16314" lon="-2.99801">
        <ele>119.760053</ele>
        <time>2023-05-03T14:51:59.419Z</time>
      </trkpt>
      <trkpt lat="48.16305" lon="-2.99805">
        <ele>119.819921</ele>
        <time>2023-05-03T14:52:03.419Z</time>
      </trkpt>
      <trkpt lat="48.16297" lon="-2.99811">
        <ele>119.877445</ele>
        <time>2023-05-03T14:52:06.425Z</time>
      </trkpt>
      <trkpt lat="48.16288" lon="-2.99816">
        <ele>119.93773</ele>
        <time>2023-05-03T14:52:09.409Z</time>
      </trkpt>
      <trkpt lat="48.16277" lon="-2.99822">
        <ele>120.00588</ele>
        <time>2023-05-03T14:52:13.417Z</time>
      </trkpt>
      <trkpt lat="48.16268" lon="-2.99827">
        <ele>120.069417</ele>
        <time>2023-05-03T14:52:16.423Z</time>
      </trkpt>
      <trkpt lat="48.16258" lon="-2.99832">
        <ele>120.132182</ele>
        <time>2023-05-03T14:52:19.418Z</time>
      </trkpt>
      <trkpt lat="48.16248" lon="-2.99841">
        <ele>120.208294</ele>
        <time>2023-05-03T14:52:23.425Z</time>
      </trkpt>
      <trkpt lat="48.16238" lon="-2.99847">
        <ele>120.276662</ele>
        <time>2023-05-03T14:52:27.426Z</time>
      </trkpt>
      <trkpt lat="48.16228" lon="-2.99855">
        <ele>120.345845</ele>
        <time>2023-05-03T14:52:32.418Z</time>
      </trkpt>
      <trkpt lat="48.16217" lon="-2.99861">
        <ele>120.417239</ele>
        <time>2023-05-03T14:52:36.423Z</time>
      </trkpt>
      <trkpt lat="48.16208" lon="-2.99868">
        <ele>120.481419</ele>
        <time>2023-05-03T14:52:40.421Z</time>
      </trkpt>
      <trkpt lat="48.16197" lon="-2.99874">
        <ele>120.551035</ele>
        <time>2023-05-03T14:52:43.423Z</time>
      </trkpt>
      <trkpt lat="48.16188" lon="-2.9988">
        <ele>120.610756</ele>
        <time>2023-05-03T14:52:46.426Z</time>
      </trkpt>
      <trkpt lat="48.16179" lon="-2.99885">
        <ele>120.663942</ele>
        <time>2023-05-03T14:52:49.418Z</time>
      </trkpt>
      <trkpt lat="48.16169" lon="-2.99891">
        <ele>120.723304</ele>
        <time>2023-05-03T14:52:52.420Z</time>
      </trkpt>
      <trkpt lat="48.16158" lon="-2.99898">
        <ele>120.789927</ele>
        <time>2023-05-03T14:52:56.422Z</time>
      </trkpt>
      <trkpt lat="48.16147" lon="-2.99904">
        <ele>120.855126</ele>
        <time>2023-05-03T14:53:00.421Z</time>
      </trkpt>
      <trkpt lat="48.16137" lon="-2.99909">
        <ele>120.913184</ele>
        <time>2023-05-03T14:53:03.416Z</time>
      </trkpt>
      <trkpt lat="48.16128" lon="-2.99915">
        <ele>120.969475</ele>
        <time>2023-05-03T14:53:06.419Z</time>
      </trkpt>
      <trkpt lat="48.16119" lon="-2.99921">
        <ele>121.022102</ele>
        <time>2023-05-03T14:53:09.421Z</time>
      </trkpt>
      <trkpt lat="48.1611" lon="-2.99926">
        <ele>121.076921</ele>
        <time>2023-05-03T14:53:13.418Z</time>
      </trkpt>
      <trkpt lat="48.16101" lon="-2.99932">
        <ele>121.131302</ele>
        <time>2023-05-03T14:53:16.421Z</time>
      </trkpt>
      <trkpt lat="48.16092" lon="-2.99937">
        <ele>121.184866</ele>
        <time>2023-05-03T14:53:19.417Z</time>
      </trkpt>
      <trkpt lat="48.16084" lon="-2.99943">
        <ele>121.235453</ele>
        <time>2023-05-03T14:53:23.421Z</time>
      </trkpt>
      <trkpt lat="48.16075" lon="-2.99949">
        <ele>121.291903</ele>
        <time>2023-05-03T14:53:27.418Z</time>
      </trkpt>
      <trkpt lat="48.16064" lon="-2.99954">
        <ele>121.353852</ele>
        <time>2023-05-03T14:53:31.420Z</time>
      </trkpt>
      <trkpt lat="48.16055" lon="-2.99959">
        <ele>121.411505</ele>
        <time>2023-05-03T14:53:35.424Z</time>
      </trkpt>
      <trkpt lat="48.16046" lon="-2.99965">
        <ele>121.465152</ele>
        <time>2023-05-03T14:53:39.419Z</time>
      </trkpt>
      <trkpt lat="48.16035" lon="-2.99972">
        <ele>121.531183</ele>
        <time>2023-05-03T14:53:43.419Z</time>
      </trkpt>
      <trkpt lat="48.16026" lon="-2.99977">
        <ele>121.578221</ele>
        <time>2023-05-03T14:53:46.419Z</time>
      </trkpt>
      <trkpt lat="48.16017" lon="-2.99979">
        <ele>121.505021</ele>
        <time>2023-05-03T14:53:49.420Z</time>
      </trkpt>
      <trkpt lat="48.16006" lon="-2.99983">
        <ele>121.416668</ele>
        <time>2023-05-03T14:53:53.421Z</time>
      </trkpt>
      <trkpt lat="48.15995" lon="-2.99985">
        <ele>121.328881</ele>
        <time>2023-05-03T14:53:57.423Z</time>
      </trkpt>
      <trkpt lat="48.15985" lon="-2.99987">
        <ele>121.250994</ele>
        <time>2023-05-03T14:54:00.424Z</time>
      </trkpt>
      <trkpt lat="48.15976" lon="-2.99989">
        <ele>121.174627</ele>
        <time>2023-05-03T14:54:03.425Z</time>
      </trkpt>
      <trkpt lat="48.15966" lon="-2.99991">
        <ele>121.096677</ele>
        <time>2023-05-03T14:54:07.420Z</time>
      </trkpt>
      <trkpt lat="48.15956" lon="-2.99992">
        <ele>121.019096</ele>
        <time>2023-05-03T14:54:11.417Z</time>
      </trkpt>
      <trkpt lat="48.15945" lon="-2.99995">
        <ele>120.928359</ele>
        <time>2023-05-03T14:54:15.429Z</time>
      </trkpt>
      <trkpt lat="48.15935" lon="-2.99997">
        <ele>120.849677</ele>
        <time>2023-05-03T14:54:19.422Z</time>
      </trkpt>
      <trkpt lat="48.15924" lon="-3.00002">
        <ele>120.754032</ele>
        <time>2023-05-03T14:54:23.421Z</time>
      </trkpt>
      <trkpt lat="48.15914" lon="-3.00006">
        <ele>120.674208</ele>
        <time>2023-05-03T14:54:26.426Z</time>
      </trkpt>
      <trkpt lat="48.15904" lon="-3.00011">
        <ele>120.591818</ele>
        <time>2023-05-03T14:54:29.423Z</time>
      </trkpt>
      <trkpt lat="48.15895" lon="-3.00018">
        <ele>120.51046</ele>
        <time>2023-05-03T14:54:32.419Z</time>
      </trkpt>
      <trkpt lat="48.15888" lon="-3.00027">
        <ele>120.435469</ele>
        <time>2023-05-03T14:54:35.421Z</time>
      </trkpt>
      <trkpt lat="48.1588" lon="-3.00038">
        <ele>120.350063</ele>
        <time>2023-05-03T14:54:39.410Z</time>
      </trkpt>
      <trkpt lat="48.15872" lon="-3.0005">
        <ele>120.258761</ele>
        <time>2023-05-03T14:54:43.424Z</time>
      </trkpt>
      <trkpt lat="48.15866" lon="-3.00061">
        <ele>120.179515</ele>
        <time>2023-05-03T14:54:47.421Z</time>
      </trkpt>
      <trkpt lat="48.1586" lon="-3.00072">
        <ele>120.148779</ele>
        <time>2023-05-03T14:54:50.413Z</time>
      </trkpt>
      <trkpt lat="48.15854" lon="-3.00086">
        <ele>120.15023</ele>
        <time>2023-05-03T14:54:54.424Z</time>
      </trkpt>
      <trkpt lat="48.15849" lon="-3.00101">
        <ele>120.151714</ele>
        <time>2023-05-03T14:54:58.422Z</time>
      </trkpt>
      <trkpt lat="48.15845" lon="-3.00115">
        <ele>120.153035</ele>
        <time>2023-05-03T14:55:02.416Z</time>
      </trkpt>
      <trkpt lat="48.15843" lon="-3.00131">
        <ele>120.154457</ele>
        <time>2023-05-03T14:55:07.426Z</time>
      </trkpt>
      <trkpt lat="48.15842" lon="-3.00146">
        <ele>120.155779</ele>
        <time>2023-05-03T14:55:11.417Z</time>
      </trkpt>
      <trkpt lat="48.15839" lon="-3.00163">
        <ele>120.157264</ele>
        <time>2023-05-03T14:55:15.417Z</time>
      </trkpt>
      <trkpt lat="48.15838" lon="-3.00176">
        <ele>120.158488</ele>
        <time>2023-05-03T14:55:18.422Z</time>
      </trkpt>
      <trkpt lat="48.15836" lon="-3.00191">
        <ele>120.1598</ele>
        <time>2023-05-03T14:55:21.423Z</time>
      </trkpt>
      <trkpt lat="48.15835" lon="-3.00206">
        <ele>120.161135</ele>
        <time>2023-05-03T14:55:24.425Z</time>
      </trkpt>
      <trkpt lat="48.15834" lon="-3.00223">
        <ele>120.162625</ele>
        <time>2023-05-03T14:55:28.423Z</time>
      </trkpt>
      <trkpt lat="48.15834" lon="-3.00237">
        <ele>120.163835</ele>
        <time>2023-05-03T14:55:32.418Z</time>
      </trkpt>
      <trkpt lat="48.15833" lon="-3.00254">
        <ele>120.165311</ele>
        <time>2023-05-03T14:55:36.427Z</time>
      </trkpt>
      <trkpt lat="48.15833" lon="-3.00269">
        <ele>120.166642</ele>
        <time>2023-05-03T14:55:40.419Z</time>
      </trkpt>
      <trkpt lat="48.15836" lon="-3.00284">
        <ele>120.168055</ele>
        <time>2023-05-03T14:55:44.426Z</time>
      </trkpt>
      <trkpt lat="48.15839" lon="-3.00299">
        <ele>120.169423</ele>
        <time>2023-05-03T14:55:48.421Z</time>
      </trkpt>
      <trkpt lat="48.15843" lon="-3.00316">
        <ele>120.170915</ele>
        <time>2023-05-03T14:55:52.418Z</time>
      </trkpt>
      <trkpt lat="48.15845" lon="-3.00331">
        <ele>120.115042</ele>
        <time>2023-05-03T14:55:56.427Z</time>
      </trkpt>
      <trkpt lat="48.15846" lon="-3.00345">
        <ele>119.983423</ele>
        <time>2023-05-03T14:56:01.431Z</time>
      </trkpt>
      <trkpt lat="48.15848" lon="-3.00359">
        <ele>119.860423</ele>
        <time>2023-05-03T14:56:05.420Z</time>
      </trkpt>
      <trkpt lat="48.15851" lon="-3.00374">
        <ele>119.719154</ele>
        <time>2023-05-03T14:56:10.418Z</time>
      </trkpt>
      <trkpt lat="48.15853" lon="-3.00389">
        <ele>119.578698</ele>
        <time>2023-05-03T14:56:14.426Z</time>
      </trkpt>
      <trkpt lat="48.15857" lon="-3.00404">
        <ele>119.432508</ele>
        <time>2023-05-03T14:56:18.424Z</time>
      </trkpt>
      <trkpt lat="48.15862" lon="-3.00419">
        <ele>119.283656</ele>
        <time>2023-05-03T14:56:22.423Z</time>
      </trkpt>
      <trkpt lat="48.15867" lon="-3.00432">
        <ele>119.149786</ele>
        <time>2023-05-03T14:56:25.427Z</time>
      </trkpt>
      <trkpt lat="48.15873" lon="-3.00448">
        <ele>118.9902</ele>
        <time>2023-05-03T14:56:29.425Z</time>
      </trkpt>
      <trkpt lat="48.15877" lon="-3.0046">
        <ele>118.869075</ele>
        <time>2023-05-03T14:56:32.422Z</time>
      </trkpt>
      <trkpt lat="48.15882" lon="-3.00475">
        <ele>118.718813</ele>
        <time>2023-05-03T14:56:36.429Z</time>
      </trkpt>
      <trkpt lat="48.15886" lon="-3.0049">
        <ele>118.576146</ele>
        <time>2023-05-03T14:56:40.421Z</time>
      </trkpt>
      <trkpt lat="48.15891" lon="-3.00504">
        <ele>118.437281</ele>
        <time>2023-05-03T14:56:44.419Z</time>
      </trkpt>
      <trkpt lat="48.15895" lon="-3.00516">
        <ele>118.316156</ele>
        <time>2023-05-03T14:56:47.422Z</time>
      </trkpt>
      <trkpt lat="48.15899" lon="-3.00532">
        <ele>118.162847</ele>
        <time>2023-05-03T14:56:51.417Z</time>
      </trkpt>
      <trkpt lat="48.15903" lon="-3.00547">
        <ele>118.01696</ele>
        <time>2023-05-03T14:56:55.414Z</time>
      </trkpt>
      <trkpt lat="48.15906" lon="-3.0056">
        <ele>117.893597</ele>
        <time>2023-05-03T14:56:58.424Z</time>
      </trkpt>
      <trkpt lat="48.15912" lon="-3.00575">
        <ele>117.765336</ele>
        <time>2023-05-03T14:57:02.424Z</time>
      </trkpt>
      <trkpt lat="48.15916" lon="-3.0059">
        <ele>117.782212</ele>
        <time>2023-05-03T14:57:06.414Z</time>
      </trkpt>
      <trkpt lat="48.1592" lon="-3.00606">
        <ele>117.801131</ele>
        <time>2023-05-03T14:57:10.434Z</time>
      </trkpt>
      <trkpt lat="48.15924" lon="-3.00621">
        <ele>117.818903</ele>
        <time>2023-05-03T14:57:14.432Z</time>
      </trkpt>
      <trkpt lat="48.15926" lon="-3.00637">
        <ele>117.83705</ele>
        <time>2023-05-03T14:57:19.423Z</time>
      </trkpt>
      <trkpt lat="48.15928" lon="-3.00652">
        <ele>117.853243</ele>
        <time>2023-05-03T14:57:23.436Z</time>
      </trkpt>
      <trkpt lat="48.15929" lon="-3.00668">
        <ele>117.870985</ele>
        <time>2023-05-03T14:57:27.420Z</time>
      </trkpt>
      <trkpt lat="48.15929" lon="-3.00684">
        <ele>117.888622</ele>
        <time>2023-05-03T14:57:31.423Z</time>
      </trkpt>
      <trkpt lat="48.1593" lon="-3.00702">
        <ele>117.907322</ele>
        <time>2023-05-03T14:57:35.424Z</time>
      </trkpt>
      <trkpt lat="48.15931" lon="-3.00716">
        <ele>117.922757</ele>
        <time>2023-05-03T14:57:38.425Z</time>
      </trkpt>
      <trkpt lat="48.15931" lon="-3.00732">
        <ele>117.940309</ele>
        <time>2023-05-03T14:57:42.429Z</time>
      </trkpt>
      <trkpt lat="48.15931" lon="-3.00746">
        <ele>117.956311</ele>
        <time>2023-05-03T14:57:46.424Z</time>
      </trkpt>
      <trkpt lat="48.1593" lon="-3.00764">
        <ele>117.975622</ele>
        <time>2023-05-03T14:57:50.421Z</time>
      </trkpt>
      <trkpt lat="48.15931" lon="-3.00781">
        <ele>117.994499</ele>
        <time>2023-05-03T14:57:54.426Z</time>
      </trkpt>
      <trkpt lat="48.15931" lon="-3.00795">
        <ele>118.009335</ele>
        <time>2023-05-03T14:57:57.429Z</time>
      </trkpt>
      <trkpt lat="48.15932" lon="-3.00808">
        <ele>118.024121</ele>
        <time>2023-05-03T14:58:00.425Z</time>
      </trkpt>
      <trkpt lat="48.15933" lon="-3.00825">
        <ele>118.04252</ele>
        <time>2023-05-03T14:58:04.426Z</time>
      </trkpt>
      <trkpt lat="48.12144" lon="-3.00441">
        <ele>112.106282</ele>
        <time>2023-05-03T15:37:18.422Z</time>
      </trkpt>
      <trkpt lat="48.12145" lon="-3.00427">
        <ele>112.134073</ele>
        <time>2023-05-03T15:37:21.414Z</time>
      </trkpt>
      <trkpt lat="48.12148" lon="-3.00413">
        <ele>112.163798</ele>
        <time>2023-05-03T15:37:24.416Z</time>
      </trkpt>
      <trkpt lat="48.12151" lon="-3.00396">
        <ele>112.197085</ele>
        <time>2023-05-03T15:37:27.418Z</time>
      </trkpt>
      <trkpt lat="48.12154" lon="-3.00379">
        <ele>112.231851</ele>
        <time>2023-05-03T15:37:30.418Z</time>
      </trkpt>
      <trkpt lat="48.12157" lon="-3.00362">
        <ele>112.266806</ele>
        <time>2023-05-03T15:37:33.419Z</time>
      </trkpt>
      <trkpt lat="48.12162" lon="-3.00347">
        <ele>112.299869</ele>
        <time>2023-05-03T15:37:36.416Z</time>
      </trkpt>
      <trkpt lat="48.12168" lon="-3.00334">
        <ele>112.330726</ele>
        <time>2023-05-03T15:37:39.420Z</time>
      </trkpt>
      <trkpt lat="48.12175" lon="-3.00321">
        <ele>112.364024</ele>
        <time>2023-05-03T15:37:42.417Z</time>
      </trkpt>
      <trkpt lat="48.12182" lon="-3.00308">
        <ele>112.396417</ele>
        <time>2023-05-03T15:37:46.427Z</time>
      </trkpt>
      <trkpt lat="48.12189" lon="-3.00298">
        <ele>112.424634</ele>
        <time>2023-05-03T15:37:49.418Z</time>
      </trkpt>
      <trkpt lat="48.12196" lon="-3.00287">
        <ele>112.453706</ele>
        <time>2023-05-03T15:37:52.414Z</time>
      </trkpt>
      <trkpt lat="48.12203" lon="-3.00275">
        <ele>112.485758</ele>
        <time>2023-05-03T15:37:56.411Z</time>
      </trkpt>
      <trkpt lat="48.12211" lon="-3.00262">
        <ele>112.520688</ele>
        <time>2023-05-03T15:38:00.424Z</time>
      </trkpt>
      <trkpt lat="48.12219" lon="-3.00249">
        <ele>112.554259</ele>
        <time>2023-05-03T15:38:03.418Z</time>
      </trkpt>
      <trkpt lat="48.12225" lon="-3.00239">
        <ele>112.581926</ele>
        <time>2023-05-03T15:38:06.424Z</time>
      </trkpt>
      <trkpt lat="48.12233" lon="-3.00227">
        <ele>112.562141</ele>
        <time>2023-05-03T15:38:10.426Z</time>
      </trkpt>
      <trkpt lat="48.12241" lon="-3.00217">
        <ele>112.476398</ele>
        <time>2023-05-03T15:38:13.425Z</time>
      </trkpt>
      <trkpt lat="48.12249" lon="-3.00207">
        <ele>112.389239</ele>
        <time>2023-05-03T15:38:16.416Z</time>
      </trkpt>
      <trkpt lat="48.12256" lon="-3.00196">
        <ele>112.307088</ele>
        <time>2023-05-03T15:38:19.425Z</time>
      </trkpt>
      <trkpt lat="48.12263" lon="-3.00184">
        <ele>112.218295</ele>
        <time>2023-05-03T15:38:22.418Z</time>
      </trkpt>
      <trkpt lat="48.12271" lon="-3.0017">
        <ele>112.11977</ele>
        <time>2023-05-03T15:38:25.423Z</time>
      </trkpt>
      <trkpt lat="48.12278" lon="-3.00158">
        <ele>112.036103</ele>
        <time>2023-05-03T15:38:28.422Z</time>
      </trkpt>
      <trkpt lat="48.12285" lon="-3.00147">
        <ele>111.953505</ele>
        <time>2023-05-03T15:38:31.417Z</time>
      </trkpt>
      <trkpt lat="48.12292" lon="-3.00134">
        <ele>111.861958</ele>
        <time>2023-05-03T15:38:35.424Z</time>
      </trkpt>
      <trkpt lat="48.12299" lon="-3.00122">
        <ele>111.774767</ele>
        <time>2023-05-03T15:38:39.420Z</time>
      </trkpt>
      <trkpt lat="48.12306" lon="-3.00111">
        <ele>111.690422</ele>
        <time>2023-05-03T15:38:42.411Z</time>
      </trkpt>
      <trkpt lat="48.12314" lon="-3.00098">
        <ele>111.598242</ele>
        <time>2023-05-03T15:38:45.425Z</time>
      </trkpt>
      <trkpt lat="48.1232" lon="-3.00086">
        <ele>111.518865</ele>
        <time>2023-05-03T15:38:48.420Z</time>
      </trkpt>
      <trkpt lat="48.12325" lon="-3.00074">
        <ele>111.439927</ele>
        <time>2023-05-03T15:38:51.426Z</time>
      </trkpt>
      <trkpt lat="48.12333" lon="-3.0006">
        <ele>111.341929</ele>
        <time>2023-05-03T15:38:54.426Z</time>
      </trkpt>
      <trkpt lat="48.12338" lon="-3.00048">
        <ele>111.264805</ele>
        <time>2023-05-03T15:38:57.419Z</time>
      </trkpt>
      <trkpt lat="48.12343" lon="-3.00037">
        <ele>111.191683</ele>
        <time>2023-05-03T15:39:00.421Z</time>
      </trkpt>
      <trkpt lat="48.12347" lon="-3.00023">
        <ele>111.14646</ele>
        <time>2023-05-03T15:39:04.425Z</time>
      </trkpt>
      <trkpt lat="48.12351" lon="-3.00009">
        <ele>111.165367</ele>
        <time>2023-05-03T15:39:07.417Z</time>
      </trkpt>
      <trkpt lat="48.12356" lon="-2.99996">
        <ele>111.183288</ele>
        <time>2023-05-03T15:39:10.427Z</time>
      </trkpt>
      <trkpt lat="48.1236" lon="-2.99983">
        <ele>111.200859</ele>
        <time>2023-05-03T15:39:13.420Z</time>
      </trkpt>
      <trkpt lat="48.12364" lon="-2.9997">
        <ele>111.218651</ele>
        <time>2023-05-03T15:39:16.414Z</time>
      </trkpt>
      <trkpt lat="48.12367" lon="-2.99957">
        <ele>111.235698</ele>
        <time>2023-05-03T15:39:19.418Z</time>
      </trkpt>
      <trkpt lat="48.12371" lon="-2.99941">
        <ele>111.256332</ele>
        <time>2023-05-03T15:39:22.414Z</time>
      </trkpt>
      <trkpt lat="48.12374" lon="-2.99924">
        <ele>111.277514</ele>
        <time>2023-05-03T15:39:25.427Z</time>
      </trkpt>
      <trkpt lat="48.12377" lon="-2.99906">
        <ele>111.300577</ele>
        <time>2023-05-03T15:39:28.417Z</time>
      </trkpt>
      <trkpt lat="48.1238" lon="-2.99887">
        <ele>111.323722</ele>
        <time>2023-05-03T15:39:31.426Z</time>
      </trkpt>
      <trkpt lat="48.12382" lon="-2.99868">
        <ele>111.34774</ele>
        <time>2023-05-03T15:39:34.418Z</time>
      </trkpt>
      <trkpt lat="48.12384" lon="-2.99851">
        <ele>111.368236</ele>
        <time>2023-05-03T15:39:37.421Z</time>
      </trkpt>
      <trkpt lat="48.12383" lon="-2.99838">
        <ele>111.385149</ele>
        <time>2023-05-03T15:39:40.420Z</time>
      </trkpt>
      <trkpt lat="48.12382" lon="-2.9982">
        <ele>111.406545</ele>
        <time>2023-05-03T15:39:44.419Z</time>
      </trkpt>
      <trkpt lat="48.12381" lon="-2.99806">
        <ele>111.424181</ele>
        <time>2023-05-03T15:39:47.414Z</time>
      </trkpt>
      <trkpt lat="48.1238" lon="-2.99792">
        <ele>111.441631</ele>
        <time>2023-05-03T15:39:50.419Z</time>
      </trkpt>
      <trkpt lat="48.12378" lon="-2.99776">
        <ele>111.461009</ele>
        <time>2023-05-03T15:39:53.420Z</time>
      </trkpt>
      <trkpt lat="48.12375" lon="-2.9976">
        <ele>111.614379</ele>
        <time>2023-05-03T15:39:56.414Z</time>
      </trkpt>
      <trkpt lat="48.12373" lon="-2.99745">
        <ele>111.840182</ele>
        <time>2023-05-03T15:39:59.413Z</time>
      </trkpt>
      <trkpt lat="48.12372" lon="-2.9973">
        <ele>112.066705</ele>
        <time>2023-05-03T15:40:02.412Z</time>
      </trkpt>
      <trkpt lat="48.1237" lon="-2.99716">
        <ele>112.283654</ele>
        <time>2023-05-03T15:40:05.425Z</time>
      </trkpt>
      <trkpt lat="48.12367" lon="-2.99699">
        <ele>112.543971</ele>
        <time>2023-05-03T15:40:09.417Z</time>
      </trkpt>
      <trkpt lat="48.12366" lon="-2.99686">
        <ele>112.747665</ele>
        <time>2023-05-03T15:40:12.416Z</time>
      </trkpt>
      <trkpt lat="48.12363" lon="-2.99672">
        <ele>112.97086</ele>
        <time>2023-05-03T15:40:15.413Z</time>
      </trkpt>
      <trkpt lat="48.12361" lon="-2.99657">
        <ele>113.195986</ele>
        <time>2023-05-03T15:40:18.414Z</time>
      </trkpt>
      <trkpt lat="48.12358" lon="-2.99643">
        <ele>113.417444</ele>
        <time>2023-05-03T15:40:21.418Z</time>
      </trkpt>
      <trkpt lat="48.12354" lon="-2.99627">
        <ele>113.665191</ele>
        <time>2023-05-03T15:40:24.423Z</time>
      </trkpt>
      <trkpt lat="48.12349" lon="-2.99612">
        <ele>113.919936</ele>
        <time>2023-05-03T15:40:28.424Z</time>
      </trkpt>
      <trkpt lat="48.12345" lon="-2.99599">
        <ele>114.133435</ele>
        <time>2023-05-03T15:40:31.418Z</time>
      </trkpt>
      <trkpt lat="48.12339" lon="-2.99584">
        <ele>114.39251</ele>
        <time>2023-05-03T15:40:35.425Z</time>
      </trkpt>
      <trkpt lat="48.12333" lon="-2.99569">
        <ele>114.658519</ele>
        <time>2023-05-03T15:40:39.419Z</time>
      </trkpt>
      <trkpt lat="48.12328" lon="-2.99557">
        <ele>114.879493</ele>
        <time>2023-05-03T15:40:42.416Z</time>
      </trkpt>
      <trkpt lat="48.12321" lon="-2.99542">
        <ele>115.145406</ele>
        <time>2023-05-03T15:40:46.426Z</time>
      </trkpt>
      <trkpt lat="48.12313" lon="-2.99529">
        <ele>115.420701</ele>
        <time>2023-05-03T15:40:49.419Z</time>
      </trkpt>
      <trkpt lat="48.12304" lon="-2.99519">
        <ele>115.500827</ele>
        <time>2023-05-03T15:40:52.414Z</time>
      </trkpt>
      <trkpt lat="48.12294" lon="-2.9951">
        <ele>115.477637</ele>
        <time>2023-05-03T15:40:56.415Z</time>
      </trkpt>
      <trkpt lat="48.12286" lon="-2.99503">
        <ele>115.45913</ele>
        <time>2023-05-03T15:40:59.413Z</time>
      </trkpt>
      <trkpt lat="48.12277" lon="-2.99497">
        <ele>115.438764</ele>
        <time>2023-05-03T15:41:02.413Z</time>
      </trkpt>
      <trkpt lat="48.12267" lon="-2.99491">
        <ele>115.417945</ele>
        <time>2023-05-03T15:41:05.419Z</time>
      </trkpt>
      <trkpt lat="48.12257" lon="-2.99487">
        <ele>115.397527</ele>
        <time>2023-05-03T15:41:08.426Z</time>
      </trkpt>
      <trkpt lat="48.12247" lon="-2.99486">
        <ele>115.37631</ele>
        <time>2023-05-03T15:41:11.424Z</time>
      </trkpt>
      <trkpt lat="48.12237" lon="-2.99485">
        <ele>115.356653</ele>
        <time>2023-05-03T15:41:14.423Z</time>
      </trkpt>
      <trkpt lat="48.12227" lon="-2.99483">
        <ele>115.33793</ele>
        <time>2023-05-03T15:41:17.416Z</time>
      </trkpt>
      <trkpt lat="48.12217" lon="-2.99482">
        <ele>115.317856</ele>
        <time>2023-05-03T15:41:21.418Z</time>
      </trkpt>
      <trkpt lat="48.12208" lon="-2.99479">
        <ele>115.298889</ele>
        <time>2023-05-03T15:41:25.425Z</time>
      </trkpt>
      <trkpt lat="48.12197" lon="-2.99476">
        <ele>115.27685</ele>
        <time>2023-05-03T15:41:30.417Z</time>
      </trkpt>
      <trkpt lat="48.12187" lon="-2.99474">
        <ele>115.258078</ele>
        <time>2023-05-03T15:41:34.421Z</time>
      </trkpt>
      <trkpt lat="48.12178" lon="-2.99473">
        <ele>115.238947</ele>
        <time>2023-05-03T15:41:38.423Z</time>
      </trkpt>
      <trkpt lat="48.12169" lon="-2.9947">
        <ele>115.22066</ele>
        <time>2023-05-03T15:41:47.411Z</time>
      </trkpt>
      <trkpt lat="48.09618" lon="-2.99098">
        <ele>109.00305</ele>
        <time>2023-05-03T16:05:38.417Z</time>
      </trkpt>
      <trkpt lat="48.09608" lon="-2.99091">
        <ele>108.983732</ele>
        <time>2023-05-03T16:05:42.420Z</time>
      </trkpt>
      <trkpt lat="48.096" lon="-2.99086">
        <ele>108.967555</ele>
        <time>2023-05-03T16:05:45.424Z</time>
      </trkpt>
      <trkpt lat="48.09591" lon="-2.99081">
        <ele>108.951724</ele>
        <time>2023-05-03T16:05:48.415Z</time>
      </trkpt>
      <trkpt lat="48.09582" lon="-2.99077">
        <ele>108.935111</ele>
        <time>2023-05-03T16:05:51.415Z</time>
      </trkpt>
      <trkpt lat="48.09573" lon="-2.99071">
        <ele>108.917172</ele>
        <time>2023-05-03T16:05:54.417Z</time>
      </trkpt>
      <trkpt lat="48.09563" lon="-2.99066">
        <ele>108.898775</ele>
        <time>2023-05-03T16:05:57.424Z</time>
      </trkpt>
      <trkpt lat="48.09552" lon="-2.99061">
        <ele>108.879165</ele>
        <time>2023-05-03T16:06:00.423Z</time>
      </trkpt>
      <trkpt lat="48.09541" lon="-2.99058">
        <ele>108.859219</ele>
        <time>2023-05-03T16:06:03.416Z</time>
      </trkpt>
      <trkpt lat="48.09531" lon="-2.99054">
        <ele>108.839959</ele>
        <time>2023-05-03T16:06:06.422Z</time>
      </trkpt>
      <trkpt lat="48.0952" lon="-2.9905">
        <ele>108.820609</ele>
        <time>2023-05-03T16:06:09.426Z</time>
      </trkpt>
      <trkpt lat="48.0951" lon="-2.99048">
        <ele>108.803262</ele>
        <time>2023-05-03T16:06:12.423Z</time>
      </trkpt>
      <trkpt lat="48.09501" lon="-2.99045">
        <ele>108.787262</ele>
        <time>2023-05-03T16:06:15.415Z</time>
      </trkpt>
      <trkpt lat="48.09493" lon="-2.99042">
        <ele>108.771139</ele>
        <time>2023-05-03T16:06:18.415Z</time>
      </trkpt>
      <trkpt lat="48.09483" lon="-2.99038">
        <ele>108.7543</ele>
        <time>2023-05-03T16:06:21.417Z</time>
      </trkpt>
      <trkpt lat="48.09473" lon="-2.99034">
        <ele>108.735665</ele>
        <time>2023-05-03T16:06:24.421Z</time>
      </trkpt>
      <trkpt lat="48.09463" lon="-2.99031">
        <ele>108.717373</ele>
        <time>2023-05-03T16:06:27.412Z</time>
      </trkpt>
      <trkpt lat="48.09453" lon="-2.99026">
        <ele>108.671108</ele>
        <time>2023-05-03T16:06:30.415Z</time>
      </trkpt>
      <trkpt lat="48.09442" lon="-2.99022">
        <ele>108.597941</ele>
        <time>2023-05-03T16:06:33.415Z</time>
      </trkpt>
      <trkpt lat="48.09432" lon="-2.99019">
        <ele>108.526164</ele>
        <time>2023-05-03T16:06:36.421Z</time>
      </trkpt>
      <trkpt lat="48.09421" lon="-2.99016">
        <ele>108.449365</ele>
        <time>2023-05-03T16:06:39.418Z</time>
      </trkpt>
      <trkpt lat="48.0941" lon="-2.99012">
        <ele>108.374238</ele>
        <time>2023-05-03T16:06:42.420Z</time>
      </trkpt>
      <trkpt lat="48.09399" lon="-2.99008">
        <ele>108.301947</ele>
        <time>2023-05-03T16:06:45.418Z</time>
      </trkpt>
      <trkpt lat="48.09388" lon="-2.99005">
        <ele>108.224259</ele>
        <time>2023-05-03T16:06:48.414Z</time>
      </trkpt>
      <trkpt lat="48.09377" lon="-2.99004">
        <ele>108.147232</ele>
        <time>2023-05-03T16:06:51.424Z</time>
      </trkpt>
      <trkpt lat="48.09365" lon="-2.99004">
        <ele>108.066298</ele>
        <time>2023-05-03T16:06:54.414Z</time>
      </trkpt>
      <trkpt lat="48.09352" lon="-2.99003">
        <ele>107.98261</ele>
        <time>2023-05-03T16:06:57.424Z</time>
      </trkpt>
      <trkpt lat="48.09341" lon="-2.99002">
        <ele>107.908303</ele>
        <time>2023-05-03T16:07:00.421Z</time>
      </trkpt>
      <trkpt lat="48.09332" lon="-2.99004">
        <ele>107.844405</ele>
        <time>2023-05-03T16:07:03.413Z</time>
      </trkpt>
      <trkpt lat="48.0932" lon="-2.99006">
        <ele>107.765317</ele>
        <time>2023-05-03T16:07:07.425Z</time>
      </trkpt>
      <trkpt lat="48.09309" lon="-2.99009">
        <ele>107.691094</ele>
        <time>2023-05-03T16:07:10.424Z</time>
      </trkpt>
      <trkpt lat="48.09298" lon="-2.9901">
        <ele>107.615232</ele>
        <time>2023-05-03T16:07:13.415Z</time>
      </trkpt>
      <trkpt lat="48.09287" lon="-2.99013">
        <ele>107.541326</ele>
        <time>2023-05-03T16:07:16.424Z</time>
      </trkpt>
      <trkpt lat="48.09276" lon="-2.99014">
        <ele>107.518978</ele>
        <time>2023-05-03T16:07:19.420Z</time>
      </trkpt>
      <trkpt lat="48.09265" lon="-2.99016">
        <ele>107.574213</ele>
        <time>2023-05-03T16:07:22.422Z</time>
      </trkpt>
      <trkpt lat="48.09255" lon="-2.99015">
        <ele>107.622642</ele>
        <time>2023-05-03T16:07:25.423Z</time>
      </trkpt>
      <trkpt lat="48.09246" lon="-2.99013">
        <ele>107.668077</ele>
        <time>2023-05-03T16:07:28.414Z</time>
      </trkpt>
      <trkpt lat="48.09237" lon="-2.99009">
        <ele>107.717786</ele>
        <time>2023-05-03T16:07:31.422Z</time>
      </trkpt>
      <trkpt lat="48.09228" lon="-2.99003">
        <ele>107.766877</ele>
        <time>2023-05-03T16:07:34.417Z</time>
      </trkpt>
      <trkpt lat="48.09219" lon="-2.98996">
        <ele>107.817807</ele>
        <time>2023-05-03T16:07:37.423Z</time>
      </trkpt>
      <trkpt lat="48.09209" lon="-2.98989">
        <ele>107.874644</ele>
        <time>2023-05-03T16:07:41.425Z</time>
      </trkpt>
      <trkpt lat="48.09201" lon="-2.98982">
        <ele>107.920228</ele>
        <time>2023-05-03T16:08:06.427Z</time>
      </trkpt>
      <trkpt lat="48.09188" lon="-2.98975">
        <ele>107.988849</ele>
        <time>2023-05-03T16:10:07.420Z</time>
      </trkpt>
      <trkpt lat="48.09178" lon="-2.98968">
        <ele>108.045051</ele>
        <time>2023-05-03T16:10:10.418Z</time>
      </trkpt>
      <trkpt lat="48.09167" lon="-2.98961">
        <ele>108.106445</ele>
        <time>2023-05-03T16:10:13.414Z</time>
      </trkpt>
      <trkpt lat="48.09157" lon="-2.98955">
        <ele>108.158121</ele>
        <time>2023-05-03T16:10:16.423Z</time>
      </trkpt>
      <trkpt lat="48.09147" lon="-2.98948">
        <ele>108.21521</ele>
        <time>2023-05-03T16:10:19.411Z</time>
      </trkpt>
      <trkpt lat="48.09136" lon="-2.9894">
        <ele>108.276373</ele>
        <time>2023-05-03T16:10:22.418Z</time>
      </trkpt>
      <trkpt lat="48.09126" lon="-2.98932">
        <ele>108.335865</ele>
        <time>2023-05-03T16:10:25.420Z</time>
      </trkpt>
      <trkpt lat="48.09115" lon="-2.98923">
        <ele>108.396539</ele>
        <time>2023-05-03T16:10:28.427Z</time>
      </trkpt>
      <trkpt lat="48.09106" lon="-2.98913">
        <ele>108.362441</ele>
        <time>2023-05-03T16:10:31.418Z</time>
      </trkpt>
      <trkpt lat="48.09097" lon="-2.98903">
        <ele>108.321176</ele>
        <time>2023-05-03T16:10:34.409Z</time>
      </trkpt>
      <trkpt lat="48.09091" lon="-2.98891">
        <ele>108.285013</ele>
        <time>2023-05-03T16:10:37.424Z</time>
      </trkpt>
      <trkpt lat="48.09082" lon="-2.98878">
        <ele>108.240156</ele>
        <time>2023-05-03T16:10:40.417Z</time>
      </trkpt>
      <trkpt lat="48.09072" lon="-2.98865">
        <ele>108.191985</ele>
        <time>2023-05-03T16:10:43.420Z</time>
      </trkpt>
      <trkpt lat="48.09062" lon="-2.98852">
        <ele>108.144956</ele>
        <time>2023-05-03T16:10:46.408Z</time>
      </trkpt>
      <trkpt lat="48.09053" lon="-2.98841">
        <ele>108.101929</ele>
        <time>2023-05-03T16:10:49.415Z</time>
      </trkpt>
      <trkpt lat="48.09045" lon="-2.9883">
        <ele>108.062141</ele>
        <time>2023-05-03T16:10:52.424Z</time>
      </trkpt>
      <trkpt lat="48.09036" lon="-2.98817">
        <ele>108.017548</ele>
        <time>2023-05-03T16:10:55.415Z</time>
      </trkpt>
      <trkpt lat="48.09026" lon="-2.98806">
        <ele>107.972759</ele>
        <time>2023-05-03T16:10:58.415Z</time>
      </trkpt>
      <trkpt lat="48.09015" lon="-2.98794">
        <ele>107.924653</ele>
        <time>2023-05-03T16:11:01.418Z</time>
      </trkpt>
      <trkpt lat="48.09005" lon="-2.98783">
        <ele>107.877394</ele>
        <time>2023-05-03T16:11:04.414Z</time>
      </trkpt>
      <trkpt lat="48.08994" lon="-2.98773">
        <ele>107.831578</ele>
        <time>2023-05-03T16:11:07.416Z</time>
      </trkpt>
      <trkpt lat="48.08983" lon="-2.98763">
        <ele>107.784448</ele>
        <time>2023-05-03T16:11:10.422Z</time>
      </trkpt>
      <trkpt lat="48.08972" lon="-2.98753">
        <ele>107.725788</ele>
        <time>2023-05-03T16:11:13.415Z</time>
      </trkpt>
      <trkpt lat="48.08964" lon="-2.98745">
        <ele>107.660979</ele>
        <time>2023-05-03T16:11:15.416Z</time>
      </trkpt>
      <trkpt lat="48.08957" lon="-2.98738">
        <ele>107.596524</ele>
        <time>2023-05-03T16:11:17.423Z</time>
      </trkpt>
      <trkpt lat="48.08946" lon="-2.98729">
        <ele>107.508231</ele>
        <time>2023-05-03T16:11:20.425Z</time>
      </trkpt>
      <trkpt lat="48.08937" lon="-2.9872">
        <ele>107.429893</ele>
        <time>2023-05-03T16:11:23.420Z</time>
      </trkpt>
      <trkpt lat="48.08928" lon="-2.98711">
        <ele>107.351994</ele>
        <time>2023-05-03T16:11:26.417Z</time>
      </trkpt>
      <trkpt lat="48.0892" lon="-2.98702">
        <ele>107.283109</ele>
        <time>2023-05-03T16:11:29.415Z</time>
      </trkpt>
      <trkpt lat="48.0891" lon="-2.98692">
        <ele>107.195299</ele>
        <time>2023-05-03T16:11:32.421Z</time>
      </trkpt>
      <trkpt lat="48.089" lon="-2.98681">
        <ele>107.10653</ele>
        <time>2023-05-03T16:11:35.417Z</time>
      </trkpt>
      <trkpt lat="48.0889" lon="-2.98673">
        <ele>107.025739</ele>
        <time>2023-05-03T16:11:38.424Z</time>
      </trkpt>
      <trkpt lat="48.0888" lon="-2.98665">
        <ele>106.942801</ele>
        <time>2023-05-03T16:11:41.421Z</time>
      </trkpt>
      <trkpt lat="48.08869" lon="-2.98657">
        <ele>106.860499</ele>
        <time>2023-05-03T16:11:44.416Z</time>
      </trkpt>
      <trkpt lat="48.08861" lon="-2.98652">
        <ele>106.793097</ele>
        <time>2023-05-03T16:11:47.426Z</time>
      </trkpt>
      <trkpt lat="48.08852" lon="-2.98645">
        <ele>106.722344</ele>
        <time>2023-05-03T16:11:50.425Z</time>
      </trkpt>
      <trkpt lat="48.08842" lon="-2.98637">
        <ele>106.641535</ele>
        <time>2023-05-03T16:11:53.409Z</time>
      </trkpt>
      <trkpt lat="48.08832" lon="-2.98627">
        <ele>106.553555</ele>
        <time>2023-05-03T16:11:56.423Z</time>
      </trkpt>
      <trkpt lat="48.08821" lon="-2.9862">
        <ele>106.469286</ele>
        <time>2023-05-03T16:11:59.415Z</time>
      </trkpt>
      <trkpt lat="48.0881" lon="-2.98612">
        <ele>106.325688</ele>
        <time>2023-05-03T16:12:02.425Z</time>
      </trkpt>
      <trkpt lat="48.088" lon="-2.98605">
        <ele>106.182599</ele>
        <time>2023-05-03T16:12:05.418Z</time>
      </trkpt>
      <trkpt lat="48.08789" lon="-2.98598">
        <ele>106.035917</ele>
        <time>2023-05-03T16:12:08.422Z</time>
      </trkpt>
      <trkpt lat="48.0878" lon="-2.98592">
        <ele>105.905681</ele>
        <time>2023-05-03T16:12:11.421Z</time>
      </trkpt>
      <trkpt lat="48.0877" lon="-2.98585">
        <ele>105.768583</ele>
        <time>2023-05-03T16:12:14.415Z</time>
      </trkpt>
      <trkpt lat="48.0876" lon="-2.98579">
        <ele>105.626762</ele>
        <time>2023-05-03T16:12:17.425Z</time>
      </trkpt>
      <trkpt lat="48.08749" lon="-2.98573">
        <ele>105.485814</ele>
        <time>2023-05-03T16:12:20.425Z</time>
      </trkpt>
      <trkpt lat="48.08738" lon="-2.98567">
        <ele>105.340742</ele>
        <time>2023-05-03T16:12:23.415Z</time>
      </trkpt>
      <trkpt lat="48.08726" lon="-2.98559">
        <ele>105.170357</ele>
        <time>2023-05-03T16:12:26.419Z</time>
      </trkpt>
      <trkpt lat="48.08714" lon="-2.98551">
        <ele>105.002624</ele>
        <time>2023-05-03T16:12:29.415Z</time>
      </trkpt>
      <trkpt lat="48.08703" lon="-2.98543">
        <ele>104.854335</ele>
        <time>2023-05-03T16:12:32.421Z</time>
      </trkpt>
      <trkpt lat="48.08693" lon="-2.98534">
        <ele>104.701657</ele>
        <time>2023-05-03T16:12:35.416Z</time>
      </trkpt>
      <trkpt lat="48.08683" lon="-2.98525">
        <ele>104.55352</ele>
        <time>2023-05-03T16:12:38.418Z</time>
      </trkpt>
      <trkpt lat="48.08672" lon="-2.98517">
        <ele>104.408935</ele>
        <time>2023-05-03T16:12:41.417Z</time>
      </trkpt>
      <trkpt lat="48.08662" lon="-2.9851">
        <ele>104.26699</ele>
        <time>2023-05-03T16:12:44.416Z</time>
      </trkpt>
      <trkpt lat="48.08651" lon="-2.98501">
        <ele>104.186951</ele>
        <time>2023-05-03T16:12:47.416Z</time>
      </trkpt>
      <trkpt lat="48.08642" lon="-2.98492">
        <ele>104.181667</ele>
        <time>2023-05-03T16:12:50.424Z</time>
      </trkpt>
      <trkpt lat="48.08633" lon="-2.98486">
        <ele>104.177064</ele>
        <time>2023-05-03T16:12:53.414Z</time>
      </trkpt>
      <trkpt lat="48.08623" lon="-2.98481">
        <ele>104.17214</ele>
        <time>2023-05-03T16:12:56.425Z</time>
      </trkpt>
      <trkpt lat="48.08613" lon="-2.98476">
        <ele>104.167208</ele>
        <time>2023-05-03T16:12:59.407Z</time>
      </trkpt>
      <trkpt lat="48.08602" lon="-2.9847">
        <ele>104.162107</ele>
        <time>2023-05-03T16:13:03.415Z</time>
      </trkpt>
      <trkpt lat="48.08592" lon="-2.98463">
        <ele>104.156762</ele>
        <time>2023-05-03T16:13:07.415Z</time>
      </trkpt>
      <trkpt lat="48.08583" lon="-2.98458">
        <ele>104.152226</ele>
        <time>2023-05-03T16:13:10.417Z</time>
      </trkpt>
      <trkpt lat="48.08574" lon="-2.98453">
        <ele>104.147883</ele>
        <time>2023-05-03T16:13:13.413Z</time>
      </trkpt>
      <trkpt lat="48.08564" lon="-2.98447">
        <ele>104.142533</ele>
        <time>2023-05-03T16:13:16.424Z</time>
      </trkpt>
      <trkpt lat="48.08553" lon="-2.9844">
        <ele>104.137039</ele>
        <time>2023-05-03T16:13:19.409Z</time>
      </trkpt>
      <trkpt lat="48.08542" lon="-2.98433">
        <ele>104.131458</ele>
        <time>2023-05-03T16:13:22.427Z</time>
      </trkpt>
      <trkpt lat="48.08531" lon="-2.98427">
        <ele>104.125898</ele>
        <time>2023-05-03T16:13:25.414Z</time>
      </trkpt>
      <trkpt lat="48.0852" lon="-2.9842">
        <ele>104.120399</ele>
        <time>2023-05-03T16:13:28.421Z</time>
      </trkpt>
      <trkpt lat="48.08509" lon="-2.98413">
        <ele>104.114862</ele>
        <time>2023-05-03T16:13:31.419Z</time>
      </trkpt>
      <trkpt lat="48.08499" lon="-2.98407">
        <ele>104.109752</ele>
        <time>2023-05-03T16:13:34.416Z</time>
      </trkpt>
      <trkpt lat="48.08488" lon="-2.98403">
        <ele>104.067748</ele>
        <time>2023-05-03T16:13:37.420Z</time>
      </trkpt>
      <trkpt lat="48.08478" lon="-2.98398">
        <ele>103.906259</ele>
        <time>2023-05-03T16:13:40.414Z</time>
      </trkpt>
      <trkpt lat="48.08467" lon="-2.98392">
        <ele>103.749689</ele>
        <time>2023-05-03T16:13:43.419Z</time>
      </trkpt>
      <trkpt lat="48.08458" lon="-2.98388">
        <ele>103.607423</ele>
        <time>2023-05-03T16:13:45.415Z</time>
      </trkpt>
      <trkpt lat="48.08446" lon="-2.98383">
        <ele>103.422724</ele>
        <time>2023-05-03T16:13:48.416Z</time>
      </trkpt>
      <trkpt lat="48.08437" lon="-2.9838">
        <ele>103.28785</ele>
        <time>2023-05-03T16:13:50.419Z</time>
      </trkpt>
      <trkpt lat="48.08425" lon="-2.98377">
        <ele>103.110205</ele>
        <time>2023-05-03T16:13:53.415Z</time>
      </trkpt>
      <trkpt lat="48.08413" lon="-2.98373">
        <ele>102.940287</ele>
        <time>2023-05-03T16:13:56.425Z</time>
      </trkpt>
      <trkpt lat="48.08403" lon="-2.98371">
        <ele>102.789819</ele>
        <time>2023-05-03T16:13:59.419Z</time>
      </trkpt>
      <trkpt lat="48.08392" lon="-2.98369">
        <ele>102.622674</ele>
        <time>2023-05-03T16:14:02.419Z</time>
      </trkpt>
      <trkpt lat="48.08379" lon="-2.98367">
        <ele>102.43329</ele>
        <time>2023-05-03T16:14:05.415Z</time>
      </trkpt>
      <trkpt lat="48.08366" lon="-2.98366">
        <ele>102.254302</ele>
        <time>2023-05-03T16:14:08.426Z</time>
      </trkpt>
      <trkpt lat="48.08355" lon="-2.98367">
        <ele>102.095679</ele>
        <time>2023-05-03T16:14:11.416Z</time>
      </trkpt>
      <trkpt lat="48.08345" lon="-2.98366">
        <ele>101.948716</ele>
        <time>2023-05-03T16:14:14.418Z</time>
      </trkpt>
      <trkpt lat="48.08334" lon="-2.98365">
        <ele>101.778432</ele>
        <time>2023-05-03T16:14:17.421Z</time>
      </trkpt>
      <trkpt lat="48.08323" lon="-2.98366">
        <ele>101.622908</ele>
        <time>2023-05-03T16:14:20.414Z</time>
      </trkpt>
      <trkpt lat="48.08311" lon="-2.98364">
        <ele>101.537351</ele>
        <time>2023-05-03T16:14:23.416Z</time>
      </trkpt>
      <trkpt lat="48.08298" lon="-2.98364">
        <ele>101.728561</ele>
        <time>2023-05-03T16:14:26.419Z</time>
      </trkpt>
      <trkpt lat="48.08285" lon="-2.98364">
        <ele>101.918452</ele>
        <time>2023-05-03T16:14:29.421Z</time>
      </trkpt>
      <trkpt lat="48.08273" lon="-2.98364">
        <ele>102.095075</ele>
        <time>2023-05-03T16:14:32.423Z</time>
      </trkpt>
      <trkpt lat="48.08261" lon="-2.98364">
        <ele>102.270216</ele>
        <time>2023-05-03T16:14:35.413Z</time>
      </trkpt>
      <trkpt lat="48.08249" lon="-2.98364">
        <ele>102.444028</ele>
        <time>2023-05-03T16:14:38.421Z</time>
      </trkpt>
      <trkpt lat="48.08237" lon="-2.98365">
        <ele>102.61771</ele>
        <time>2023-05-03T16:14:41.421Z</time>
      </trkpt>
      <trkpt lat="48.08227" lon="-2.98366">
        <ele>102.769989</ele>
        <time>2023-05-03T16:14:44.425Z</time>
      </trkpt>
      <trkpt lat="48.08217" lon="-2.98367">
        <ele>102.90737</ele>
        <time>2023-05-03T16:14:47.420Z</time>
      </trkpt>
      <trkpt lat="48.08207" lon="-2.98368">
        <ele>103.057017</ele>
        <time>2023-05-03T16:14:50.416Z</time>
      </trkpt>
      <trkpt lat="48.08196" lon="-2.98369">
        <ele>103.216138</ele>
        <time>2023-05-03T16:14:53.421Z</time>
      </trkpt>
      <trkpt lat="48.08185" lon="-2.98369">
        <ele>103.384011</ele>
        <time>2023-05-03T16:14:56.424Z</time>
      </trkpt>
      <trkpt lat="48.08175" lon="-2.98371">
        <ele>103.527656</ele>
        <time>2023-05-03T16:14:59.421Z</time>
      </trkpt>
      <trkpt lat="48.08163" lon="-2.98373">
        <ele>103.697218</ele>
        <time>2023-05-03T16:15:03.419Z</time>
      </trkpt>
      <trkpt lat="48.08153" lon="-2.98378">
        <ele>103.855804</ele>
        <time>2023-05-03T16:15:07.425Z</time>
      </trkpt>
      <trkpt lat="48.08143" lon="-2.98381">
        <ele>104.005015</ele>
        <time>2023-05-03T16:15:11.415Z</time>
      </trkpt>
      <trkpt lat="48.08131" lon="-2.98384">
        <ele>104.132254</ele>
        <time>2023-05-03T16:15:16.425Z</time>
      </trkpt>
      <trkpt lat="48.0812" lon="-2.98387">
        <ele>104.17868</ele>
        <time>2023-05-03T16:15:20.413Z</time>
      </trkpt>
      <trkpt lat="48.0811" lon="-2.9839">
        <ele>104.219144</ele>
        <time>2023-05-03T16:15:23.419Z</time>
      </trkpt>
      <trkpt lat="48.08098" lon="-2.98393">
        <ele>104.269396</ele>
        <time>2023-05-03T16:15:26.423Z</time>
      </trkpt>
      <trkpt lat="48.08086" lon="-2.98394">
        <ele>104.317193</ele>
        <time>2023-05-03T16:15:29.423Z</time>
      </trkpt>
      <trkpt lat="48.08075" lon="-2.98395">
        <ele>104.362162</ele>
        <time>2023-05-03T16:15:32.421Z</time>
      </trkpt>
      <trkpt lat="48.08064" lon="-2.98397">
        <ele>104.407357</ele>
        <time>2023-05-03T16:15:35.415Z</time>
      </trkpt>
      <trkpt lat="48.08052" lon="-2.98397">
        <ele>104.454695</ele>
        <time>2023-05-03T16:15:38.418Z</time>
      </trkpt>
      <trkpt lat="48.08041" lon="-2.98397">
        <ele>104.502433</ele>
        <time>2023-05-03T16:15:41.422Z</time>
      </trkpt>
      <trkpt lat="48.0803" lon="-2.98399">
        <ele>104.545687</ele>
        <time>2023-05-03T16:15:44.414Z</time>
      </trkpt>
      <trkpt lat="48.0802" lon="-2.98401">
        <ele>104.586293</ele>
        <time>2023-05-03T16:15:47.423Z</time>
      </trkpt>
      <trkpt lat="48.0801" lon="-2.98402">
        <ele>104.625645</ele>
        <time>2023-05-03T16:15:50.414Z</time>
      </trkpt>
      <trkpt lat="48.08" lon="-2.98402">
        <ele>104.666503</ele>
        <time>2023-05-03T16:15:53.416Z</time>
      </trkpt>
      <trkpt lat="48.0799" lon="-2.98403">
        <ele>104.709198</ele>
        <time>2023-05-03T16:15:56.424Z</time>
      </trkpt>
      <trkpt lat="48.07978" lon="-2.98406">
        <ele>104.759128</ele>
        <time>2023-05-03T16:15:59.417Z</time>
      </trkpt>
      <trkpt lat="48.07966" lon="-2.98409">
        <ele>104.806138</ele>
        <time>2023-05-03T16:16:02.421Z</time>
      </trkpt>
      <trkpt lat="48.07955" lon="-2.98413">
        <ele>104.819219</ele>
        <time>2023-05-03T16:16:05.416Z</time>
      </trkpt>
      <trkpt lat="48.07943" lon="-2.98418">
        <ele>104.668099</ele>
        <time>2023-05-03T16:16:08.417Z</time>
      </trkpt>
      <trkpt lat="48.07932" lon="-2.98423">
        <ele>104.515768</ele>
        <time>2023-05-03T16:16:11.417Z</time>
      </trkpt>
      <trkpt lat="48.07922" lon="-2.98427">
        <ele>104.380395</ele>
        <time>2023-05-03T16:16:14.413Z</time>
      </trkpt>
      <trkpt lat="48.07911" lon="-2.98432">
        <ele>104.236799</ele>
        <time>2023-05-03T16:16:17.422Z</time>
      </trkpt>
      <trkpt lat="48.07898" lon="-2.98438">
        <ele>104.072135</ele>
        <time>2023-05-03T16:16:20.416Z</time>
      </trkpt>
      <trkpt lat="48.07887" lon="-2.98442">
        <ele>103.922235</ele>
        <time>2023-05-03T16:16:23.417Z</time>
      </trkpt>
      <trkpt lat="48.07877" lon="-2.98448">
        <ele>103.787873</ele>
        <time>2023-05-03T16:16:26.424Z</time>
      </trkpt>
      <trkpt lat="48.07866" lon="-2.98451">
        <ele>103.653685</ele>
        <time>2023-05-03T16:16:28.424Z</time>
      </trkpt>
      <trkpt lat="48.07856" lon="-2.98457">
        <ele>103.507481</ele>
        <time>2023-05-03T16:16:31.420Z</time>
      </trkpt>
      <trkpt lat="48.07845" lon="-2.98463">
        <ele>103.362467</ele>
        <time>2023-05-03T16:16:34.414Z</time>
      </trkpt>
      <trkpt lat="48.07836" lon="-2.98468">
        <ele>103.238749</ele>
        <time>2023-05-03T16:16:37.418Z</time>
      </trkpt>
      <trkpt lat="48.07825" lon="-2.98475">
        <ele>103.092997</ele>
        <time>2023-05-03T16:16:41.424Z</time>
      </trkpt>
      <trkpt lat="48.07816" lon="-2.98482">
        <ele>102.959172</ele>
        <time>2023-05-03T16:16:44.418Z</time>
      </trkpt>
      <trkpt lat="48.07806" lon="-2.98488">
        <ele>102.830132</ele>
        <time>2023-05-03T16:16:47.420Z</time>
      </trkpt>
      <trkpt lat="48.07797" lon="-2.98494">
        <ele>102.704917</ele>
        <time>2023-05-03T16:16:50.415Z</time>
      </trkpt>
      <trkpt lat="48.07787" lon="-2.98499">
        <ele>102.575325</ele>
        <time>2023-05-03T16:16:53.420Z</time>
      </trkpt>
      <trkpt lat="48.07776" lon="-2.98502">
        <ele>102.752014</ele>
        <time>2023-05-03T16:16:56.421Z</time>
      </trkpt>
      <trkpt lat="48.07766" lon="-2.98506">
        <ele>102.915338</ele>
        <time>2023-05-03T16:16:59.424Z</time>
      </trkpt>
      <trkpt lat="48.07756" lon="-2.98507">
        <ele>103.067286</ele>
        <time>2023-05-03T16:17:03.419Z</time>
      </trkpt>
      <trkpt lat="48.07745" lon="-2.98508">
        <ele>103.237727</ele>
        <time>2023-05-03T16:17:07.419Z</time>
      </trkpt>
      <trkpt lat="48.07735" lon="-2.98508">
        <ele>103.399767</ele>
        <time>2023-05-03T16:17:11.415Z</time>
      </trkpt>
      <trkpt lat="48.07723" lon="-2.98507">
        <ele>103.585817</ele>
        <time>2023-05-03T16:17:15.415Z</time>
      </trkpt>
      <trkpt lat="48.07711" lon="-2.98502">
        <ele>103.780233</ele>
        <time>2023-05-03T16:17:19.419Z</time>
      </trkpt>
      <trkpt lat="48.07701" lon="-2.98496">
        <ele>103.952618</ele>
        <time>2023-05-03T16:17:22.424Z</time>
      </trkpt>
      <trkpt lat="48.07691" lon="-2.9849">
        <ele>104.118128</ele>
        <time>2023-05-03T16:17:25.423Z</time>
      </trkpt>
      <trkpt lat="48.07682" lon="-2.98482">
        <ele>104.278284</ele>
        <time>2023-05-03T16:17:28.422Z</time>
      </trkpt>
      <trkpt lat="48.07674" lon="-2.98475">
        <ele>104.425947</ele>
        <time>2023-05-03T16:17:31.419Z</time>
      </trkpt>
      <trkpt lat="48.07666" lon="-2.98466">
        <ele>104.590421</ele>
        <time>2023-05-03T16:17:34.416Z</time>
      </trkpt>
      <trkpt lat="48.07658" lon="-2.98456">
        <ele>104.75155</ele>
        <time>2023-05-03T16:17:37.418Z</time>
      </trkpt>
      <trkpt lat="48.07651" lon="-2.98446">
        <ele>104.909802</ele>
        <time>2023-05-03T16:17:40.420Z</time>
      </trkpt>
      <trkpt lat="48.07642" lon="-2.98434">
        <ele>105.089343</ele>
        <time>2023-05-03T16:17:43.418Z</time>
      </trkpt>
      <trkpt lat="48.07635" lon="-2.98422">
        <ele>105.264211</ele>
        <time>2023-05-03T16:17:46.414Z</time>
      </trkpt>
      <trkpt lat="48.07627" lon="-2.98411">
        <ele>105.370107</ele>
        <time>2023-05-03T16:17:49.424Z</time>
      </trkpt>
      <trkpt lat="48.07619" lon="-2.98398">
        <ele>105.182571</ele>
        <time>2023-05-03T16:17:53.414Z</time>
      </trkpt>
      <trkpt lat="48.07611" lon="-2.98388">
        <ele>105.006971</ele>
        <time>2023-05-03T16:17:56.422Z</time>
      </trkpt>
      <trkpt lat="48.07605" lon="-2.98377">
        <ele>104.852355</ele>
        <time>2023-05-03T16:17:59.418Z</time>
      </trkpt>
      <trkpt lat="48.07598" lon="-2.98364">
        <ele>104.669774</ele>
        <time>2023-05-03T16:18:02.426Z</time>
      </trkpt>
      <trkpt lat="48.07591" lon="-2.9835">
        <ele>104.47878</ele>
        <time>2023-05-03T16:18:05.420Z</time>
      </trkpt>
      <trkpt lat="48.07587" lon="-2.98337">
        <ele>104.317914</ele>
        <time>2023-05-03T16:18:08.423Z</time>
      </trkpt>
      <trkpt lat="48.07582" lon="-2.98324">
        <ele>104.15549</ele>
        <time>2023-05-03T16:18:11.417Z</time>
      </trkpt>
      <trkpt lat="48.07577" lon="-2.98312">
        <ele>103.995325</ele>
        <time>2023-05-03T16:18:15.417Z</time>
      </trkpt>
      <trkpt lat="48.0757" lon="-2.98296">
        <ele>103.791556</ele>
        <time>2023-05-03T16:18:19.418Z</time>
      </trkpt>
      <trkpt lat="48.07565" lon="-2.9828">
        <ele>103.596508</ele>
        <time>2023-05-03T16:18:23.406Z</time>
      </trkpt>
      <trkpt lat="48.07561" lon="-2.98267">
        <ele>103.444861</ele>
        <time>2023-05-03T16:18:26.418Z</time>
      </trkpt>
      <trkpt lat="48.07557" lon="-2.98254">
        <ele>103.280857</ele>
        <time>2023-05-03T16:18:30.426Z</time>
      </trkpt>
      <trkpt lat="48.07553" lon="-2.98241">
        <ele>103.13054</ele>
        <time>2023-05-03T16:18:33.416Z</time>
      </trkpt>
      <trkpt lat="48.07548" lon="-2.98228">
        <ele>102.968706</ele>
        <time>2023-05-03T16:18:36.421Z</time>
      </trkpt>
      <trkpt lat="48.07543" lon="-2.98214">
        <ele>102.792408</ele>
        <time>2023-05-03T16:18:39.408Z</time>
      </trkpt>
      <trkpt lat="48.0754" lon="-2.982">
        <ele>102.632667</ele>
        <time>2023-05-03T16:18:42.423Z</time>
      </trkpt>
      <trkpt lat="48.07537" lon="-2.98187">
        <ele>102.478082</ele>
        <time>2023-05-03T16:18:45.422Z</time>
      </trkpt>
      <trkpt lat="48.07534" lon="-2.98173">
        <ele>102.684145</ele>
        <time>2023-05-03T16:18:48.424Z</time>
      </trkpt>
      <trkpt lat="48.07535" lon="-2.98159">
        <ele>102.960888</ele>
        <time>2023-05-03T16:18:51.418Z</time>
      </trkpt>
      <trkpt lat="48.07537" lon="-2.98142">
        <ele>103.284195</ele>
        <time>2023-05-03T16:18:55.425Z</time>
      </trkpt>
      <trkpt lat="48.07539" lon="-2.98125">
        <ele>103.614491</ele>
        <time>2023-05-03T16:18:59.424Z</time>
      </trkpt>
      <trkpt lat="48.07539" lon="-2.9811">
        <ele>103.887549</ele>
        <time>2023-05-03T16:19:03.423Z</time>
      </trkpt>
      <trkpt lat="48.07539" lon="-2.98097">
        <ele>104.149143</ele>
        <time>2023-05-03T16:20:24.420Z</time>
      </trkpt>
      <trkpt lat="48.07542" lon="-2.98081">
        <ele>104.441951</ele>
        <time>2023-05-03T16:20:30.409Z</time>
      </trkpt>
      <trkpt lat="48.07543" lon="-2.98065">
        <ele>104.754086</ele>
        <time>2023-05-03T16:20:34.421Z</time>
      </trkpt>
      <trkpt lat="48.07546" lon="-2.98048">
        <ele>105.100417</ele>
        <time>2023-05-03T16:20:38.420Z</time>
      </trkpt>
      <trkpt lat="48.07549" lon="-2.98032">
        <ele>105.401357</ele>
        <time>2023-05-03T16:20:41.414Z</time>
      </trkpt>
      <trkpt lat="48.07551" lon="-2.98015">
        <ele>105.721845</ele>
        <time>2023-05-03T16:20:44.418Z</time>
      </trkpt>
      <trkpt lat="48.07551" lon="-2.97999">
        <ele>106.025101</ele>
        <time>2023-05-03T16:20:47.415Z</time>
      </trkpt>
      <trkpt lat="48.07552" lon="-2.97984">
        <ele>106.316096</ele>
        <time>2023-05-03T16:20:50.422Z</time>
      </trkpt>
      <trkpt lat="48.07553" lon="-2.97969">
        <ele>106.606425</ele>
        <time>2023-05-03T16:20:53.423Z</time>
      </trkpt>
      <trkpt lat="48.07555" lon="-2.97955">
        <ele>106.88567</ele>
        <time>2023-05-03T16:20:56.417Z</time>
      </trkpt>
      <trkpt lat="48.07557" lon="-2.9794">
        <ele>107.157123</ele>
        <time>2023-05-03T16:20:59.422Z</time>
      </trkpt>
      <trkpt lat="48.07558" lon="-2.97926">
        <ele>107.427958</ele>
        <time>2023-05-03T16:21:02.420Z</time>
      </trkpt>
      <trkpt lat="48.07559" lon="-2.97911">
        <ele>107.46177</ele>
        <time>2023-05-03T16:21:05.418Z</time>
      </trkpt>
      <trkpt lat="48.0756" lon="-2.97896">
        <ele>107.281332</ele>
        <time>2023-05-03T16:21:08.416Z</time>
      </trkpt>
      <trkpt lat="48.07561" lon="-2.9788">
        <ele>107.091501</ele>
        <time>2023-05-03T16:21:12.419Z</time>
      </trkpt>
      <trkpt lat="48.07562" lon="-2.97863">
        <ele>106.881362</ele>
        <time>2023-05-03T16:21:16.416Z</time>
      </trkpt>
      <trkpt lat="48.07562" lon="-2.97847">
        <ele>106.699999</ele>
        <time>2023-05-03T16:21:20.421Z</time>
      </trkpt>
      <trkpt lat="48.07562" lon="-2.97833">
        <ele>106.524587</ele>
        <time>2023-05-03T16:21:25.424Z</time>
      </trkpt>
      <trkpt lat="48.07564" lon="-2.97819">
        <ele>106.360706</ele>
        <time>2023-05-03T16:21:30.411Z</time>
      </trkpt>
      <trkpt lat="48.07567" lon="-2.97802">
        <ele>106.145347</ele>
        <time>2023-05-03T16:21:34.420Z</time>
      </trkpt>
      <trkpt lat="48.0757" lon="-2.97786">
        <ele>105.953315</ele>
        <time>2023-05-03T16:21:37.419Z</time>
      </trkpt>
      <trkpt lat="48.07572" lon="-2.97771">
        <ele>105.778842</ele>
        <time>2023-05-03T16:21:40.419Z</time>
      </trkpt>
      <trkpt lat="48.07572" lon="-2.97758">
        <ele>105.619232</ele>
        <time>2023-05-03T16:21:43.412Z</time>
      </trkpt>
      <trkpt lat="48.07574" lon="-2.97744">
        <ele>105.445274</ele>
        <time>2023-05-03T16:21:46.419Z</time>
      </trkpt>
      <trkpt lat="48.07577" lon="-2.97729">
        <ele>105.271363</ele>
        <time>2023-05-03T16:21:49.419Z</time>
      </trkpt>
      <trkpt lat="48.07579" lon="-2.97714">
        <ele>105.090125</ele>
        <time>2023-05-03T16:21:52.421Z</time>
      </trkpt>
      <trkpt lat="48.07582" lon="-2.97701">
        <ele>104.919242</ele>
        <time>2023-05-03T16:21:55.426Z</time>
      </trkpt>
      <trkpt lat="48.07585" lon="-2.97684">
        <ele>104.712153</ele>
        <time>2023-05-03T16:21:59.424Z</time>
      </trkpt>
      <trkpt lat="48.07587" lon="-2.97671">
        <ele>104.55134</ele>
        <time>2023-05-03T16:22:02.414Z</time>
      </trkpt>
      <trkpt lat="48.0759" lon="-2.97657">
        <ele>104.388335</ele>
        <time>2023-05-03T16:22:05.420Z</time>
      </trkpt>
      <trkpt lat="48.07592" lon="-2.97644">
        <ele>104.326157</ele>
        <time>2023-05-03T16:22:08.417Z</time>
      </trkpt>
      <trkpt lat="48.07596" lon="-2.97627">
        <ele>104.263584</ele>
        <time>2023-05-03T16:22:12.419Z</time>
      </trkpt>
      <trkpt lat="48.076" lon="-2.97613">
        <ele>104.211008</ele>
        <time>2023-05-03T16:22:15.420Z</time>
      </trkpt>
      <trkpt lat="48.07604" lon="-2.976">
        <ele>104.160845</ele>
        <time>2023-05-03T16:22:18.422Z</time>
      </trkpt>
      <trkpt lat="48.07608" lon="-2.97586">
        <ele>104.107757</ele>
        <time>2023-05-03T16:22:21.421Z</time>
      </trkpt>
      <trkpt lat="48.07613" lon="-2.97573">
        <ele>104.057636</ele>
        <time>2023-05-03T16:22:24.419Z</time>
      </trkpt>
      <trkpt lat="48.07618" lon="-2.9756">
        <ele>104.004995</ele>
        <time>2023-05-03T16:22:27.415Z</time>
      </trkpt>
      <trkpt lat="48.07623" lon="-2.97546">
        <ele>103.950853</ele>
        <time>2023-05-03T16:22:30.415Z</time>
      </trkpt>
      <trkpt lat="48.07628" lon="-2.97533">
        <ele>103.899068</ele>
        <time>2023-05-03T16:22:33.417Z</time>
      </trkpt>
      <trkpt lat="48.07633" lon="-2.97521">
        <ele>103.847618</ele>
        <time>2023-05-03T16:22:36.418Z</time>
      </trkpt>
      <trkpt lat="48.07639" lon="-2.97507">
        <ele>103.793359</ele>
        <time>2023-05-03T16:22:39.423Z</time>
      </trkpt>
      <trkpt lat="48.07644" lon="-2.97495">
        <ele>103.744092</ele>
        <time>2023-05-03T16:22:42.416Z</time>
      </trkpt>
      <trkpt lat="48.07648" lon="-2.97481">
        <ele>103.690542</ele>
        <time>2023-05-03T16:22:45.421Z</time>
      </trkpt>
      <trkpt lat="48.07652" lon="-2.97466">
        <ele>103.63569</ele>
        <time>2023-05-03T16:22:48.415Z</time>
      </trkpt>
      <trkpt lat="48.07655" lon="-2.97452">
        <ele>103.586406</ele>
        <time>2023-05-03T16:22:51.421Z</time>
      </trkpt>
      <trkpt lat="48.07656" lon="-2.97439">
        <ele>103.53898</ele>
        <time>2023-05-03T16:22:54.420Z</time>
      </trkpt>
      <trkpt lat="48.07657" lon="-2.97424">
        <ele>103.486464</ele>
        <time>2023-05-03T16:22:57.415Z</time>
      </trkpt>
      <trkpt lat="48.07657" lon="-2.97409">
        <ele>103.442251</ele>
        <time>2023-05-03T16:23:00.425Z</time>
      </trkpt>
      <trkpt lat="48.07657" lon="-2.97395">
        <ele>103.559752</ele>
        <time>2023-05-03T16:23:03.421Z</time>
      </trkpt>
      <trkpt lat="48.07658" lon="-2.97381">
        <ele>103.678102</ele>
        <time>2023-05-03T16:23:06.418Z</time>
      </trkpt>
      <trkpt lat="48.07657" lon="-2.97364">
        <ele>103.824923</ele>
        <time>2023-05-03T16:23:09.419Z</time>
      </trkpt>
      <trkpt lat="48.07655" lon="-2.97349">
        <ele>103.953642</ele>
        <time>2023-05-03T16:23:12.418Z</time>
      </trkpt>
      <trkpt lat="48.07654" lon="-2.97332">
        <ele>104.09672</ele>
        <time>2023-05-03T16:23:16.422Z</time>
      </trkpt>
      <trkpt lat="48.07653" lon="-2.97317">
        <ele>104.22544</ele>
        <time>2023-05-03T16:23:20.420Z</time>
      </trkpt>
      <trkpt lat="48.07653" lon="-2.97303">
        <ele>104.346309</ele>
        <time>2023-05-03T16:23:23.425Z</time>
      </trkpt>
      <trkpt lat="48.07652" lon="-2.97288">
        <ele>104.478607</ele>
        <time>2023-05-03T16:23:26.426Z</time>
      </trkpt>
      <trkpt lat="48.07649" lon="-2.9727">
        <ele>104.63311</ele>
        <time>2023-05-03T16:23:30.416Z</time>
      </trkpt>
      <trkpt lat="48.07647" lon="-2.97253">
        <ele>104.783473</ele>
        <time>2023-05-03T16:23:34.421Z</time>
      </trkpt>
      <trkpt lat="48.07645" lon="-2.97238">
        <ele>104.913078</ele>
        <time>2023-05-03T16:23:37.419Z</time>
      </trkpt>
      <trkpt lat="48.07641" lon="-2.97221">
        <ele>105.065653</ele>
        <time>2023-05-03T16:23:41.429Z</time>
      </trkpt>
      <trkpt lat="48.07638" lon="-2.97204">
        <ele>105.215955</ele>
        <time>2023-05-03T16:23:44.421Z</time>
      </trkpt>
      <trkpt lat="48.07635" lon="-2.9719">
        <ele>105.341468</ele>
        <time>2023-05-03T16:23:47.416Z</time>
      </trkpt>
      <trkpt lat="48.07632" lon="-2.97176">
        <ele>105.468193</ele>
        <time>2023-05-03T16:23:51.421Z</time>
      </trkpt>
      <trkpt lat="48.07627" lon="-2.97159">
        <ele>105.620644</ele>
        <time>2023-05-03T16:23:55.422Z</time>
      </trkpt>
      <trkpt lat="48.07623" lon="-2.97144">
        <ele>105.716697</ele>
        <time>2023-05-03T16:23:58.420Z</time>
      </trkpt>
      <trkpt lat="48.0762" lon="-2.97131">
        <ele>105.668348</ele>
        <time>2023-05-03T16:24:01.423Z</time>
      </trkpt>
      <trkpt lat="48.07616" lon="-2.97118">
        <ele>105.620957</ele>
        <time>2023-05-03T16:24:04.419Z</time>
      </trkpt>
      <trkpt lat="48.07612" lon="-2.97105">
        <ele>105.572048</ele>
        <time>2023-05-03T16:24:07.414Z</time>
      </trkpt>
      <trkpt lat="48.07607" lon="-2.9709">
        <ele>105.516762</ele>
        <time>2023-05-03T16:24:10.425Z</time>
      </trkpt>
      <trkpt lat="48.07602" lon="-2.97078">
        <ele>105.466126</ele>
        <time>2023-05-03T16:24:13.426Z</time>
      </trkpt>
      <trkpt lat="48.07598" lon="-2.97065">
        <ele>105.41848</ele>
        <time>2023-05-03T16:24:16.421Z</time>
      </trkpt>
      <trkpt lat="48.07593" lon="-2.97053">
        <ele>105.372214</ele>
        <time>2023-05-03T16:24:19.421Z</time>
      </trkpt>
      <trkpt lat="48.07588" lon="-2.97041">
        <ele>105.324693</ele>
        <time>2023-05-03T16:24:22.415Z</time>
      </trkpt>
      <trkpt lat="48.07584" lon="-2.97028">
        <ele>105.273034</ele>
        <time>2023-05-03T16:24:25.419Z</time>
      </trkpt>
      <trkpt lat="48.07579" lon="-2.97014">
        <ele>105.221913</ele>
        <time>2023-05-03T16:24:28.414Z</time>
      </trkpt>
      <trkpt lat="48.07574" lon="-2.97">
        <ele>105.164459</ele>
        <time>2023-05-03T16:24:32.416Z</time>
      </trkpt>
      <trkpt lat="48.07567" lon="-2.96986">
        <ele>105.108169</ele>
        <time>2023-05-03T16:24:36.420Z</time>
      </trkpt>
      <trkpt lat="48.07558" lon="-2.96975">
        <ele>105.047384</ele>
        <time>2023-05-03T16:24:40.421Z</time>
      </trkpt>
      <trkpt lat="48.0755" lon="-2.96965">
        <ele>104.997247</ele>
        <time>2023-05-03T16:24:43.423Z</time>
      </trkpt>
      <trkpt lat="48.07543" lon="-2.96958">
        <ele>104.950284</ele>
        <time>2023-05-03T16:24:46.420Z</time>
      </trkpt>
      <trkpt lat="48.07534" lon="-2.9695">
        <ele>104.898858</ele>
        <time>2023-05-03T16:24:49.414Z</time>
      </trkpt>
      <trkpt lat="48.07526" lon="-2.96941">
        <ele>104.849176</ele>
        <time>2023-05-03T16:24:52.414Z</time>
      </trkpt>
      <trkpt lat="48.07516" lon="-2.96932">
        <ele>104.799411</ele>
        <time>2023-05-03T16:24:55.419Z</time>
      </trkpt>
      <trkpt lat="48.07507" lon="-2.96924">
        <ele>104.766655</ele>
        <time>2023-05-03T16:24:58.425Z</time>
      </trkpt>
      <trkpt lat="48.07498" lon="-2.96916">
        <ele>104.736793</ele>
        <time>2023-05-03T16:25:01.424Z</time>
      </trkpt>
      <trkpt lat="48.07488" lon="-2.96908">
        <ele>104.7016</ele>
        <time>2023-05-03T16:25:05.418Z</time>
      </trkpt>
      <trkpt lat="48.0748" lon="-2.96901">
        <ele>104.672881</ele>
        <time>2023-05-03T16:25:08.416Z</time>
      </trkpt>
      <trkpt lat="48.07469" lon="-2.96892">
        <ele>104.636048</ele>
        <time>2023-05-03T16:25:11.404Z</time>
      </trkpt>
      <trkpt lat="48.0746" lon="-2.96884">
        <ele>104.603761</ele>
        <time>2023-05-03T16:25:14.411Z</time>
      </trkpt>
      <trkpt lat="48.07452" lon="-2.96878">
        <ele>104.57588</ele>
        <time>2023-05-03T16:25:17.415Z</time>
      </trkpt>
      <trkpt lat="48.07442" lon="-2.96871">
        <ele>104.544091</ele>
        <time>2023-05-03T16:25:20.419Z</time>
      </trkpt>
      <trkpt lat="48.07433" lon="-2.96865">
        <ele>104.514397</ele>
        <time>2023-05-03T16:25:23.419Z</time>
      </trkpt>
      <trkpt lat="48.07424" lon="-2.96858">
        <ele>104.48335</ele>
        <time>2023-05-03T16:25:27.415Z</time>
      </trkpt>
      <trkpt lat="48.07414" lon="-2.96851">
        <ele>104.448304</ele>
        <time>2023-05-03T16:25:32.415Z</time>
      </trkpt>
      <trkpt lat="48.07405" lon="-2.96846">
        <ele>104.419299</ele>
        <time>2023-05-03T16:25:36.419Z</time>
      </trkpt>
      <trkpt lat="48.07393" lon="-2.9684">
        <ele>104.382109</ele>
        <time>2023-05-03T16:25:41.425Z</time>
      </trkpt>
      <trkpt lat="48.07384" lon="-2.96836">
        <ele>104.35324</ele>
        <time>2023-05-03T16:25:44.419Z</time>
      </trkpt>
      <trkpt lat="48.07375" lon="-2.96831">
        <ele>104.323548</ele>
        <time>2023-05-03T16:25:48.417Z</time>
      </trkpt>
      <trkpt lat="48.07365" lon="-2.96828">
        <ele>104.292437</ele>
        <time>2023-05-03T16:25:52.414Z</time>
      </trkpt>
      <trkpt lat="48.07355" lon="-2.96822">
        <ele>104.269542</ele>
        <time>2023-05-03T16:25:56.421Z</time>
      </trkpt>
      <trkpt lat="48.07346" lon="-2.96816">
        <ele>104.269542</ele>
        <time>2023-05-03T16:25:59.417Z</time>
      </trkpt>
      <trkpt lat="48.07335" lon="-2.96811">
        <ele>104.269542</ele>
        <time>2023-05-03T16:26:02.422Z</time>
      </trkpt>
      <trkpt lat="48.07327" lon="-2.96805">
        <ele>104.269542</ele>
        <time>2023-05-03T16:26:05.418Z</time>
      </trkpt>
      <trkpt lat="48.07318" lon="-2.96797">
        <ele>104.269542</ele>
        <time>2023-05-03T16:26:09.413Z</time>
      </trkpt>
      <trkpt lat="48.0731" lon="-2.96789">
        <ele>104.269542</ele>
        <time>2023-05-03T16:26:14.420Z</time>
      </trkpt>
      <trkpt lat="48.07302" lon="-2.96781">
        <ele>104.269542</ele>
        <time>2023-05-03T16:26:19.415Z</time>
      </trkpt>
      <trkpt lat="48.07296" lon="-2.96769">
        <ele>104.269542</ele>
        <time>2023-05-03T16:26:23.416Z</time>
      </trkpt>
      <trkpt lat="48.07288" lon="-2.96759">
        <ele>104.269542</ele>
        <time>2023-05-03T16:26:26.421Z</time>
      </trkpt>
      <trkpt lat="48.0728" lon="-2.96749">
        <ele>104.269542</ele>
        <time>2023-05-03T16:26:30.423Z</time>
      </trkpt>
      <trkpt lat="48.07271" lon="-2.96736">
        <ele>104.269542</ele>
        <time>2023-05-03T16:26:34.412Z</time>
      </trkpt>
      <trkpt lat="48.07264" lon="-2.96727">
        <ele>104.269542</ele>
        <time>2023-05-03T16:26:38.416Z</time>
      </trkpt>
      <trkpt lat="48.07258" lon="-2.96717">
        <ele>104.269542</ele>
        <time>2023-05-03T16:26:42.416Z</time>
      </trkpt>
      <trkpt lat="48.07251" lon="-2.96704">
        <ele>104.269542</ele>
        <time>2023-05-03T16:26:47.418Z</time>
      </trkpt>
      <trkpt lat="48.07244" lon="-2.96691">
        <ele>104.269542</ele>
        <time>2023-05-03T16:26:51.419Z</time>
      </trkpt>
      <trkpt lat="48.07237" lon="-2.96683">
        <ele>104.269542</ele>
        <time>2023-05-03T16:26:55.415Z</time>
      </trkpt>
      <trkpt lat="48.07238" lon="-2.96673">
        <ele>104.269542</ele>
        <time>2023-05-03T22:27:26.023Z</time>
      </trkpt>
    </trkseg>
  </trk>
</gpx>